[[{"header":{"parameterUnit":"m.s-1","parameterCategory":1,"la1":30.6,"la2":28.766,"lo1":-90.7593,"lo2":-88.6598,"dy":0.0162,"dx":0.0183,"nx":116,"ny":114,"refTime":"2023-07-01T06:00:00:Z","depth":0,"parameterNumber":2,"parameterNumberName":"U-component_of_WINDS"},"data":[0.0,0.0,0.0,0.0,0.0,0.0,0.0,0.0,0.0,0.0,0.0,0.0,0.0,0.0,0.0,0.0,0.0,0.0,0.0,0.0,0.0,0.0,0.0,0.0,0.0,0.0,0.0,0.0,0.0,0.0,0.0,0.0,0.0,0.0,0.0,0.0,0.0,0.0,0.0,0.0,0.0,0.0,0.0,0.0,0.0,0.0,0.0,0.0,0.0,0.0,0.0,0.0,0.0,0.0,0.0,0.0,0.0,0.0,0.0,0.0,0.0,0.0,0.0,0.0,0.0,0.0,0.0,0.0,0.0,0.0,0.0,0.0,0.0,0.0,0.0,0.0,0.0,0.0,0.0,0.0,0.0,0.0,0.0,0.0,0.0,0.0,0.0,0.0,0.0,0.0,0.0,0.0,0.0,0.0,0.0,0.0,0.0,0.0,0.0,0.0,0.0,0.0,0.0,0.0,0.0,0.0,0.0,0.0,0.0,0.0,0.0,0.0,0.0,0.0,0.0,0.0,0.0,0.0,0.0,0.0,0.0,0.0,0.0,0.0,0.0,0.0,0.0,0.0,0.0,0.0,0.0,0.0,0.0,0.0,0.0,0.0,0.0,0.0,0.0,0.0,0.0,0.0,0.0,0.0,0.0,0.0,0.0,0.0,0.0,0.0,0.0,0.0,0.0,0.0,0.0,0.0,0.0,0.0,0.0,0.0,0.0,0.0,0.0,0.0,0.0,0.0,0.0,0.0,0.0,0.0,0.0,0.0,0.0,0.0,0.0,0.0,0.0,0.0,0.0,0.0,0.0,0.0,0.0,0.0,0.0,0.0,0.0,0.0,0.0,0.0,0.0,0.0,0.0,0.0,0.0,0.0,0.0,0.0,0.0,0.0,0.0,0.0,0.0,0.0,0.0,0.0,0.0,0.0,0.0,0.0,0.0,0.0,0.0,0.0,0.0,0.0,0.0,0.0,0.0,0.0,0.0,0.0,0.0,0.0,0.0,0.0,0.0,0.0,0.0,0.0,0.0,0.0,0.0,0.0,0.0,0.0,0.0,0.0,0.0,0.0,0.0,0.0,0.0,0.0,0.0,0.0,0.0,0.0,0.0,0.0,0.0,0.0,0.0,0.0,0.0,0.0,0.0,0.0,0.0,0.0,0.0,0.0,0.0,0.0,0.0,0.0,0.0,0.0,0.0,0.0,0.0,0.0,0.0,0.0,0.0,0.0,0.0,0.0,0.0,0.0,0.0,0.0,0.0,0.0,0.0,0.0,0.0,0.0,0.0,0.0,0.0,0.0,0.0,0.0,0.0,0.0,0.0,0.0,0.0,0.0,0.0,0.0,0.0,0.0,0.0,0.0,0.0,0.0,0.0,0.0,0.0,0.0,0.0,0.0,0.0,0.0,0.0,0.0,0.0,0.0,0.0,0.0,0.0,0.0,0.0,0.0,0.0,0.0,0.0,0.0,0.0,0.0,0.0,0.0,0.0,0.0,0.0,0.0,0.0,0.0,0.0,0.0,0.0,0.0,0.0,0.0,0.0,0.0,0.0,0.0,0.0,0.0,0.0,0.0,0.0,0.0,0.0,0.0,0.0,0.0,0.0,0.0,0.0,0.0,0.0,0.0,0.0,0.0,0.0,0.0,0.0,0.0,0.0,0.0,0.0,0.0,0.0,0.0,0.0,0.0,0.0,0.0,0.0,0.0,0.0,0.0,0.0,0.0,0.0,0.0,0.0,0.0,0.0,0.0,0.0,0.0,0.0,0.0,0.0,0.0,0.0,0.0,0.0,0.0,0.0,0.0,0.0,0.0,0.0,0.0,0.0,0.0,0.0,0.0,0.0,0.0,0.0,0.0,0.0,0.0,0.0,0.0,0.0,0.0,0.0,0.0,0.0,0.0,0.0,0.0,0.0,0.0,0.0,0.0,0.0,0.0,0.0,0.0,0.0,0.0,0.0,0.0,0.0,0.0,0.0,0.0,0.0,0.0,0.0,0.0,0.0,0.0,0.0,0.0,0.0,0.0,0.0,0.0,0.0,0.0,0.0,0.0,0.0,0.0,0.0,0.0,0.0,0.0,0.0,0.0,0.0,0.0,0.0,0.0,0.0,0.0,0.0,0.0,0.0,0.0,0.0,0.0,0.0,0.0,0.0,0.0,0.0,0.0,0.0,0.0,0.0,0.0,0.0,0.0,0.0,0.0,0.0,0.0,0.0,0.0,0.0,0.0,0.0,0.0,0.0,0.0,0.0,0.0,0.0,0.0,0.0,0.0,0.0,0.0,0.0,0.0,0.0,0.0,0.0,0.0,0.0,0.0,0.0,0.0,0.0,0.0,0.0,0.0,0.0,0.0,0.0,0.0,0.0,0.0,0.0,0.0,0.0,0.0,0.0,0.0,0.0,0.0,0.0,0.0,0.0,0.0,0.0,0.0,0.0,0.0,0.0,0.0,0.0,0.0,0.0,0.0,0.0,0.0,0.0,0.0,0.0,0.0,0.0,0.0,0.0,0.0,0.0,0.0,0.0,0.0,0.0,0.0,0.0,0.0,0.0,0.0,0.0,0.0,0.0,0.0,0.0,0.0,0.0,0.0,0.0,0.0,0.0,0.0,0.0,0.0,0.0,0.0,0.0,0.0,0.0,0.0,0.0,0.0,0.0,0.0,0.0,0.0,0.0,0.0,0.0,0.0,0.0,0.0,0.0,0.0,0.0,0.0,0.0,0.0,0.0,0.0,0.0,0.0,0.0,0.0,0.0,0.0,0.0,0.0,0.0,0.0,0.0,0.0,0.0,0.0,0.0,0.0,0.0,0.0,0.0,0.0,0.0,0.0,0.0,0.0,0.0,0.0,0.0,0.0,0.0,0.0,0.0,0.0,0.0,0.0,0.0,0.0,0.0,0.0,0.0,0.0,0.0,0.0,0.0,0.0,0.0,0.0,0.0,0.0,0.0,0.0,0.0,0.0,0.0,0.0,0.0,0.0,0.0,0.0,0.0,0.0,0.0,0.0,0.0,0.0,0.0,0.0,0.0,0.0,0.0,0.0,0.0,0.0,0.0,0.0,0.0,0.0,0.0,0.0,0.0,0.0,0.0,0.0,0.0,0.0,0.0,0.0,0.0,0.0,0.0,0.0,0.0,0.0,0.0,0.0,0.0,0.0,0.0,0.0,0.0,0.0,0.0,0.0,0.0,0.0,0.0,0.0,0.0,0.0,0.0,0.0,0.0,0.0,0.0,0.0,0.0,0.0,0.0,0.0,0.0,0.0,0.0,0.0,0.0,0.0,0.0,0.0,0.0,0.0,0.0,0.0,0.0,0.0,0.0,0.0,0.0,0.0,0.0,0.0,0.0,0.0,0.0,0.0,0.0,0.0,0.0,0.0,0.0,0.0,0.0,0.0,0.0,0.0,0.0,0.0,0.0,0.0,0.0,0.0,0.0,0.0,0.0,0.0,0.0,0.0,0.0,0.0,0.0,0.0,0.0,0.0,0.0,0.0,0.0,0.0,0.0,0.0,0.0,0.0,0.0,0.0,0.0,0.0,0.0,0.0,0.0,0.0,0.0,0.0,0.0,0.0,0.0,0.0,0.0,0.0,0.0,0.0,0.0,0.0,0.0,0.0,0.0,0.0,0.0,0.0,0.0,0.0,0.0,0.0,0.0,0.0,0.0,0.0,0.0,0.0,0.0,0.0,0.0,0.0,0.0,0.0,0.0,0.0,0.0,0.0,0.0,0.0,0.0,0.0,0.0,0.0,0.0,0.0,0.0,0.0,0.0,0.0,0.0,0.0,0.0,0.0,0.0,0.0,0.0,0.0,0.0,0.0,0.0,0.0,0.0,0.0,0.0,0.0,0.0,0.0,0.0,0.0,0.0,0.0,0.0,0.0,0.0,0.0,0.0,0.0,0.0,0.0,0.0,0.0,0.0,0.0,0.0,0.0,0.0,0.0,0.0,0.0,0.0,0.0,0.0,0.0,0.0,0.0,0.0,0.0,0.0,0.0,0.0,0.0,0.0,0.0,0.0,0.0,0.0,0.0,0.0,0.0,0.0,0.0,0.0,0.0,0.0,0.0,0.0,0.0,0.0,0.0,0.0,0.0,0.0,0.0,0.0,0.0,0.0,0.0,0.0,0.0,0.0,0.0,0.0,0.0,0.0,0.0,0.0,0.0,0.0,0.0,0.0,0.0,0.0,0.0,0.0,0.0,0.0,0.0,0.0,0.0,0.0,0.0,0.0,0.0,0.0,0.0,0.0,0.0,0.0,0.0,0.0,0.0,0.0,0.0,0.0,0.0,0.0,0.0,0.0,0.0,0.0,0.0,0.0,0.0,0.0,0.0,0.0,0.0,0.0,0.0,0.0,0.0,0.0,0.0,0.0,0.0,0.0,0.0,0.0,0.0,0.0,0.0,0.0,0.0,0.0,0.0,0.0,0.0,0.0,0.0,0.0,0.0,0.0,0.0,0.0,0.0,0.0,0.0,0.0,0.0,0.0,0.0,0.0,0.0,0.0,0.0,0.0,0.0,0.0,0.0,0.0,0.0,0.0,0.0,0.0,0.0,0.0,0.0,0.0,0.0,0.0,0.0,0.0,0.0,0.0,0.0,0.0,0.0,0.0,0.0,0.0,0.0,0.0,0.0,0.0,0.0,0.0,0.0,0.0,0.0,0.0,0.0,0.0,0.0,0.0,0.0,0.0,0.0,0.0,0.0,0.0,0.0,0.0,0.0,0.0,0.0,0.0,0.0,0.0,0.0,0.0,0.0,0.0,0.0,0.0,0.0,0.0,0.0,0.0,0.0,0.0,0.0,0.0,0.0,0.0,0.0,0.0,0.0,0.0,0.0,0.0,0.0,0.0,0.0,0.0,0.0,0.0,0.0,0.0,0.0,0.0,0.0,0.0,0.0,0.0,0.0,0.0,0.0,0.0,0.0,0.0,0.0,0.0,0.0,0.0,0.0,0.0,0.0,0.0,0.0,0.0,0.0,0.0,0.0,0.0,0.0,0.0,0.0,0.0,0.0,0.0,0.0,0.0,0.0,0.0,0.0,0.0,0.0,0.0,0.0,0.0,0.0,0.0,0.0,0.0,0.0,0.0,0.0,0.0,0.0,0.0,0.0,0.0,0.0,0.0,0.0,0.0,0.0,0.0,0.0,0.0,0.0,0.0,0.0,0.0,0.0,0.0,0.0,0.0,0.0,0.0,0.0,0.0,0.0,0.0,0.0,0.0,0.0,0.0,0.0,0.0,0.0,0.0,0.0,0.0,0.0,0.0,0.0,0.0,0.0,0.0,0.0,0.0,0.0,0.0,0.0,0.0,0.0,0.0,0.0,0.0,0.0,0.0,0.0,0.0,0.0,0.0,0.0,0.0,0.0,0.0,0.0,0.0,0.0,0.0,0.0,0.0,0.0,0.0,0.0,0.0,0.0,0.0,0.0,0.0,0.0,0.0,0.0,0.0,0.0,0.0,0.0,0.0,0.0,0.0,0.0,0.0,0.0,0.0,0.0,0.0,0.0,0.0,0.0,0.0,0.0,0.0,0.0,0.0,0.0,0.0,0.0,0.0,0.0,0.0,0.0,0.0,0.0,0.0,0.0,0.0,0.0,0.0,0.0,0.0,0.0,0.0,0.0,0.0,0.0,0.0,0.0,0.0,0.0,0.0,0.0,0.0,0.0,0.0,0.0,0.0,0.0,0.0,0.0,0.0,0.0,0.0,0.0,0.0,0.0,0.0,0.0,0.0,0.0,0.0,0.0,0.0,0.0,0.0,0.0,0.0,0.0,0.0,0.0,0.0,0.0,0.0,0.0,0.0,0.0,0.0,0.0,0.0,0.0,0.0,0.0,0.0,0.0,0.0,0.0,0.0,0.0,0.0,0.0,0.0,0.0,0.0,0.0,0.0,0.0,0.0,0.0,0.0,0.0,0.0,0.0,0.0,0.0,0.0,0.0,0.0,0.0,0.0,0.0,0.0,0.0,0.0,0.0,0.0,0.0,0.0,0.0,0.0,0.0,0.0,0.0,0.0,0.0,0.0,0.0,0.0,0.0,0.0,0.0,0.0,0.0,0.0,0.0,0.0,0.0,0.0,0.0,0.0,0.0,0.0,0.0,0.0,0.0,-1.1623,-1.1215,0.0,0.0,0.0,0.0,0.0,0.0,0.0,0.0,0.0,0.0,0.0,0.0,0.0,0.0,0.0,0.0,0.0,0.0,0.0,0.0,0.0,0.0,0.0,0.0,0.0,0.0,0.0,0.0,0.0,0.0,0.0,0.0,0.0,0.0,0.0,0.0,0.0,0.0,-0.8475,-0.9047,-0.9585,-0.8547,-0.797,-0.7859,0.0,0.0,0.0,0.0,0.0,0.0,0.0,0.0,0.0,0.0,0.0,0.0,0.0,0.0,0.0,0.0,0.0,0.0,0.0,0.0,0.0,0.0,0.0,0.0,0.0,0.0,0.0,0.0,0.0,0.0,0.0,0.0,0.0,0.0,0.0,0.0,0.0,0.0,0.0,0.0,0.0,0.0,0.0,0.0,0.0,0.0,0.0,0.0,0.0,0.0,0.0,0.0,0.0,0.0,0.0,0.0,0.0,0.0,0.0,0.0,0.0,0.0,0.0,0.0,0.0,0.0,0.0,0.0,0.0,0.0,-1.3056,-1.2477,0.0,0.0,0.0,0.0,0.0,0.0,0.0,0.0,0.0,0.0,0.0,0.0,0.0,0.0,0.0,0.0,0.0,0.0,0.0,0.0,0.0,0.0,0.0,0.0,-0.7301,-0.7294,-0.7239,-0.7432,0.0,0.0,0.0,0.0,0.0,0.0,0.0,0.0,0.0,0.0,-0.9904,-1.0593,-1.1266,-1.1256,-1.0856,-1.0138,-0.9842,0.0,0.0,0.0,0.0,0.0,0.0,0.0,0.0,0.0,0.0,0.0,0.0,0.0,0.0,0.0,0.0,0.0,0.0,0.0,0.0,0.0,0.0,0.0,0.0,0.0,0.0,0.0,0.0,0.0,0.0,0.0,0.0,0.0,0.0,0.0,0.0,0.0,0.0,0.0,0.0,0.0,0.0,0.0,0.0,0.0,0.0,0.0,0.0,0.0,0.0,0.0,0.0,0.0,0.0,0.0,0.0,0.0,0.0,0.0,0.0,0.0,0.0,0.0,-1.4518,-1.4937,-1.5498,-1.5498,-1.5797,-1.6197,-1.4947,-1.4321,-1.4215,-1.4266,0.0,0.0,0.0,0.0,0.0,0.0,0.0,0.0,0.0,0.0,0.0,0.0,0.0,0.0,0.0,0.0,0.0,0.0,0.0,0.0,0.0,-0.8123,-0.8283,-0.8852,-0.8831,-0.8781,0.0,0.0,0.0,0.0,0.0,0.0,0.0,-0.978,-1.0055,-1.0043,-1.1101,-1.2268,-1.3488,-1.3412,-1.3307,-1.3087,-1.185,-1.0936,-1.0341,0.0,0.0,0.0,0.0,0.0,0.0,0.0,0.0,0.0,0.0,0.0,0.0,0.0,0.0,0.0,0.0,0.0,0.0,0.0,0.0,0.0,0.0,0.0,0.0,0.0,0.0,0.0,0.0,0.0,0.0,0.0,0.0,0.0,0.0,0.0,0.0,0.0,0.0,0.0,0.0,0.0,-0.8697,-0.8689,0.0,0.0,0.0,0.0,0.0,0.0,0.0,0.0,0.0,0.0,0.0,0.0,0.0,-1.3433,-1.3673,-1.4619,-1.5216,-1.5469,-1.6021,-1.6564,-1.7108,-1.7108,-1.7358,-1.7813,-1.7607,0.0,-1.5869,-1.5892,0.0,0.0,0.0,0.0,0.0,0.0,0.0,0.0,0.0,0.0,0.0,0.0,0.0,0.0,0.0,0.0,0.0,0.0,0.0,0.0,0.0,-0.9318,-0.9601,-0.9848,-1.0158,-1.0281,-1.0151,-1.0051,0.0,0.0,0.0,0.0,-1.0025,-1.0994,-1.1818,-1.2505,-1.3352,-1.4221,-1.5143,-1.544,-1.5776,-1.6094,-1.5465,-1.4102,-1.2223,-1.1868,0.0,0.0,0.0,0.0,0.0,0.0,0.0,0.0,0.0,0.0,0.0,0.0,0.0,0.0,0.0,0.0,0.0,0.0,0.0,0.0,0.0,0.0,0.0,0.0,0.0,0.0,0.0,0.0,0.0,0.0,0.0,0.0,0.0,0.0,0.0,0.0,0.0,0.0,0.0,-0.8842,-0.9493,-0.9765,-1.0339,-1.071,0.0,0.0,0.0,0.0,0.0,0.0,0.0,0.0,0.0,-1.4039,-1.4482,-1.5018,-1.5648,-1.6185,-1.6783,-1.738,-1.7741,-1.8173,-1.8678,-1.8678,-1.8793,-1.9011,-1.9011,-1.876,-1.8345,-1.7784,-1.7559,-1.758,0.0,0.0,0.0,0.0,-1.6703,-1.6703,0.0,0.0,0.0,0.0,0.0,0.0,0.0,0.0,0.0,0.0,0.0,0.0,-0.9831,-1.0431,-1.0777,-1.0714,-1.1078,-1.1243,-1.1124,-1.1045,0.0,0.0,0.0,-1.1188,-1.1064,-1.2532,-1.3812,-1.4872,-1.5477,-1.6107,-1.6716,-1.7179,-1.7639,-1.8098,-1.8082,-1.6728,-1.4405,-1.3776,-1.3084,-1.2308,0.0,0.0,0.0,0.0,0.0,0.0,0.0,0.0,0.0,0.0,0.0,0.0,0.0,0.0,0.0,0.0,0.0,0.0,0.0,0.0,0.0,0.0,0.0,0.0,0.0,0.0,0.0,0.0,0.0,0.0,0.0,0.0,0.0,0.0,0.0,0.0,0.0,-0.9966,-1.0448,-1.0857,-1.1387,-1.1757,0.0,0.0,0.0,0.0,0.0,0.0,-1.4429,-1.4687,-1.5159,-1.5865,-1.6134,-1.6643,-1.7438,-1.7655,-1.8152,-1.8965,-1.9189,-1.9551,-2.0079,-2.0205,-2.0343,-2.0458,-2.0458,-2.063,-2.0805,-1.9528,-1.9151,-1.9372,-1.8963,-1.8806,-1.877,-1.8374,-1.8204,-1.8204,0.0,0.0,0.0,0.0,0.0,0.0,0.0,0.0,0.0,0.0,0.0,-1.0741,-1.0653,-1.1239,-1.1611,-1.1546,-1.1386,-1.1273,-1.1206,-1.1076,-1.0976,-1.0894,-1.2045,-1.2669,-1.2597,-1.4454,-1.5748,-1.6385,-1.706,-1.7733,-1.8375,-1.8406,-1.8407,-1.8377,-1.8316,-1.77,-1.6683,-1.6018,-1.5284,-1.4383,-1.2497,0.0,0.0,0.0,0.0,0.0,0.0,0.0,0.0,0.0,0.0,0.0,0.0,0.0,0.0,0.0,0.0,0.0,0.0,0.0,0.0,0.0,0.0,0.0,0.0,0.0,0.0,0.0,0.0,0.0,0.0,0.0,0.0,0.0,0.0,0.0,0.0,0.0,0.0,-1.2015,-1.2823,0.0,0.0,0.0,0.0,-1.4665,-1.5113,-1.5405,-1.5428,-1.6325,-1.689,-1.6909,-1.7856,-1.8419,-1.8623,-1.9054,-1.9426,-1.9666,-2.0113,-2.0607,-2.1132,-2.1594,-2.2076,-2.2558,-2.2558,-2.2726,-2.2897,-2.0864,-2.0226,-2.0526,-2.0506,-2.0466,-2.049,-2.0437,-2.0454,-2.0454,0.0,0.0,0.0,0.0,0.0,0.0,0.0,0.0,-0.8542,-0.9279,-1.0269,-1.0847,-1.0702,-1.1755,-1.2428,-1.2325,-1.3069,-1.3487,-1.3327,-1.3683,-1.3853,-1.374,-1.413,-1.4722,-1.5501,-1.6136,-1.699,-1.8109,-1.9211,-1.983,-2.0003,-2.085,-2.1205,-2.1103,-2.1068,-2.0876,-2.0418,-1.8189,-1.6576,-1.5474,-1.4777,-1.3953,0.0,0.0,0.0,0.0,0.0,0.0,0.0,0.0,0.0,0.0,0.0,0.0,0.0,0.0,0.0,0.0,0.0,0.0,0.0,0.0,0.0,0.0,0.0,0.0,0.0,0.0,0.0,0.0,0.0,0.0,0.0,0.0,0.0,0.0,0.0,0.0,0.0,-1.3509,-1.4134,0.0,-1.5234,-1.5554,-1.5906,-1.6432,-1.6637,-1.7025,-1.7649,-1.8025,-1.8378,-1.872,-1.9369,-1.9901,-2.0312,-2.0754,-2.122,-2.1617,-2.1789,-2.1962,-2.2178,-2.2329,-2.2513,-2.2719,-2.2855,-2.3012,-2.3144,-2.2545,-2.244,-2.265,-2.2289,-2.2125,-2.2101,-2.1765,-2.1632,-2.1632,0.0,0.0,0.0,0.0,0.0,0.0,0.0,0.0,-0.9055,-1.0077,-1.0858,-1.1352,-1.1494,-1.2807,-1.3636,-1.351,-1.4547,-1.5133,-1.4955,-1.531,-1.5469,-1.535,-1.5698,-1.6401,-1.7441,-1.7842,-1.8595,-1.9736,-2.0831,-2.1451,-2.1623,-2.2522,-2.2896,-2.2807,-2.2734,-2.2697,-2.2554,-2.0466,-1.8743,-1.7395,-1.6707,-1.5704,-1.4487,0.0,0.0,0.0,0.0,0.0,0.0,0.0,0.0,0.0,0.0,0.0,0.0,0.0,0.0,0.0,0.0,0.0,0.0,0.0,0.0,0.0,0.0,0.0,0.0,0.0,0.0,0.0,0.0,0.0,0.0,0.0,0.0,0.0,0.0,0.0,-1.4011,-1.4798,-1.5475,-1.6072,-1.6577,-1.7094,-1.7599,-1.8154,-1.8189,-1.8529,-1.9367,-1.9562,-1.9895,-2.0435,-2.0928,-2.1342,-2.1696,-2.2007,-2.2352,-2.2719,-2.2857,-2.2937,-2.2937,-2.311,-2.3225,-2.3294,-2.3445,-2.364,-2.3835,-2.3971,-2.4154,-2.4251,-2.3553,-2.3276,-2.324,-2.2859,-2.2758,-2.2758,0.0,0.0,0.0,0.0,0.0,0.0,0.0,-0.8204,-0.9282,-1.0799,-1.1642,-1.2355,-1.3038,-1.4367,-1.5185,-1.5106,-1.5671,-1.5971,-1.5843,-1.5734,-1.562,-1.5518,-1.6677,-1.7629,-1.8251,-1.9634,-2.0646,-2.1246,-2.1889,-2.256,-2.325,-2.3266,-2.3264,-2.3264,-2.3052,-2.2979,-2.2961,-2.2729,-2.1799,-2.0244,-1.8223,-1.687,-1.5995,0.0,0.0,0.0,0.0,0.0,0.0,0.0,0.0,0.0,0.0,0.0,0.0,0.0,0.0,0.0,0.0,0.0,0.0,0.0,0.0,0.0,0.0,0.0,0.0,0.0,0.0,0.0,0.0,0.0,0.0,0.0,0.0,0.0,-1.4646,-1.5022,-1.5533,-1.5935,-1.6855,-1.7648,-1.8111,-1.8632,-1.9149,-1.97,-1.9734,-1.9964,-2.0458,-2.0971,-2.1466,-2.1906,-2.2432,-2.273,-2.273,-2.2753,-2.2731,-2.2754,-2.3212,-2.3465,-2.3499,-2.4016,-2.4355,-2.4536,-2.4573,-2.4789,-2.5135,-2.5171,-2.523,-2.5252,-2.4251,-2.3854,-2.3854,-2.3854,-2.3854,-2.3854,0.0,0.0,0.0,0.0,0.0,0.0,0.0,-0.8727,-0.9984,-1.0959,-1.1667,-1.2366,-1.3088,-1.4465,-1.5285,-1.5119,-1.6229,-1.6879,-1.6681,-1.7055,-1.7422,-1.7779,-1.8029,-1.8752,-1.999,-2.0818,-2.1593,-2.2296,-2.3486,-2.41,-2.4152,-2.4701,-2.4869,-2.4718,-2.4665,-2.4627,-2.4595,-2.4015,-2.3457,-2.2786,-2.0578,-1.8936,-1.7726,0.0,0.0,0.0,0.0,0.0,0.0,0.0,0.0,0.0,0.0,0.0,0.0,0.0,0.0,0.0,0.0,0.0,0.0,0.0,0.0,0.0,0.0,0.0,0.0,0.0,0.0,0.0,0.0,0.0,0.0,0.0,0.0,-1.6108,-1.5472,-1.6421,-1.7348,-1.7789,-1.8325,-1.8834,-1.9339,-1.9437,-1.9826,-2.0718,-2.0787,-2.1167,-2.2007,-2.2224,-2.2362,-2.2467,-2.296,-2.3201,-2.3201,-2.3592,-2.3959,-2.4303,-2.4441,-2.468,-2.5096,-2.5362,-2.5533,-2.5608,-2.5883,-2.6081,-2.6193,-2.6342,-2.6416,-2.6345,-2.53,-2.4891,-2.4891,-2.4891,-2.4891,-2.4891,0.0,0.0,0.0,0.0,0.0,0.0,0.0,-0.892,-1.0255,-1.0996,-1.169,-1.2376,-1.311,-1.4527,-1.5475,-1.5634,-1.6659,-1.7363,-1.754,-1.8065,-1.8483,-1.8764,-1.9307,-2.0127,-2.1264,-2.1852,-2.2666,-2.372,-2.4425,-2.4894,-2.5114,-2.5536,-2.5656,-2.5562,-2.5467,-2.5429,-2.5378,-2.4887,-2.4441,-2.3981,-2.2633,-2.1011,-1.9342,-1.8858,-1.8051,-1.7064,-1.6257,-1.5472,-1.4708,-1.3981,0.0,0.0,0.0,0.0,0.0,0.0,0.0,0.0,0.0,0.0,0.0,0.0,0.0,0.0,0.0,0.0,0.0,0.0,0.0,0.0,0.0,0.0,0.0,0.0,-1.7302,-1.7641,-1.752,-1.7957,-1.8513,-1.9191,-1.9795,-2.0299,-2.0614,-2.0997,-2.1446,-2.2059,-2.1997,-2.2278,-2.3086,-2.3029,-2.319,-2.3603,-2.3902,-2.4129,-2.4359,-2.4682,-2.4981,-2.5245,-2.5245,-2.5444,-2.5808,-2.595,-2.6103,-2.6256,-2.6496,-2.6659,-2.6735,-2.686,-2.6898,-2.6837,0.0,0.0,0.0,0.0,-2.5636,-2.5612,0.0,0.0,0.0,0.0,0.0,0.0,0.0,-0.8843,-1.0155,-1.0989,-1.169,-1.2381,-1.3121,-1.4527,-1.5651,-1.6239,-1.6914,-1.7605,-1.8258,-1.8755,-1.9045,-1.9048,-2.039,-2.1487,-2.2224,-2.2797,-2.3751,-2.5128,-2.5039,-2.5312,-2.5934,-2.5934,-2.5934,-2.5881,-2.5712,-2.5635,-2.5635,-2.5448,-2.4967,-2.4358,-2.4358,-2.2961,-2.0863,-2.0785,-1.9873,-1.8563,-1.7805,-1.7022,-1.6233,-1.5513,0.0,0.0,0.0,0.0,0.0,0.0,0.0,0.0,0.0,0.0,0.0,0.0,0.0,0.0,0.0,0.0,0.0,0.0,0.0,0.0,0.0,0.0,0.0,0.0,-1.8828,-1.9612,-2.0226,-1.9676,-1.9499,-2.0322,-2.1308,-2.1891,-2.1891,-2.2751,-2.3329,-2.3354,-2.3219,-2.3327,-2.3793,0.0,0.0,0.0,0.0,-2.5309,-2.5743,-2.5781,-2.5816,-2.5873,-2.5873,-2.5974,-2.624,-2.624,-2.6432,-2.6788,-2.6788,-2.6914,-2.7078,-2.7078,-2.7078,-2.7066,-2.6946,-2.6898,-2.6837,-2.6382,-2.619,-2.6129,0.0,0.0,0.0,0.0,0.0,0.0,0.0,-0.8367,-0.947,-1.0906,-1.1731,-1.2461,-1.3196,-1.4605,-1.5507,-1.5587,-1.6741,-1.7699,-1.8258,-1.8899,-1.9482,-2.0011,-2.0816,-2.1844,-2.3127,-2.3765,-2.4509,-2.5347,-2.5898,-2.616,-2.6132,-2.6132,-2.6059,-2.5897,-2.586,-2.5842,-2.5842,-2.5805,-2.5612,-2.5333,-2.5333,-2.4216,-2.2461,-2.187,-2.1075,-2.0141,-1.9309,-1.8501,-1.7823,-1.7578,-1.6605,-1.5479,-1.5409,0.0,0.0,0.0,0.0,0.0,0.0,0.0,0.0,0.0,0.0,0.0,0.0,0.0,0.0,0.0,0.0,0.0,0.0,0.0,0.0,-1.9269,-2.0077,-2.1064,-2.2033,-2.1903,-2.1735,-2.18,-2.2619,-2.314,-2.314,-2.3254,-2.347,-2.3837,-2.3837,-2.4038,-2.4566,-2.4964,-2.528,-2.548,-2.5829,-2.6086,-2.6191,-2.6191,-2.6402,-2.6851,-2.6851,0.0,-2.7535,-2.7711,-2.783,-2.7921,-2.804,-2.8158,-2.821,-2.821,-2.821,-2.8086,-2.7234,-2.6898,-2.6885,-2.6777,-2.6741,-2.6717,0.0,0.0,0.0,0.0,0.0,0.0,0.0,-0.8261,-0.918,-1.0345,-1.1136,-1.1877,-1.2625,-1.3686,-1.4646,-1.5385,-1.6717,-1.7754,-1.8356,-1.9386,-2.0131,-2.0389,-2.1438,-2.2661,-2.4062,-2.4367,-2.5035,-2.6151,-2.6421,-2.6502,-2.6398,-2.6363,-2.6292,-2.6205,-2.6134,-2.6081,-2.6059,-2.5972,-2.5862,-2.5749,-2.5749,-2.5163,-2.4198,-2.3328,-2.2283,-2.1216,-2.0734,-1.9806,-1.8841,-1.873,-1.7945,-1.697,-1.6879,-1.6353,-1.5652,0.0,0.0,0.0,0.0,0.0,0.0,0.0,0.0,0.0,0.0,0.0,0.0,0.0,0.0,-1.7852,0.0,0.0,-2.0165,-2.0968,-2.1612,-2.2268,-2.3084,-2.3506,-2.3591,-2.3163,-2.3631,-2.3998,-2.3998,-2.4169,-2.4409,-2.4624,-2.4815,-2.5027,-2.5299,-2.5722,-2.6085,-2.6344,-2.6603,-2.6823,-2.7093,-2.7093,-2.7223,-2.7521,-2.7521,-2.769,-2.803,-2.8139,-2.8259,-2.8351,-2.8471,-2.851,-2.851,-2.851,-2.851,-2.8462,-2.7933,-2.7678,-2.7654,-2.739,-2.7294,-2.7246,0.0,0.0,0.0,0.0,0.0,0.0,0.0,-0.8133,-0.8888,-0.9794,-1.0569,-1.1235,-1.1824,-1.2672,-1.3834,-1.5368,-1.6614,-1.7604,-1.8271,-1.9837,-2.0678,-2.0558,-2.196,-2.3419,-2.4832,-2.4748,-2.5408,-2.6942,-2.6759,-2.6657,-2.6657,-2.6606,-2.6554,-2.6502,-2.6399,-2.6329,-2.6239,-2.6151,-2.6045,-2.5952,-2.5952,-2.5842,-2.5554,-2.4548,-2.3331,-2.2114,-2.1831,-2.0845,-1.9667,-1.9537,-1.8991,-1.8296,-1.8168,-1.798,-1.7673,-1.6946,-1.6686,0.0,0.0,0.0,0.0,0.0,0.0,0.0,0.0,0.0,-1.7646,-1.8636,-1.8728,-1.9114,-2.0588,-2.072,-2.1059,-2.2576,-2.3009,-2.3386,-2.4047,-2.4711,-2.4976,-2.4466,-2.4638,-2.479,-2.479,-2.5129,-2.5395,-2.5492,-2.5732,-2.5909,-2.6028,-2.6366,-2.6762,-2.7215,-2.7333,-2.7593,-2.8002,-2.8002,-2.8002,-2.8002,-2.8002,-2.8111,-2.8259,-2.8259,-2.8339,-2.851,-2.851,-2.851,-2.851,-2.855,-2.8538,-2.8538,-2.859,-2.863,-2.8542,-2.8029,-2.7873,-2.7774,0.0,0.0,0.0,0.0,0.0,0.0,0.0,0.0,-0.8215,-0.9792,-1.0639,-1.1091,-1.1115,-1.2419,-1.3892,-1.5375,-1.6188,-1.6912,-1.7648,-1.9684,-2.0844,-2.0775,-2.2186,-2.3619,-2.504,-2.4988,-2.5655,-2.7086,-2.7007,-2.6909,-2.6876,-2.6859,-2.6759,-2.6606,-2.6572,-2.6537,-2.6484,-2.645,-2.6345,-2.6168,-2.6168,-2.6059,-2.576,-2.481,-2.3871,-2.2939,-2.2161,-2.1347,-2.0601,-2.035,-1.9783,-1.9146,-1.9016,-1.8473,-1.7859,-1.7688,0.0,-1.7315,-1.7044,-1.7182,-1.7398,-1.7378,-1.8179,-1.8892,0.0,0.0,-1.9642,-2.0596,-2.0669,-2.0904,-2.1982,-2.2459,-2.2861,-2.3469,-2.3862,-2.4444,-2.5481,-2.5448,-2.545,-2.5896,-2.5822,-2.5742,-2.5742,-2.5652,-2.5765,-2.6238,-2.6142,-2.6285,-2.674,-2.7268,-2.7579,-2.7639,-2.8095,-2.8371,-2.8431,-2.8431,-2.8431,-2.8431,-2.8431,-2.8431,-2.8471,-2.8471,-2.8471,-2.851,-2.851,-2.851,-2.851,-2.8685,-2.8764,-2.8803,-2.8973,-2.9013,-2.8961,-2.8557,-2.8426,-2.8414,0.0,0.0,0.0,0.0,0.0,0.0,0.0,0.0,0.0,0.0,-0.9949,-1.0565,-1.1016,-1.2391,-1.3719,-1.4768,-1.5517,-1.6404,-1.7581,-1.893,-2.0063,-2.0873,-2.1907,-2.3142,-2.4593,-2.452,-2.5198,-2.6692,-2.659,-2.6722,-2.707,-2.7039,-2.6941,-2.6826,-2.6826,-2.6759,-2.6623,-2.6623,-2.652,-2.6363,-2.6363,-2.6008,-2.5402,-2.5001,-2.3976,-2.2715,-2.2206,-2.1496,0.0,0.0,-2.0322,-1.9922,-1.9822,-1.9504,-1.914,-1.8953,-1.8847,0.0,-1.8874,-1.9214,0.0,0.0,-1.9612,-2.0076,-2.0554,-2.0731,-2.1124,-2.2148,-2.2252,-2.2325,-2.2919,-2.3095,-2.3368,0.0,-2.4607,-2.5148,-2.5952,-2.6214,-2.6337,-2.6461,-2.6418,-2.6245,-2.5945,-2.5828,-2.5978,-2.6516,-2.6773,-2.7151,-2.7698,-2.8106,-2.8319,-2.8319,-2.843,-2.851,-2.851,-2.851,-2.8667,-2.8967,-2.8967,-2.9136,-2.9424,-2.9424,-2.9338,-2.9157,-2.9302,-2.9159,-2.8855,-2.8934,-2.8961,-2.8961,-2.9052,-2.9091,-2.9052,-2.8764,-2.8657,-2.8657,0.0,0.0,0.0,0.0,0.0,0.0,0.0,0.0,0.0,0.0,-0.9254,-0.9953,-1.099,-1.2035,-1.3051,-1.4013,-1.4799,-1.5755,-1.7037,-1.8205,-1.9317,-2.0372,-2.1554,-2.2764,-2.4023,-2.4137,-2.4839,-2.6139,-2.6017,-2.6313,-2.698,-2.6918,-2.6944,-2.7072,-2.7072,-2.6957,-2.6775,-2.6775,-2.6573,-2.6235,-2.6235,-2.5698,-2.4829,-2.458,-2.3704,-2.2573,-2.2295,-2.163,-2.0909,-2.0827,-2.0662,-2.0492,-2.0356,-2.0252,-2.0146,-2.0098,-2.0152,-2.0277,-2.0377,0.0,0.0,-2.1205,-2.1308,-2.1676,-2.2398,-2.2401,-2.2498,-2.3399,-2.3432,-2.342,-2.3802,-2.3698,-2.3924,-2.4897,-2.5288,-2.5691,-2.6405,-2.6788,-2.6956,-2.6794,-2.6794,-2.6624,-2.6258,-2.6208,-2.6424,-2.6978,-2.7447,-2.7937,-2.8478,-2.8753,-2.8882,-2.8882,-2.8736,-2.8669,-2.8669,-2.8814,-2.9133,-2.9508,-2.9653,-2.992,-3.0283,-3.0283,-3.016,-2.9935,-2.9987,-2.9745,-2.9352,-2.9231,-2.9157,-2.9197,-2.9248,-2.93,-2.926,-2.904,-2.8922,-2.8843,0.0,0.0,0.0,0.0,0.0,0.0,0.0,0.0,0.0,0.0,0.0,0.0,0.0,-1.1086,-1.1679,-1.3206,-1.4066,-1.4855,-1.562,-1.7755,-1.8975,-1.8959,-2.1169,-2.2725,-2.3401,-2.4061,-2.4759,-2.5517,-2.5403,-2.5705,-2.6417,-2.6362,-2.6643,-2.7181,-2.7181,-2.7119,-2.6991,-2.6991,-2.6467,-2.5626,-2.5626,-2.5058,-2.4144,-2.3302,-2.2924,-2.2844,-2.2508,-2.1876,-2.1151,-2.0876,-2.0794,-2.0728,-2.0491,-2.0354,0.0,-2.0913,-2.133,-2.157,0.0,0.0,-2.2823,-2.276,-2.3469,-2.417,-2.4047,-2.3935,-2.3897,-2.4203,-2.4177,-2.4217,-2.4672,-2.4637,-2.4864,-2.5818,-2.5874,-2.6121,-2.7121,-2.71,-2.699,-2.699,-2.699,-2.6977,0.0,-2.6964,-2.7182,-2.7729,-2.8075,-2.8502,-2.9042,-2.9079,-2.9091,-2.9091,-2.9091,-2.9091,-2.9091,-2.9671,-2.9966,-2.9979,-3.0524,-3.0758,-3.0782,-3.0782,-3.0758,-3.0733,-3.0228,-3.0007,-2.9945,-2.9537,-2.938,-2.9431,-2.9663,-2.9792,-2.9753,-2.947,-2.9275,-2.9052,0.0,0.0,0.0,0.0,0.0,0.0,0.0,0.0,0.0,0.0,0.0,0.0,0.0,0.0,0.0,0.0,-1.2958,-1.4046,-1.4812,-1.6053,-1.7438,-1.8961,-1.975,-2.0747,-2.2044,-2.2736,-2.3441,-2.4164,-2.461,-2.5156,-2.5801,-2.5729,-2.5789,-2.5938,-2.5895,-2.5791,-2.5674,-2.5674,-2.5413,-2.5006,-2.4959,-2.4425,-2.3575,-2.2748,-2.2013,-2.1367,0.0,-2.0846,-2.1246,-2.1103,-2.0957,-2.0778,-2.0678,-2.0526,-2.046,-2.0962,-2.1708,-2.2433,0.0,0.0,-2.3789,-2.4109,-2.4375,-2.4608,-2.4793,-2.4723,-2.4735,-2.5161,-2.5108,-2.5011,-2.495,-2.4892,-2.5047,-2.5512,-2.5902,-2.64,-2.7129,-2.74,-2.7503,-2.7335,-2.7235,0.0,0.0,0.0,0.0,-2.8157,-2.8612,-2.9088,-2.956,-2.9404,-2.9314,-2.9314,-2.917,-2.9315,-2.9684,-2.988,-3.0335,-3.1048,-3.1631,-3.1878,-3.1878,-3.1994,-3.1881,-3.1521,-3.1473,-3.1269,-3.0882,-3.0386,-3.0201,-3.0163,-2.9891,-2.9792,-2.9792,-2.9702,-2.9624,-2.9507,0.0,0.0,0.0,0.0,0.0,0.0,0.0,0.0,0.0,0.0,0.0,0.0,0.0,0.0,0.0,0.0,0.0,0.0,-1.4038,-1.4804,-1.6001,-1.7807,-1.8655,-1.9548,-2.0572,-2.154,-2.227,-2.2754,-2.3178,-2.3715,-2.435,-2.4582,-2.4774,-2.4948,-2.516,-2.5216,-2.5106,-2.5092,-2.4804,-2.4352,-2.4052,-2.3417,-2.2587,-2.1745,-2.1015,0.0,-1.979,-2.0071,-2.0717,-2.0809,-2.0718,-2.0591,-2.0748,-2.0939,-2.1206,-2.1722,-2.2686,-2.3652,-2.3886,-2.4446,-2.5059,-2.5302,-2.5396,-2.551,-2.5733,-2.5609,-2.5466,-2.5447,-2.5395,-2.5204,-2.4887,-2.4763,-2.4922,-2.5486,-2.5838,-2.6329,-2.7093,-2.7423,-2.763,-2.7709,-2.7636,-2.7594,0.0,0.0,0.0,-2.8497,-2.921,-2.9745,-2.9985,-2.9793,-2.9664,-2.9664,-2.9642,-2.9809,-3.022,-3.0592,-3.1236,-3.2128,-3.2488,-3.2649,-3.2649,-3.2766,-3.2653,-3.2317,-3.2218,-3.2014,-3.1637,-3.111,-3.0783,-3.0583,-3.0231,-2.9967,-2.9792,-2.9792,-2.9792,-2.9753,0.0,0.0,0.0,0.0,0.0,0.0,0.0,0.0,0.0,0.0,0.0,0.0,0.0,0.0,0.0,0.0,0.0,0.0,-1.3184,-1.4009,-1.4791,-1.56,-1.7811,-1.901,-1.8992,-2.0454,-2.124,-2.1283,-2.1193,-2.1532,-2.2264,-2.2956,-2.359,-2.4166,-2.4866,-2.515,-2.5073,-2.5004,-2.4459,-2.356,-2.2871,-2.2086,-2.1242,-2.0302,-1.9963,-1.9909,-1.9604,-1.9498,-1.956,0.0,0.0,0.0,0.0,-2.1582,-2.2561,-2.3172,-2.424,-2.5146,-2.483,-2.5644,-2.6553,-2.6327,-2.6561,-2.6806,-2.6806,-2.6539,-2.6032,-2.5198,-2.4978,-2.4845,0.0,0.0,-2.4627,-2.5656,-2.57,-2.5938,-2.6992,-2.7173,-2.7413,0.0,0.0,0.0,0.0,0.0,0.0,-2.8836,0.0,-3.0406,-3.0406,-3.0228,-3.0126,-3.0151,-3.045,-3.0645,-3.0696,-3.1738,-3.2528,-3.3124,-3.3124,-3.3124,-3.3124,-3.3124,-3.3124,-3.3086,-3.2533,-3.2294,-3.2256,-3.1703,-3.1175,-3.0696,-3.0633,-3.0294,-2.9868,-2.9843,-2.9792,-2.9753,0.0,0.0,0.0,0.0,0.0,0.0,0.0,0.0,0.0,0.0,0.0,0.0,0.0,0.0,0.0,0.0,0.0,0.0,-1.1655,-1.2947,-1.4043,-1.4848,-1.598,-1.6865,-1.7446,-1.8388,-1.9109,-1.9614,-2.0173,-2.0829,-2.1557,-2.165,-2.1765,-2.1916,-2.2051,-2.2054,-2.1937,-2.1925,-2.1731,-2.1385,-2.1098,-2.0852,-2.0558,-1.9667,-1.927,-1.9101,-1.849,0.0,0.0,0.0,0.0,0.0,0.0,-2.2114,-2.2964,-2.3898,-2.4713,-2.5461,-2.6314,-2.6563,-2.6707,-2.7126,-2.7176,-2.7052,-2.6858,-2.635,-2.5816,-2.5388,-2.4833,-2.434,0.0,0.0,0.0,-2.4764,-2.5119,0.0,-2.6283,-2.6937,0.0,-2.7565,0.0,-2.8319,-2.8858,-2.9409,0.0,0.0,-3.0345,-3.0571,-3.0406,-3.0368,-3.0522,-3.0906,-3.0981,-3.1385,-3.2101,-3.26,-3.293,-3.3124,-3.3124,-3.3124,-3.3124,-3.3283,-3.3313,-3.3313,-3.3318,-3.3339,-3.3288,-3.2727,-3.2421,-3.2217,-3.1376,-3.0863,-3.058,-3.0163,-2.9934,-2.9792,0.0,0.0,0.0,0.0,0.0,0.0,0.0,0.0,0.0,0.0,0.0,0.0,0.0,0.0,0.0,0.0,0.0,0.0,0.0,-1.1916,-1.2895,-1.4013,-1.4816,-1.5588,-1.6397,-1.7133,-1.7691,-1.8071,-1.8469,-1.8882,-1.9291,-1.9533,-1.9817,-2.0154,-2.0403,-2.0675,-2.0929,-2.0897,-2.082,0.0,0.0,-2.0032,-1.9906,-1.9052,-1.8659,0.0,0.0,0.0,0.0,0.0,0.0,-2.1456,-2.2255,-2.2702,-2.3204,-2.4715,0.0,-2.6105,-2.7042,-2.7335,-2.7446,-2.7635,-2.7524,-2.7246,-2.6725,-2.6247,-2.5658,-2.4908,-2.4357,0.0,0.0,0.0,0.0,0.0,0.0,0.0,-2.5697,-2.6688,-2.7424,0.0,-2.8093,0.0,-2.9422,-2.9763,-3.0206,0.0,-3.0952,-3.0874,-3.0672,-3.0558,-3.0791,-3.1293,-3.1497,-3.2083,-3.3071,-3.3276,-3.3356,-3.3356,-3.3356,-3.3356,-3.3356,-3.3471,-3.3513,-3.3556,-3.3641,-3.3713,-3.3687,-3.3379,-3.3098,-3.2831,-3.1932,-3.1353,-3.0954,-3.0432,-3.0113,-2.9934,0.0,0.0,0.0,0.0,0.0,0.0,0.0,0.0,0.0,0.0,0.0,0.0,0.0,0.0,0.0,0.0,0.0,0.0,0.0,0.0,0.0,0.0,-1.3874,-1.4677,-1.547,-1.6109,-1.653,-1.6737,-1.6611,-1.6613,-1.6733,-1.7356,-1.8003,-1.8636,-1.9208,-1.9846,-2.0456,-2.0405,-2.0312,-2.0135,-1.9423,-1.9108,-1.899,0.0,0.0,0.0,0.0,0.0,0.0,0.0,-2.0338,-2.147,-2.2943,-2.32,-2.3375,-2.5503,-2.6413,-2.686,-2.7435,-2.7973,-2.8339,-2.798,-2.769,-2.733,-2.6589,-2.6027,-2.5316,-2.4087,0.0,-2.3313,-2.3197,-2.2951,-2.2999,-2.3677,0.0,-2.4459,-2.5218,-2.6323,-2.7244,-2.7749,-2.8365,-2.9097,-3.0071,-3.0158,-3.0586,-3.1553,-3.1471,-3.1272,-3.1099,-3.0952,-3.1163,-3.1746,-3.2156,-3.2806,-3.3755,-3.3725,-3.3713,-3.3713,-3.3713,-3.3713,-3.3713,-3.3755,-3.3755,-3.3755,-3.3797,-3.3797,-3.3797,-3.3797,-3.3515,-3.3055,-3.2527,-3.1922,-3.1292,-3.0766,-3.0356,-3.0152,0.0,0.0,0.0,0.0,0.0,0.0,0.0,0.0,0.0,0.0,0.0,0.0,0.0,0.0,0.0,0.0,0.0,0.0,0.0,0.0,0.0,0.0,-1.2265,-1.304,-1.3809,-1.3945,-1.463,-1.5905,-1.5886,-1.6194,-1.6776,-1.6867,-1.6967,-1.7078,-1.7154,-1.7198,-1.7212,-1.7195,-1.7152,-1.7056,-1.6862,-1.6791,-1.6746,0.0,0.0,0.0,0.0,0.0,0.0,0.0,-2.0232,-2.1106,-2.2848,-2.3376,-2.3783,-2.6149,-2.6877,-2.719,-2.8264,-2.8487,-2.8372,-2.8299,-2.7692,-2.6995,-2.6641,-2.5246,0.0,0.0,0.0,-2.1455,-2.1433,-2.1262,0.0,-2.2508,0.0,0.0,0.0,0.0,-2.6156,0.0,0.0,0.0,0.0,0.0,0.0,0.0,-3.1817,-3.1706,-3.1498,-3.1747,-3.2292,-3.3207,-3.3576,-3.384,-3.4034,-3.381,-3.3713,-3.3713,-3.3713,-3.3713,-3.3713,-3.3937,-3.4034,-3.4034,-3.4189,-3.4272,-3.4272,-3.4272,-3.4207,-3.4064,-3.353,-3.2877,-3.2134,-3.1539,-3.0907,-3.0368,0.0,0.0,0.0,0.0,0.0,0.0,0.0,0.0,0.0,0.0,0.0,0.0,0.0,0.0,0.0,0.0,0.0,0.0,0.0,0.0,0.0,0.0,0.0,0.0,0.0,0.0,0.0,0.0,0.0,0.0,0.0,0.0,0.0,0.0,-1.6042,-1.6209,-1.6509,-1.6509,-1.6443,-1.6352,-1.6321,-1.6287,0.0,0.0,0.0,0.0,0.0,0.0,0.0,0.0,-1.9794,-2.0727,-2.2997,-2.3583,-2.3844,-2.6114,-2.6941,-2.73,-2.818,-2.8545,-2.8528,-2.8013,-2.7532,-2.6962,-2.5991,0.0,0.0,0.0,0.0,-2.1155,-2.1108,0.0,0.0,0.0,0.0,0.0,0.0,0.0,0.0,0.0,0.0,0.0,0.0,0.0,0.0,0.0,-3.2051,-3.1986,-3.1609,-3.2308,-3.3027,-3.3723,-3.4206,-3.4424,-3.4285,-3.4147,-3.405,-3.405,-3.405,-3.405,-3.405,-3.4189,-3.4285,-3.4285,-3.4356,-3.4397,-3.4397,-3.4397,-3.4397,-3.4345,-3.3809,-3.3181,-3.2475,-3.1889,-3.1202,-3.0571,0.0,0.0,0.0,0.0,0.0,0.0,0.0,0.0,-0.9309,-1.0196,-1.0243,-1.0203,-1.0208,-1.0149,0.0,0.0,0.0,0.0,0.0,0.0,0.0,0.0,0.0,0.0,0.0,0.0,0.0,0.0,0.0,0.0,0.0,0.0,0.0,0.0,0.0,0.0,0.0,-1.6109,-1.6046,0.0,0.0,-1.5879,0.0,0.0,0.0,0.0,0.0,0.0,0.0,0.0,-1.9181,-2.0216,-2.2795,-2.3572,-2.3887,-2.5807,-2.6696,-2.719,-2.7793,-2.8207,-2.8309,-2.7496,-2.7149,-2.6619,-2.5177,-2.4055,0.0,0.0,-2.1466,-2.0769,-2.0832,0.0,0.0,0.0,0.0,0.0,0.0,0.0,0.0,0.0,0.0,0.0,0.0,0.0,0.0,0.0,-3.2217,-3.2323,-3.203,-3.2898,-3.3608,-3.4138,-3.46,-3.4743,-3.4564,-3.4564,-3.4564,-3.4564,-3.4564,-3.4564,-3.4564,-3.4564,-3.4564,-3.4564,-3.4564,-3.4564,-3.4564,-3.4564,-3.4522,-3.4441,-3.4022,-3.3366,-3.2633,-3.215,-3.1473,-3.0773,0.0,0.0,0.0,0.0,0.0,0.0,0.0,0.0,-0.9312,-1.0184,-1.0247,-1.0207,-1.0204,-1.019,0.0,0.0,0.0,0.0,0.0,0.0,0.0,0.0,0.0,0.0,0.0,0.0,0.0,0.0,0.0,0.0,0.0,0.0,0.0,0.0,0.0,0.0,0.0,0.0,0.0,0.0,0.0,0.0,0.0,0.0,0.0,0.0,0.0,0.0,0.0,0.0,0.0,-1.9398,-2.165,-2.3093,-2.4149,-2.5267,0.0,0.0,-2.7331,-2.7322,-2.7145,-2.7076,-2.6352,-2.5441,-2.4543,0.0,0.0,-2.1159,-1.9891,-1.9096,-1.9649,-1.9082,0.0,0.0,0.0,-2.1356,0.0,0.0,0.0,0.0,0.0,0.0,0.0,0.0,0.0,-3.1764,-3.2323,-3.291,-3.3384,-3.3507,-3.4005,-3.4966,-3.5046,-3.5044,-3.5031,-3.5044,-3.5044,-3.5044,-3.5044,-3.5044,-3.5044,-3.5044,-3.5044,-3.5044,-3.5044,-3.5044,-3.5044,-3.5044,-3.4921,-3.4756,-3.4703,-3.3869,-3.2685,-3.2633,-3.1927,-3.0986,0.0,0.0,0.0,0.0,0.0,0.0,0.0,-0.8437,-0.9314,-1.0187,-1.0273,-1.0236,-1.0193,-1.0209,0.0,0.0,0.0,0.0,0.0,0.0,0.0,0.0,0.0,0.0,0.0,0.0,0.0,-1.226,-1.2539,0.0,0.0,0.0,0.0,0.0,0.0,0.0,0.0,0.0,0.0,0.0,0.0,0.0,0.0,0.0,0.0,0.0,0.0,0.0,0.0,0.0,0.0,0.0,-1.9836,-2.146,0.0,0.0,-2.5587,-2.6076,-2.6744,-2.7091,-2.7105,-2.6551,-2.5795,-2.4961,-2.4033,0.0,0.0,-2.0561,-1.9539,-1.874,-1.8487,-1.8471,-1.8732,-1.9518,0.0,0.0,0.0,0.0,0.0,0.0,0.0,0.0,0.0,0.0,0.0,-3.2486,-3.2743,-3.3076,-3.355,-3.3832,-3.4372,-3.5237,-3.5277,-3.5236,-3.5086,-3.5086,-3.5086,-3.5086,-3.5086,-3.5086,-3.5086,-3.5086,-3.5086,-3.5086,-3.5086,-3.5086,-3.5086,-3.5086,-3.5044,-3.4922,-3.4577,-3.3887,-3.2987,-3.2527,-3.1857,-3.1161,0.0,0.0,0.0,0.0,0.0,0.0,-0.7558,-0.8437,-0.9315,-1.0189,-1.0297,-1.0262,-1.0201,-1.0202,-1.0178,-1.0126,0.0,0.0,0.0,0.0,0.0,0.0,0.0,0.0,0.0,0.0,-1.0744,-1.1913,-1.2335,-1.3136,0.0,0.0,0.0,0.0,0.0,0.0,0.0,0.0,0.0,0.0,0.0,0.0,0.0,0.0,0.0,0.0,0.0,0.0,0.0,0.0,0.0,0.0,0.0,0.0,0.0,0.0,-2.4557,-2.5143,-2.5589,-2.5954,-2.605,-2.5381,-2.4791,-2.4137,0.0,0.0,-2.0811,-1.9999,-1.9055,-1.8239,-1.7808,-1.8069,-1.852,-1.9066,0.0,-2.1526,0.0,0.0,0.0,0.0,0.0,0.0,0.0,0.0,0.0,-3.308,-3.3108,-3.3266,-3.3652,-3.4111,-3.4678,-3.5305,-3.5507,-3.548,-3.5277,-3.5277,-3.5277,-3.5277,-3.5277,-3.5277,-3.5277,-3.5277,-3.5277,-3.5277,-3.5277,-3.5277,-3.5277,-3.5277,-3.5142,-3.4901,-3.4447,-3.3766,-3.2956,-3.239,-3.1849,-3.136,0.0,0.0,0.0,0.0,0.0,0.0,0.0,-0.8437,-0.9316,-1.0189,-1.0297,-1.0264,-1.0207,-1.0205,-1.0203,-1.0204,0.0,0.0,0.0,0.0,0.0,0.0,0.0,0.0,0.0,0.0,-1.1061,-1.102,-1.2609,-1.3405,-1.3423,-1.4169,-1.4504,0.0,0.0,0.0,0.0,0.0,0.0,0.0,0.0,0.0,0.0,0.0,0.0,0.0,0.0,0.0,0.0,0.0,0.0,0.0,0.0,0.0,0.0,0.0,-2.2875,-2.3951,-2.3684,-2.3546,-2.3425,-2.3357,-2.3126,-2.2717,0.0,0.0,-2.017,-1.9378,-1.8099,-1.7258,-1.7709,-1.7747,-1.7905,-1.8505,-2.0178,0.0,0.0,0.0,0.0,0.0,0.0,0.0,0.0,0.0,-3.2231,-3.3506,-3.3396,0.0,-3.3871,-3.4483,-3.4906,-3.5089,-3.5757,-3.5938,-3.571,-3.5669,-3.5669,-3.5669,-3.5669,-3.5669,-3.5669,-3.5669,-3.5669,-3.5669,-3.5669,-3.5669,-3.5669,-3.5669,-3.521,-3.4485,-3.4485,-3.363,-3.2397,-3.2384,-3.2038,-3.1572,0.0,0.0,0.0,0.0,0.0,0.0,0.0,0.0,-0.8417,-0.9289,-0.9927,-1.0267,-1.0208,-1.019,-1.019,-1.0206,0.0,0.0,0.0,0.0,0.0,0.0,0.0,0.0,0.0,0.0,-1.136,-1.1896,-1.2941,-1.3727,-1.4238,-1.4457,-1.4536,-1.4504,-1.4492,0.0,0.0,0.0,0.0,0.0,0.0,0.0,0.0,0.0,0.0,0.0,0.0,0.0,0.0,0.0,0.0,0.0,0.0,0.0,0.0,-1.8937,0.0,0.0,-2.3012,-2.3325,-2.3498,-2.3394,-2.2548,-2.1628,-2.1207,-2.0129,-1.9014,-1.8159,-1.7545,-1.7072,-1.6753,-1.7349,-1.7934,-1.8048,-2.0009,0.0,0.0,0.0,0.0,0.0,0.0,0.0,0.0,0.0,-3.2445,-3.3728,-3.3605,-3.355,-3.3677,-3.4125,-3.4664,-3.5308,-3.5955,-3.6272,-3.6192,-3.6192,-3.6112,-3.5978,-3.5978,-3.5898,-3.571,-3.571,-3.571,-3.571,-3.571,-3.571,-3.5683,-3.5236,-3.4925,-3.4642,-3.3869,-3.3276,-3.2809,-3.227,-3.1941,-3.178,0.0,0.0,0.0,0.0,0.0,0.0,0.0,0.0,-0.8006,-0.8879,-0.9752,-1.0269,-1.0211,-1.0194,-1.0194,-1.0191,0.0,0.0,0.0,0.0,0.0,0.0,0.0,0.0,0.0,-1.1138,-1.1947,-1.2744,-1.3556,-1.4198,-1.4643,-1.4614,-1.4587,-1.4543,-1.4537,-1.4515,0.0,0.0,0.0,0.0,0.0,0.0,-1.4344,0.0,0.0,0.0,0.0,0.0,0.0,0.0,0.0,0.0,0.0,0.0,0.0,0.0,-1.8617,0.0,0.0,-2.1877,-2.205,-2.1891,-2.1132,0.0,0.0,-1.9211,-1.8158,-1.7633,-1.7165,-1.6729,-1.6285,-1.7211,-1.8003,-1.7892,-2.0005,0.0,0.0,0.0,0.0,0.0,0.0,0.0,0.0,-3.2209,-3.261,-3.3885,-3.3813,-3.3709,-3.3709,-3.4165,-3.4626,-3.5049,-3.5798,-3.6249,-3.6405,-3.6405,-3.6325,-3.6206,-3.6206,-3.6112,-3.5965,-3.5965,-3.5965,-3.5965,-3.5965,-3.5842,0.0,-3.5109,-3.4687,-3.4145,-3.3387,-3.2966,-3.2684,-3.2208,-3.2,-3.1963,0.0,0.0,0.0,0.0,0.0,0.0,0.0,0.0,0.0,0.0,0.0,-1.0212,-1.0196,-1.0197,0.0,0.0,0.0,0.0,0.0,0.0,0.0,0.0,0.0,0.0,-1.1082,-1.1903,-1.2709,-1.35,-1.4302,-1.4705,-1.4706,-1.4643,-1.459,-1.4608,-1.4605,-1.4573,-1.4509,-1.4511,-1.4506,-1.4501,-1.4501,-1.4465,0.0,0.0,0.0,0.0,0.0,0.0,0.0,0.0,0.0,0.0,0.0,0.0,0.0,0.0,0.0,0.0,0.0,0.0,0.0,0.0,0.0,0.0,0.0,-1.8307,0.0,-1.7644,-1.6929,-1.6303,-1.6297,-1.7301,-1.8128,-1.8154,0.0,0.0,0.0,0.0,0.0,0.0,0.0,0.0,0.0,-3.2434,-3.2774,-3.4041,-3.402,-3.3917,-3.3917,-3.4439,-3.4662,-3.4526,-3.5302,-3.5958,-3.6362,-3.6375,-3.6389,-3.6445,-3.6445,-3.6405,-3.6405,-3.6405,-3.6405,-3.6405,-3.635,-3.5965,-3.5361,-3.5164,-3.4399,-3.3307,-3.3145,-3.2731,-3.2205,-3.2205,-3.2218,-3.2182,0.0,0.0,0.0,0.0,0.0,0.0,0.0,0.0,0.0,0.0,0.0,-0.9527,-1.0138,-1.0197,0.0,0.0,0.0,0.0,0.0,0.0,0.0,0.0,0.0,0.0,-1.1162,-1.1955,-1.2757,-1.35,-1.4354,-1.4744,-1.4706,-1.4677,-1.4648,-1.4608,-1.4603,-1.4587,-1.4578,-1.4578,-1.455,-1.4511,-1.4511,-1.4488,0.0,0.0,0.0,0.0,-1.4318,-1.4242,0.0,0.0,0.0,0.0,0.0,0.0,0.0,0.0,-1.5565,-1.636,-1.7176,0.0,-1.9587,-1.9547,-1.8988,-1.8419,0.0,-1.7722,-1.7135,0.0,0.0,0.0,0.0,0.0,0.0,0.0,0.0,0.0,0.0,0.0,0.0,0.0,0.0,0.0,-3.275,-3.272,-3.3118,-3.4461,-3.4244,-3.4059,-3.4059,-3.4094,-3.429,-3.474,-3.4932,-3.5393,-3.6161,-3.6175,-3.6311,-3.6642,-3.6642,-3.6563,-3.6405,-3.6405,-3.6405,-3.6363,-3.5841,-3.5551,-3.5344,-3.4382,-3.3794,-3.3477,-3.2996,-3.2626,-3.2359,-3.2359,-3.23,-3.2182,0.0,0.0,0.0,0.0,0.0,0.0,0.0,0.0,0.0,0.0,0.0,0.0,0.0,0.0,0.0,0.0,0.0,0.0,0.0,0.0,0.0,0.0,0.0,-1.0898,-1.1724,-1.2546,-1.3332,-1.4106,-1.4947,-1.5314,-1.5266,-1.5622,-1.5587,-1.518,-1.478,-1.4603,-1.4592,-1.46,-1.4584,-1.4537,-1.4515,0.0,0.0,0.0,0.0,0.0,-1.3769,-1.3726,0.0,-1.4044,-1.4096,-1.4026,0.0,0.0,0.0,0.0,-1.4719,-1.5316,-1.5656,-1.6958,-1.8273,-1.8518,-1.8202,-1.7809,-1.7711,0.0,0.0,0.0,0.0,0.0,0.0,0.0,0.0,0.0,0.0,0.0,0.0,0.0,0.0,0.0,0.0,0.0,0.0,-3.2926,-3.3375,-3.4681,-3.4549,-3.438,-3.438,-3.4225,-3.4246,-3.4473,-3.4487,-3.4946,-3.5906,-3.592,-3.5977,-3.6101,-3.642,-3.6469,-3.6275,-3.6275,-3.6275,-3.6248,-3.5582,-3.5151,-3.4794,-3.4053,-3.3573,-3.3282,-3.2878,-3.2632,-3.2525,-3.2417,-3.2359,-3.2264,0.0,0.0,0.0,0.0,0.0,0.0,0.0,0.0,0.0,0.0,0.0,0.0,0.0,0.0,0.0,0.0,0.0,0.0,0.0,0.0,0.0,0.0,-1.0844,-1.1577,-1.2376,-1.3192,-1.4049,-1.4982,-1.5662,-1.6028,-1.6118,-1.6798,-1.6669,-1.5871,-1.5125,-1.4725,-1.4614,-1.4616,-1.4605,-1.46,-1.4537,0.0,0.0,0.0,0.0,0.0,0.0,0.0,0.0,-1.3821,-1.4056,-1.4093,-1.4026,0.0,0.0,0.0,0.0,0.0,-1.4717,-1.56,-1.6595,-1.7135,-1.7325,-1.7365,-1.7232,0.0,0.0,0.0,0.0,0.0,0.0,0.0,0.0,0.0,0.0,0.0,0.0,0.0,0.0,0.0,0.0,0.0,-3.312,-3.3114,-3.3566,-3.4832,-3.4817,-3.4731,-3.4731,-3.4582,-3.438,-3.4196,-3.4196,-3.4612,-3.5489,-3.5532,-3.5508,-3.5461,-3.6023,-3.6203,-3.6052,-3.6052,-3.6052,-3.601,-3.5353,-3.4753,-3.4225,-3.3918,-3.3497,-3.3037,-3.2846,-3.2775,-3.2739,-3.2561,-3.2453,-3.2381,0.0,0.0,0.0,0.0,0.0,0.0,0.0,0.0,0.0,0.0,0.0,0.0,0.0,0.0,0.0,0.0,0.0,0.0,0.0,0.0,0.0,-1.1079,-1.1169,-1.1577,-1.2376,-1.3192,-1.4335,-1.5816,-1.5948,-1.6345,-1.6994,-1.7077,-1.6669,-1.5889,-1.5759,-1.5327,-1.4677,-1.4677,-1.4643,-1.4603,-1.4598,0.0,0.0,0.0,0.0,0.0,0.0,0.0,0.0,-1.3239,-1.3638,-1.4107,-1.4093,0.0,0.0,0.0,0.0,0.0,-1.522,-1.5673,-1.5967,-1.6502,-1.7007,-1.7377,-1.7306,0.0,0.0,0.0,0.0,0.0,0.0,0.0,0.0,0.0,0.0,0.0,0.0,0.0,0.0,0.0,0.0,-3.218,-3.3334,-3.3269,-3.371,-3.5044,-3.4968,-3.4868,-3.4868,-3.4835,-3.4769,-3.4597,-3.4597,-3.4617,-3.4602,-3.4837,-3.5189,-3.5644,-3.5744,-3.5787,-3.575,-3.575,-3.575,-3.5707,-3.4937,-3.4539,-3.4412,-3.3677,-3.3325,-3.3241,-3.3206,-3.3122,-3.2952,-3.2917,-3.2704,-3.2381,0.0,0.0,0.0,0.0,0.0,0.0,0.0,0.0,0.0,0.0,0.0,0.0,0.0,0.0,0.0,0.0,0.0,0.0,0.0,0.0,-1.0393,-1.1269,-1.1651,-1.2233,-1.3081,-1.3869,-1.4841,-1.6042,-1.6453,-1.7054,-1.7845,-1.7789,-1.7318,-1.6539,-1.6093,-1.5444,-1.4706,-1.4706,-1.4677,-1.4648,0.0,0.0,0.0,0.0,0.0,0.0,0.0,0.0,0.0,0.0,-1.3269,-1.357,-1.3978,0.0,0.0,0.0,0.0,0.0,-1.4925,-1.5452,-1.585,-1.6456,-1.706,-1.7584,-1.7877,0.0,0.0,0.0,0.0,0.0,0.0,0.0,0.0,0.0,0.0,0.0,0.0,0.0,0.0,0.0,0.0,-3.2355,-3.3502,-3.3531,-3.3992,-3.5255,-3.518,-3.5082,-3.5082,-3.4968,-3.4868,-3.4817,-3.4817,-3.4769,-3.4668,-3.4704,-3.4767,-3.4831,-3.5189,-3.5325,-3.5218,-3.5218,-3.5218,-3.5175,-3.4476,-3.4185,-3.4157,-3.3649,-3.3466,-3.3466,-3.3361,-3.3241,-3.3157,-3.2931,-3.2668,-3.2381,0.0,0.0,0.0,0.0,0.0,0.0,0.0,0.0,0.0,0.0,0.0,0.0,0.0,0.0,0.0,0.0,0.0,0.0,0.0,0.0,-1.0469,-1.1533,-1.2117,-1.2814,-1.3688,-1.4409,-1.5329,-1.6371,-1.6926,-1.7701,-1.8671,-1.8619,-1.8079,-1.7077,-1.6465,-1.5629,-1.4706,-1.4706,-1.4706,-1.4701,0.0,0.0,0.0,0.0,0.0,0.0,0.0,0.0,0.0,0.0,0.0,0.0,0.0,0.0,0.0,-1.3922,-1.3816,-1.3899,-1.4813,-1.537,-1.5914,-1.6764,-1.7429,-1.7966,-1.8398,0.0,0.0,0.0,0.0,0.0,0.0,0.0,0.0,0.0,0.0,0.0,0.0,0.0,-3.0547,-3.1214,-3.1734,-3.2513,-3.3653,-3.3774,-3.4286,-3.5514,-3.5442,-3.5311,-3.5311,-3.5133,-3.5001,-3.4968,-3.4968,-3.4935,-3.4902,-3.4817,-3.4582,-3.4244,-3.4715,-3.4856,-3.4702,-3.4702,-3.4702,-3.4687,-3.4166,-3.3951,-3.3917,-3.3744,-3.364,-3.357,-3.3431,-3.3361,-3.3241,-3.2881,-3.2632,-3.2453,0.0,0.0,0.0,0.0,0.0,0.0,0.0,0.0,0.0,0.0,0.0,0.0,0.0,0.0,0.0,0.0,0.0,0.0,0.0,0.0,-1.0714,-1.2348,-1.2404,-1.2814,-1.3688,-1.4409,-1.5587,-1.7205,-1.7201,-1.8,-1.9504,-1.9516,-1.8655,-1.7096,-1.704,-1.6149,-1.4706,-1.4706,-1.4706,-1.4706,-1.4683,0.0,0.0,0.0,0.0,0.0,0.0,0.0,0.0,0.0,0.0,0.0,0.0,0.0,-1.3984,-1.3931,-1.3811,-1.4012,-1.5426,-1.5763,-1.6043,-1.7452,-1.8227,0.0,-1.853,-1.9457,0.0,-2.1124,0.0,0.0,0.0,0.0,0.0,0.0,0.0,0.0,0.0,0.0,-3.0968,-3.1989,-3.2176,-3.2669,-3.3848,-3.3985,-3.4531,-3.5882,-3.5767,-3.5655,-3.5655,-3.5539,-3.5359,-3.518,-3.518,-3.5082,-3.4902,-3.4902,-3.4817,-3.4664,-3.4506,-3.4453,-3.4419,-3.4419,-3.4419,-3.4419,-3.4191,-3.4094,-3.4059,-3.3951,-3.3793,-3.3605,-3.357,-3.3466,-3.3276,-3.3072,-3.2846,-3.2668,0.0,0.0,0.0,0.0,0.0,0.0,0.0,0.0,0.0,0.0,0.0,0.0,0.0,0.0,0.0,0.0,0.0,0.0,0.0,-1.0032,-1.075,-1.243,-1.2435,-1.304,-1.4428,-1.4677,-1.5624,-1.7299,-1.8272,-1.905,-1.9609,-1.9609,-1.8711,-1.7096,-1.7096,-1.6205,-1.4706,-1.4706,-1.4706,-1.4706,-1.4706,-1.4386,0.0,0.0,0.0,0.0,0.0,0.0,0.0,0.0,-1.1701,-1.2388,-1.3196,-1.3716,-1.3991,-1.3977,-1.3851,-1.4028,-1.5549,-1.5827,-1.6172,-1.8143,-1.9051,0.0,0.0,-2.0312,-2.142,-2.2017,-2.3013,0.0,0.0,0.0,0.0,0.0,0.0,0.0,-3.0522,-3.0654,-3.1062,-3.2314,-3.2385,-3.2627,-3.3432,-3.3875,-3.447,-3.5321,-3.5699,-3.5894,-3.5894,-3.5718,-3.5589,-3.5509,-3.5409,-3.5359,-3.5261,-3.5148,-3.5049,-3.503,-3.4817,-3.4683,-3.4597,-3.4597,-3.4515,-3.4414,-3.4312,-3.4312,-3.4264,-3.4108,-3.3971,-3.3902,-3.3675,-3.3466,-3.329,-3.3072,-3.2952,-3.2846,0.0,0.0,0.0,0.0,0.0,0.0,0.0,0.0,0.0,0.0,0.0,0.0,0.0,0.0,0.0,0.0,0.0,0.0,-1.0096,-1.0049,-1.0741,-1.2426,-1.2447,-1.319,-1.4857,-1.4827,-1.5493,-1.6881,-1.8509,-1.9398,-1.9609,-1.9609,-1.8711,-1.7096,-1.7096,-1.6205,-1.4706,-1.4706,-1.4706,-1.4706,-1.4706,-1.4372,0.0,0.0,0.0,0.0,0.0,0.0,0.0,0.0,-1.1254,-1.1968,-1.2753,-1.3455,-1.4005,-1.3998,-1.3858,-1.4036,-1.5575,-1.5873,-1.627,0.0,0.0,0.0,-2.0398,-2.1311,-2.2303,-2.3129,-2.435,0.0,0.0,0.0,0.0,0.0,-2.8549,-2.9407,-3.0679,-3.0781,-3.1234,-3.2548,-3.2551,-3.2702,-3.331,-3.3729,-3.4284,-3.5095,-3.5521,-3.584,-3.6053,-3.5894,-3.5799,-3.5799,-3.5653,-3.5572,-3.5572,-3.5377,-3.5294,-3.5294,-3.5148,-3.4983,-3.475,-3.475,-3.465,-3.4481,-3.4481,-3.4448,-3.438,-3.423,-3.4162,-3.4059,-3.373,-3.3536,-3.3347,-3.3157,-3.3058,-3.2952,0.0,0.0,0.0,0.0,0.0,0.0,0.0,0.0,0.0,0.0,0.0,0.0,0.0,0.0,0.0,0.0,0.0,0.0,-1.0096,-1.0049,-1.0733,-1.2415,-1.2432,-1.3183,-1.4859,-1.4837,-1.5188,-1.6003,-1.7614,-1.8813,-1.959,-1.9609,-1.8711,-1.7114,-1.7096,-1.6205,-1.4706,-1.4706,-1.4706,-1.4706,-1.4706,-1.4706,-1.4516,0.0,0.0,0.0,0.0,0.0,0.0,0.0,-1.1279,-1.2023,-1.2764,-1.3444,-1.3991,-1.4005,-1.3858,-1.4036,-1.5575,-1.591,0.0,0.0,0.0,0.0,-2.1714,-2.2468,-2.3273,-2.4556,0.0,-2.674,-2.7465,0.0,0.0,-2.8319,-2.8763,-2.9556,-3.0835,-3.0999,-3.1465,-3.2768,-3.2703,-3.2884,-3.3622,-3.3527,-3.3983,-3.5383,-3.5293,-3.5492,-3.6165,-3.6053,-3.6005,-3.6005,-3.5831,-3.5688,-3.5688,-3.5572,-3.5504,-3.5504,-3.5504,-3.5294,-3.4902,-3.4902,-3.485,-3.4698,-3.4698,-3.4597,-3.4414,-3.4414,-3.4264,-3.4059,-3.373,-3.3605,-3.357,-3.3361,-3.3157,-3.2988,0.0,0.0,0.0,0.0,0.0,0.0,0.0,0.0,0.0,0.0,0.0,0.0,0.0,0.0,0.0,0.0,0.0,0.0,-1.0027,-1.0008,-1.0475,-1.1538,-1.2108,-1.29,-1.3961,-1.4527,-1.5186,-1.6004,-1.7602,-1.8496,-1.8692,-1.9305,-1.9008,-1.7931,-1.7356,-1.652,-1.5499,-1.4948,-1.4706,-1.4706,-1.4706,-1.4706,-1.4516,0.0,0.0,0.0,0.0,0.0,0.0,0.0,0.0,0.0,-1.1909,-1.2626,-1.3265,-1.3832,-1.3858,-1.4036,-1.5575,0.0,0.0,0.0,0.0,0.0,0.0,-2.3647,0.0,0.0,0.0,-2.7041,-2.8109,0.0,0.0,-2.8946,-2.9132,-2.9681,-3.0968,-3.1049,-3.1507,-3.2886,-3.2897,-3.2893,-3.3123,-3.342,-3.3769,-3.4187,-3.4967,-3.5492,-3.5707,-3.5982,-3.6148,-3.6148,-3.599,-3.5894,-3.5894,-3.5735,-3.5638,-3.5638,-3.5554,-3.5359,-3.5115,-3.5115,-3.5016,-3.485,-3.4731,-3.4664,-3.4597,-3.4448,-3.4264,-3.4094,-3.3882,-3.3709,-3.357,-3.3361,-3.3241,-3.3192,0.0,0.0,0.0,0.0,0.0,0.0,0.0,0.0,0.0,0.0,0.0,0.0,0.0,0.0,0.0,0.0,0.0,0.0,0.0,-0.9992,-1.0366,-1.1166,-1.1649,-1.2414,-1.3559,-1.4396,-1.5017,-1.5487,-1.6777,-1.7715,-1.8321,-1.884,-1.8803,-1.8265,-1.7467,-1.665,-1.5852,-1.5041,-1.4706,-1.4706,-1.4706,-1.4706,-1.4553,0.0,0.0,0.0,0.0,0.0,0.0,0.0,0.0,0.0,-1.1557,-1.2282,-1.2988,-1.3761,-1.3858,-1.4036,-1.5575,0.0,0.0,0.0,0.0,0.0,0.0,0.0,0.0,0.0,0.0,-2.7985,-2.8952,-2.9059,0.0,-2.94,-2.9396,-2.9821,-3.1116,-3.1223,-3.1653,-3.3019,-3.3058,-3.2978,-3.2978,-3.3201,-3.3504,-3.3768,-3.4417,-3.5025,-3.5535,-3.5799,-3.6029,-3.6305,-3.6148,-3.6085,-3.6085,-3.5894,-3.5831,-3.5831,-3.5668,-3.5539,-3.5394,-3.5344,-3.5213,-3.5016,-3.4798,-3.4698,-3.4664,-3.4481,-3.4346,-3.4196,-3.404,-3.3882,-3.3675,-3.3501,-3.3361,-3.3276,0.0,0.0,0.0,0.0,0.0,0.0,0.0,0.0,0.0,0.0,0.0,0.0,0.0,0.0,0.0,0.0,0.0,0.0,0.0,0.0,-1.033,-1.1055,-1.1161,-1.1959,-1.3563,-1.4378,-1.4764,-1.4702,-1.5503,-1.665,-1.8079,-1.8228,-1.8302,-1.8265,-1.7541,-1.6762,-1.5963,-1.5147,-1.4781,-1.4706,-1.4706,-1.4701,-1.4603,-1.3723,0.0,0.0,0.0,0.0,0.0,0.0,0.0,0.0,-1.1544,-1.224,-1.2937,-1.375,-1.3858,-1.4036,0.0,0.0,0.0,0.0,0.0,0.0,0.0,0.0,0.0,0.0,0.0,-2.9181,-2.981,-2.9792,-2.972,-2.9697,-2.9608,-2.9936,-3.1142,-3.1356,-3.1847,-3.3066,-3.3156,-3.3123,-3.3123,-3.3005,-3.3162,-3.3786,-3.3752,-3.4242,-3.5483,-3.5473,-3.5722,-3.6415,-3.6244,-3.6181,-3.6242,-3.6085,-3.6037,-3.6005,-3.5831,-3.572,-3.5688,-3.5554,-3.5392,-3.518,-3.4865,-3.4731,-3.4698,-3.4481,-3.4414,-3.438,-3.4162,-3.4005,-3.3896,-3.3675,-3.3466,-3.3276,0.0,0.0,0.0,0.0,0.0,0.0,0.0,0.0,0.0,0.0,0.0,0.0,0.0,0.0,0.0,0.0,0.0,0.0,0.0,0.0,-1.0051,-1.0178,-1.1374,-1.2516,-1.35,-1.4311,-1.4716,-1.4698,-1.5505,-1.6075,-1.6446,-1.7708,-1.8302,-1.8302,-1.8117,-1.7597,-1.6799,-1.5982,-1.5282,-1.4706,-1.4706,-1.4672,-1.4521,-1.3718,-1.2862,0.0,0.0,0.0,0.0,0.0,0.0,0.0,-1.1377,-1.1848,-1.2166,-1.3584,-1.3858,-1.4036,0.0,0.0,0.0,0.0,0.0,0.0,0.0,0.0,0.0,0.0,0.0,-2.9275,-2.9865,-2.9902,-2.983,-2.972,-2.9675,-2.9897,-3.0591,-3.1102,-3.1697,-3.2488,-3.2987,-3.3256,-3.3256,-3.3139,-3.3121,-3.3262,-3.3642,-3.3995,-3.4291,-3.4661,-3.5191,-3.5842,-3.5722,-3.5907,-3.6414,-3.6242,-3.6148,-3.6148,-3.6005,-3.5863,-3.5688,-3.5554,-3.5392,-3.518,-3.5115,-3.4931,-3.4698,-3.4664,-3.4549,-3.438,-3.4162,-3.4005,-3.3896,-3.3675,-3.3466,-3.3276,0.0,0.0,0.0,0.0,0.0,0.0,0.0,0.0,0.0,0.0,0.0,0.0,0.0,0.0,0.0,0.0,0.0,0.0,0.0,0.0,-0.9933,-0.9906,-1.1068,-1.2099,-1.2913,-1.37,-1.4319,-1.4706,-1.5115,-1.5518,-1.5926,-1.7151,-1.7931,-1.8302,-1.8302,-1.7857,-1.7059,-1.6242,-1.542,-1.4648,-1.4648,-1.4632,-1.4555,-1.4093,-1.3413,-1.2602,-1.2126,0.0,0.0,0.0,0.0,0.0,0.0,0.0,-1.1847,-1.3075,-1.3552,-1.4036,0.0,0.0,0.0,0.0,0.0,0.0,0.0,0.0,0.0,0.0,0.0,-2.9358,-2.9908,-2.9968,-2.9902,-2.9808,-2.9808,-2.9984,-3.0516,-3.1174,-3.1821,-3.2433,-3.3022,-3.3414,-3.3414,-3.3282,-3.3203,-3.3203,-3.3388,-3.3666,-3.3979,-3.4198,-3.4638,-3.5307,-3.5516,-3.5766,-3.6121,-3.6291,-3.6352,-3.6352,-3.6195,-3.5958,-3.5688,-3.5554,-3.5439,-3.5326,-3.5261,-3.5082,-3.4931,-3.4765,-3.4631,-3.4515,-3.4312,-3.4142,-3.3985,-3.3813,-3.3605,-3.3431,0.0,0.0,0.0,0.0,0.0,0.0,0.0,0.0,0.0,0.0,0.0,0.0,0.0,0.0,0.0,0.0,0.0,0.0,0.0,0.0,0.0,-0.9891,-1.065,-1.1468,-1.229,-1.3095,-1.3882,-1.4677,-1.4677,-1.5086,-1.5891,-1.6718,-1.7535,-1.8314,-1.8444,-1.8048,-1.7244,-1.6428,-1.5583,-1.4801,-1.4659,-1.4587,-1.4578,-1.4521,-1.3994,-1.329,-1.3227,-1.225,-1.1013,-1.0985,0.0,0.0,0.0,0.0,-1.1977,-1.2767,-1.3334,-1.4019,0.0,0.0,0.0,0.0,0.0,0.0,0.0,0.0,0.0,0.0,-2.8791,-2.9473,-2.9972,-3.0038,-2.9973,-2.9924,-2.9902,-3.0047,-3.0509,-3.1155,-3.1815,-3.2407,-3.2985,-3.3386,-3.3513,-3.3398,-3.3319,-3.3319,-3.3203,-3.3374,-3.3928,-3.3822,-3.4079,-3.4735,-3.5167,-3.5436,-3.553,-3.6091,-3.6353,-3.6322,-3.6259,-3.6038,-3.5784,-3.5604,-3.5537,-3.5504,-3.5326,-3.5213,-3.5195,-3.4865,-3.4731,-3.4664,-3.4481,-3.4264,-3.4094,-3.3951,-3.3793,-3.357,0.0,0.0,0.0,0.0,0.0,0.0,0.0,0.0,0.0,0.0,0.0,0.0,0.0,0.0,0.0,0.0,0.0,0.0,-0.992,0.0,0.0,-0.9812,-1.0588,-1.1415,-1.2285,-1.3091,-1.3866,-1.4614,-1.4614,-1.5023,0.0,0.0,-1.7529,-1.8331,-1.9036,-1.886,-1.8005,-1.7193,-1.6374,-1.5575,-1.4872,-1.4573,-1.4515,-1.4509,-1.3961,-1.3221,-1.3211,-1.26,-1.1835,-1.1766,-1.1633,0.0,0.0,0.0,-1.2803,-1.3595,-1.377,0.0,0.0,0.0,0.0,0.0,0.0,0.0,0.0,0.0,0.0,0.0,-2.8467,-2.9515,-3.0222,-3.0146,-2.9995,-2.9995,-2.9946,-2.9929,-3.0004,-3.0483,-3.1115,-3.1823,-3.2391,-3.2971,-3.362,-3.3555,-3.3477,-3.3477,-3.3361,-3.3314,-3.3409,-3.3291,-3.3497,-3.4187,-3.4173,-3.4359,-3.4818,-3.547,-3.575,-3.566,-3.6029,-3.6179,-3.6133,-3.5816,-3.5621,-3.5504,-3.5472,-3.5359,-3.518,-3.4968,-3.4817,-3.4664,-3.4481,-3.4264,-3.4094,-3.3951,-3.3793,-3.357,0.0,0.0,0.0,0.0,0.0,0.0,0.0,0.0,0.0,0.0,0.0,0.0,0.0,0.0,0.0,-0.9938,-0.9912,-0.9888,-0.9847,-0.9838,-0.9837,-0.9808,-1.0131,-1.0933,-1.2214,-1.2581,-1.3363,-1.4592,-1.4592,0.0,0.0,-1.6639,-1.7477,0.0,0.0,-1.9017,-1.8183,-1.7826,-1.721,-1.6405,-1.56,-1.5226,-1.5117,-1.4677,-1.425,-1.3929,-1.3888,-1.3355,-1.2661,-1.2587,-1.2223,-1.186,-1.2168,0.0,0.0,0.0,0.0,0.0,0.0,0.0,0.0,0.0,0.0,0.0,0.0,0.0,0.0,-2.6578,-2.7531,-2.851,-2.9589,-3.0032,-3.0167,-3.0017,-2.9989,-2.9946,-2.9918,-3.0445,-3.0926,-3.1248,-3.1814,-3.2433,-3.3139,-3.3077,-3.3176,-3.3575,-3.3477,-3.3398,-3.3398,-3.3266,-3.3345,-3.3644,-3.3873,-3.4135,-3.4347,-3.4889,-3.5084,-3.4951,-3.5154,-3.5186,-3.508,-3.4927,-3.512,-3.5621,-3.5522,-3.5439,-3.5359,-3.5148,-3.4983,-3.4817,-3.4616,-3.4448,-3.4244,-3.4074,-3.3917,-3.3744,0.0,0.0,0.0,0.0,0.0,0.0,0.0,0.0,0.0,0.0,0.0,0.0,0.0,0.0,0.0,0.0,-1.0517,-1.0393,-1.0117,-0.991,-0.9803,-0.98,-0.9787,-1.0546,-1.2156,-1.2197,-1.2977,-1.4578,0.0,0.0,-1.5796,-1.6607,-1.7393,0.0,-1.9092,-1.9092,0.0,0.0,0.0,0.0,-1.6403,-1.6054,-1.5936,-1.5349,-1.5087,-1.5044,-1.5005,-1.4464,-1.3757,-1.3708,-1.3125,-1.2394,-1.2311,-1.2664,0.0,0.0,0.0,0.0,0.0,0.0,0.0,0.0,0.0,0.0,0.0,0.0,0.0,0.0,-2.6575,-2.7415,-2.859,-2.9523,-3.0053,-2.9842,-2.9924,-2.9973,-2.9924,-3.0334,-3.071,-3.0888,-3.1297,-3.1846,-3.2523,-3.2481,-3.2615,-3.3185,-3.3249,-3.3258,-3.3232,-3.3303,-3.3335,-3.3309,-3.3707,-3.3893,-3.3854,-3.4231,-3.4494,-3.4548,-3.4505,-3.4431,-3.4268,-3.4223,-3.4592,-3.5253,-3.5093,-3.5013,-3.5011,-3.4966,-3.483,-3.4666,-3.4691,-3.4597,-3.4366,-3.4008,-3.3762,-3.3591,0.0,0.0,0.0,0.0,0.0,0.0,0.0,0.0,0.0,0.0,0.0,0.0,-1.1137,-1.1767,-1.2188,-1.2188,-1.2175,-1.1826,-1.0982,-1.0224,-0.9797,-0.9795,-0.9732,0.0,-1.2151,-1.2207,-1.2963,-1.4509,0.0,0.0,-1.5723,-1.653,-1.7337,-1.8133,-1.9015,-1.9346,-1.9194,0.0,0.0,0.0,0.0,0.0,-1.6838,-1.6783,-1.6698,-1.6591,-1.6584,0.0,0.0,0.0,0.0,0.0,0.0,0.0,0.0,0.0,0.0,0.0,0.0,0.0,0.0,0.0,0.0,0.0,0.0,0.0,0.0,-2.5079,-2.588,-2.6575,-2.7265,-2.8458,-2.935,-2.9329,-2.9721,-2.9995,-2.9995,-2.9978,-3.0204,-3.0823,-3.0937,-3.1244,-3.1972,-3.1918,-3.1863,-3.1911,-3.2359,-3.2586,-3.2476,-3.3111,-3.3424,-3.3293,-3.334,-3.3277,-3.3159,-3.3559,-3.4071,-3.4694,-3.4548,-3.4505,-3.4475,-3.4297,-3.4165,-3.4091,-3.3895,-3.3727,-3.3649,-3.4059,-3.4167,-3.408,-3.4515,-3.4597,-3.4308,-3.3518,-3.3135,-3.2835,0.0,0.0,0.0,0.0,0.0,0.0,0.0,0.0,0.0,0.0,0.0,0.0,0.0,-1.214,-1.2308,-1.2302,-1.2261,-1.2097,-1.1797,-1.1457,-1.1273,-1.1288,-1.1252,-1.1751,-1.2883,-1.2901,-1.3424,0.0,0.0,-1.4647,-1.4952,-1.5708,-1.6493,-1.734,-1.8713,-1.9323,-1.9279,-1.8991,0.0,0.0,0.0,0.0,0.0,0.0,0.0,0.0,0.0,0.0,0.0,0.0,0.0,0.0,0.0,0.0,0.0,0.0,0.0,0.0,0.0,0.0,0.0,0.0,0.0,0.0,0.0,0.0,-2.2792,-2.3706,-2.4796,-2.5661,-2.5857,-2.7443,-2.8841,-2.9239,-2.9436,-2.966,-2.9968,-2.9973,-3.0043,-3.0237,-3.0247,-3.0522,-3.1228,-3.1246,-3.1417,-3.1892,-3.2023,-3.2071,-3.2022,-3.2504,-3.2768,-3.2716,-3.3098,-3.3229,-3.3096,-3.3158,-3.3227,-3.3349,-3.3236,-3.3165,-3.3136,-3.308,-3.2966,-3.2839,-3.2695,-3.2945,-3.3514,-3.3677,-3.3642,-3.3484,-3.3576,-3.3472,-3.3267,-3.2901,-3.2554,-3.2282,0.0,0.0,0.0,0.0,0.0,0.0,0.0,0.0,0.0,-1.2462,0.0,0.0,0.0,0.0,-1.3093,-1.3067,-1.2775,-1.2599,-1.26,-1.2294,-1.2091,-1.2091,-1.2091,-1.2472,-1.3259,-1.3277,-1.3651,0.0,0.0,0.0,0.0,-1.5232,-1.5893,-1.6477,-1.813,-1.9013,0.0,0.0,0.0,-1.924,0.0,0.0,-1.8739,0.0,0.0,0.0,0.0,0.0,0.0,0.0,0.0,0.0,0.0,0.0,0.0,0.0,0.0,0.0,0.0,0.0,0.0,0.0,0.0,0.0,0.0,0.0,-2.1978,-2.2631,-2.3693,-2.463,-2.5062,-2.6321,-2.7592,-2.8474,-2.8814,-2.9145,-2.9683,-2.9739,-2.9756,-2.9913,-2.9924,-3.0097,-3.0522,-3.0571,-3.0765,-3.1251,-3.1417,-3.1475,-3.1428,-3.1918,-3.2265,-3.2412,-3.2982,-3.3256,-3.3176,-3.3032,-3.2897,-3.2703,-3.2551,-3.2425,-3.2398,-3.2398,-3.2315,-3.2191,-3.2066,-3.2353,-3.2946,-3.3111,-3.3034,-3.285,-3.2978,-3.2878,-3.2645,-3.2297,-3.1988,-3.1736,0.0,0.0,0.0,0.0,0.0,0.0,0.0,0.0,-1.2579,-1.2523,0.0,0.0,0.0,0.0,0.0,-1.4669,-1.3942,-1.3469,-1.3468,-1.264,-1.2165,-1.2165,-1.216,-1.2515,-1.3223,-1.3242,-1.362,-1.4399,-1.4393,-1.4393,-1.4411,0.0,-1.5565,-1.5675,-1.7249,-1.8409,-1.9166,0.0,-1.9211,-1.9265,0.0,-2.0361,-2.0389,0.0,0.0,0.0,-2.1428,-2.0858,0.0,-1.9228,0.0,0.0,0.0,0.0,0.0,0.0,0.0,0.0,0.0,0.0,0.0,0.0,0.0,0.0,0.0,0.0,-2.1316,-2.193,-2.2597,-2.3491,-2.488,-2.5112,-2.5541,-2.7,-2.7767,-2.8428,-2.9152,-2.9153,-2.9295,-2.9903,-2.9962,-2.9957,-2.9902,-2.9896,-2.9896,-2.9896,-3.0506,-3.0803,-3.0665,-3.138,-3.1951,-3.2364,-3.295,-3.3277,-3.3277,-3.3176,-3.3032,-3.2897,-3.2703,-3.2523,-3.2398,-3.2398,-3.2315,-3.2191,-3.2066,-3.1927,-3.1845,-3.2287,-3.2363,-3.2227,-3.2725,-3.2819,-3.2574,-3.1791,-3.1387,-3.1159,0.0,0.0,0.0,0.0,0.0,0.0,-1.4147,-1.4725,-1.5094,0.0,0.0,0.0,-1.6201,-1.6345,-1.6434,-1.6416,-1.5629,-1.5133,-1.5145,-1.432,-1.3844,-1.3844,-1.384,-1.3933,-1.4142,-1.4082,-1.418,-1.4399,-1.4399,-1.4405,-1.4399,-1.458,-1.496,0.0,-1.6606,-1.7503,-1.8302,-1.8871,0.0,-1.9206,-2.0,-2.0327,0.0,0.0,0.0,0.0,0.0,-2.1149,-2.0867,0.0,-1.9974,-1.8998,0.0,0.0,0.0,0.0,0.0,0.0,-1.527,0.0,0.0,0.0,0.0,0.0,0.0,0.0,0.0,-2.1069,-2.1885,-2.2633,-2.3463,-2.4031,-2.4663,-2.5575,-2.6732,-2.7769,-2.8415,-2.8474,-2.8661,-2.9279,-2.9256,-2.9404,-2.9924,-2.9924,-2.9896,-2.9896,-3.0075,-3.0166,-3.0121,-3.0601,-3.1102,-3.1674,-3.2263,-3.2576,-3.2576,-3.2924,-3.3032,-3.2897,-3.2703,-3.2523,-3.2398,-3.2398,-3.237,-3.2342,-3.2094,-3.1968,-3.1927,-3.1821,-3.1735,-3.1707,-3.1634,-3.1573,-3.1499,-3.1023,-3.0738,-3.054,0.0,0.0,0.0,0.0,0.0,0.0,-1.532,-1.6072,-1.6592,0.0,0.0,0.0,-1.7169,-1.7108,-1.7052,-1.7058,-1.6595,-1.6287,-1.6268,-1.5778,-1.5356,-1.5013,-1.4965,-1.4794,-1.4472,-1.4411,-1.4399,-1.4368,-1.4356,-1.4361,-1.4361,-1.4324,-1.4553,-1.5035,0.0,0.0,0.0,0.0,0.0,0.0,-2.0472,0.0,0.0,-2.2437,-2.2849,0.0,0.0,0.0,-2.3055,-2.2339,-2.132,0.0,0.0,0.0,0.0,0.0,0.0,0.0,0.0,0.0,0.0,0.0,0.0,0.0,-1.8352,-1.8674,-1.9135,-1.9947,-2.0935,-2.1838,-2.2475,-2.3163,-2.3865,-2.4514,-2.5359,-2.6367,-2.7651,-2.7814,-2.8039,-2.8664,-2.8665,-2.8747,-2.9135,-2.9095,-2.9183,-2.9453,-2.9464,-2.9572,-2.988,-3.0319,-3.0718,-3.1015,-3.1593,-3.2041,-3.2291,-3.2599,-3.284,-3.2978,-3.28,-3.2648,-3.248,-3.2425,-3.2398,-3.2398,-3.2122,-3.1996,-3.1968,-3.1655,-3.1511,-3.1467,-3.119,-3.1117,-3.1043,-3.0732,-3.0538,-3.0417,0.0,0.0,0.0,0.0,-1.5625,-1.6139,-1.6225,-1.6913,-1.7435,0.0,-1.7627,-1.7702,-1.7639,-1.7569,-1.7536,-1.7534,-1.7435,-1.7341,-1.7183,-1.7082,-1.6673,-1.5856,-1.5756,-1.5345,-1.455,-1.4525,-1.4452,-1.43,-1.43,-1.43,-1.43,-1.43,-1.43,-1.4336,0.0,0.0,0.0,0.0,0.0,-2.0463,-2.1196,-2.199,0.0,0.0,-2.4894,-2.4998,-2.5667,-2.5893,-2.5666,-2.4159,-2.2551,0.0,0.0,0.0,0.0,0.0,-1.6397,0.0,0.0,0.0,0.0,0.0,0.0,0.0,-1.78,-1.8318,-1.8792,-1.8877,-1.9909,-2.0992,-2.1747,-2.236,-2.3016,-2.3768,-2.3868,-2.4613,-2.6752,-2.705,-2.7311,-2.8023,-2.8102,-2.806,-2.803,-2.7943,-2.816,-2.8758,-2.8804,-2.9086,-2.9734,-3.029,-3.0523,-3.0391,-3.0959,-3.1545,-3.2054,-3.2212,-3.253,-3.2986,-3.292,-3.2773,-3.2594,-3.2453,-3.2398,-3.2398,-3.215,-3.2025,-3.1968,-3.1655,-3.1511,-3.1467,-3.119,-3.1117,-3.1043,-3.0732,-3.0598,-3.0568,-1.4642,0.0,0.0,0.0,-1.5997,-1.6324,-1.6977,-1.7693,-1.8404,-1.9044,-2.0221,-2.097,-2.096,-2.0892,-2.0849,-2.0868,-2.0221,-1.9531,-1.8877,-1.8221,-1.7486,-1.6611,-1.6522,-1.6126,-1.5387,-1.5304,-1.4951,-1.43,-1.43,-1.43,-1.43,-1.43,-1.43,-1.4354,0.0,0.0,0.0,0.0,0.0,-2.111,-2.1319,0.0,-2.3588,-2.4477,-2.5177,-2.5703,-2.5784,-2.5813,-2.5752,-2.5329,-2.4095,-2.2682,0.0,0.0,0.0,-1.9787,0.0,0.0,0.0,0.0,0.0,0.0,0.0,0.0,-1.78,-1.7901,-1.8172,-1.8775,-1.9118,-1.9689,-2.0958,-2.1259,-2.1709,-2.2983,-2.3153,-2.3669,-2.5292,-2.5524,-2.6021,-2.7311,-2.7366,-2.7539,-2.8112,-2.8046,-2.8012,-2.8074,-2.8528,-2.8876,-2.9021,-2.957,-2.9823,-2.9687,-3.0274,-3.0609,-3.0615,-3.1722,-3.2262,-3.2233,-3.267,-3.2773,-3.2594,-3.2453,-3.2398,-3.2398,-3.2247,-3.2094,-3.1996,-3.1813,-3.167,-3.1467,-3.119,-3.1117,-3.1043,-3.0732,-3.0598,-3.0568,-1.4891,0.0,0.0,0.0,0.0,0.0,-1.7787,-1.8839,-1.9731,-2.011,-2.1147,-2.1996,-2.2405,-2.2426,-2.2408,-2.2408,-2.197,-2.1367,-2.0553,-2.0056,-1.9231,-1.7995,-1.7902,-1.7343,-1.6177,-1.5726,-1.5307,-1.4891,-1.4499,-1.43,-1.43,-1.43,-1.4293,-1.4353,-1.5535,0.0,0.0,0.0,-1.9839,-2.1265,-2.1324,0.0,-2.434,-2.5076,-2.5821,-2.6499,-2.6853,-2.6694,-2.6277,-2.6171,-2.5315,0.0,-2.3801,-2.2768,-2.1666,0.0,-2.0529,-1.9843,0.0,0.0,0.0,-1.8643,0.0,0.0,0.0,-1.78,-1.7901,-1.8285,-1.864,-1.9118,-1.9774,-2.0176,-2.0595,-2.1247,-2.1639,-2.2225,-2.3288,-2.41,-2.4829,-2.5575,-2.5588,-2.5833,-2.6576,-2.6517,-2.6697,-2.7293,-2.7912,-2.8255,-2.8255,-2.8893,-2.915,-2.8958,-2.961,-3.0036,-3.0204,-3.09,-3.1372,-3.1602,-3.2102,-3.2298,-3.2217,-3.2326,-3.2398,-3.2398,-3.2274,-3.2107,-3.1996,-3.1841,-3.167,-3.1467,-3.1278,-3.1161,-3.1087,-3.0791,-3.0672,-3.0598,-1.5137,0.0,0.0,0.0,0.0,0.0,-1.8801,-1.9941,-2.0927,-2.1316,-2.2043,-2.2811,-2.3612,-2.3676,-2.3666,-2.3666,-2.36,-2.3224,-2.242,-2.2099,-2.1307,-1.9854,-1.9638,-1.8805,-1.7201,-1.6534,-1.6038,-1.573,-1.4933,-1.4535,-1.4535,-1.4366,-1.4371,-1.455,-1.5295,0.0,0.0,0.0,0.0,-2.1212,0.0,-2.3038,-2.507,-2.5839,-2.666,-2.7567,-2.8342,-2.812,-2.7427,-2.7211,-2.656,-2.5704,-2.4904,-2.4047,0.0,0.0,0.0,0.0,0.0,0.0,0.0,0.0,0.0,-1.8951,0.0,0.0,0.0,-1.7834,-1.8268,0.0,0.0,0.0,0.0,-1.9723,0.0,0.0,0.0,-2.241,0.0,-2.3934,-2.4,-2.4232,-2.4829,-2.4759,-2.5181,-2.6338,-2.6974,-2.7365,-2.751,-2.819,-2.8543,-2.8436,-2.899,-2.9533,-3.0022,-3.0141,-3.0464,-3.0993,-3.1434,-3.167,-3.181,-3.2087,-3.2275,-3.2398,-3.2302,-3.215,-3.1996,-3.187,-3.1683,-3.1511,-3.1351,-3.1205,-3.1087,-3.0866,-3.0732,-3.0598,-1.6017,-1.5943,0.0,0.0,0.0,0.0,0.0,-2.0637,-2.1464,-2.352,-2.4551,-2.536,-2.6109,-2.6148,-2.6098,-2.6098,-2.6034,-2.5641,-2.4772,-2.4034,-2.3222,-2.2328,-2.1604,-2.0463,-1.886,-1.8751,-1.799,-1.6566,-1.5748,-1.5361,-1.5343,-1.4636,-1.4659,0.0,-1.6102,0.0,0.0,0.0,-2.0354,0.0,-2.266,-2.4242,0.0,-2.6563,-2.7812,-2.9212,-2.9891,-3.0001,-2.9702,-2.8984,-2.8164,-2.73,0.0,-2.5635,-2.4903,-2.4753,0.0,0.0,0.0,0.0,0.0,0.0,-2.0057,-1.9826,-1.8968,0.0,-1.8589,-1.7918,0.0,-1.8121,0.0,0.0,0.0,0.0,0.0,0.0,-1.9924,-2.0036,-2.1071,-2.3686,-2.4,-2.4033,-2.4116,-2.4001,-2.423,-2.4962,-2.5589,-2.6194,-2.6782,-2.7462,-2.8063,-2.8544,-2.8538,-2.8812,-2.9393,-2.9935,-3.0251,-3.033,-3.0714,-3.1228,-3.1794,-3.1592,-3.1828,-3.2398,-3.2398,-3.2247,-3.1996,-3.1996,-3.1798,-3.1511,-3.1351,-3.1205,-3.1087,-3.0866,-3.0732,-3.0598,-1.6756,-1.7073,0.0,0.0,0.0,0.0,0.0,-2.1873,-2.3261,-2.4763,-2.605,-2.7119,-2.7848,0.0,0.0,0.0,0.0,-2.787,0.0,0.0,-2.5357,-2.4085,-2.327,-2.2328,-2.1206,-1.9811,-1.8769,-1.8081,-1.6813,-1.6175,-1.6128,-1.5789,-1.5778,0.0,-1.6868,0.0,-1.8431,0.0,-2.1093,0.0,0.0,-2.5217,0.0,-2.6693,-2.795,-2.9375,-3.0097,-3.0289,-3.0129,-2.9783,-2.9068,-2.832,-2.7901,0.0,0.0,-2.5717,0.0,0.0,0.0,0.0,0.0,0.0,-2.1178,-2.062,-1.9735,-1.9541,-1.9456,-1.9152,0.0,0.0,0.0,0.0,0.0,0.0,-1.8901,-1.911,0.0,0.0,-2.0061,-2.1303,-2.1831,-2.241,-2.3272,-2.3638,-2.3918,-2.4196,-2.437,-2.4769,-2.5445,-2.6121,-2.6755,-2.7364,-2.8041,-2.8477,-2.8662,-2.9262,-2.9564,-2.958,-3.0024,-3.0386,-3.0657,-3.1175,-3.1563,-3.1828,-3.2213,-3.2247,-3.1996,-3.1996,-3.1798,-3.1511,-3.1438,-3.1307,-3.1087,-3.1014,-3.0821,-3.0598,-1.782,0.0,0.0,0.0,0.0,0.0,0.0,-2.3299,-2.4991,-2.6258,-2.742,0.0,-2.9424,-3.0032,0.0,0.0,-3.0239,-2.9709,0.0,0.0,-2.7453,-2.6059,-2.5226,0.0,-2.3053,-2.1296,-2.0074,-1.944,-1.8011,-1.7191,-1.6918,-1.6679,-1.6651,-1.6847,0.0,-1.8208,-1.9225,0.0,-2.1697,-2.2803,-2.4944,-2.6211,-2.6871,-2.7656,-2.8745,-2.994,-3.0674,-3.0879,-3.0766,-3.0491,-3.0018,-2.946,-2.9109,-2.8103,-2.6994,0.0,0.0,0.0,-2.5298,-2.4686,-2.3841,-2.3017,-2.2351,-2.1653,-2.0564,-2.0318,-2.0268,-2.0052,-1.9575,0.0,0.0,0.0,-1.802,-1.7772,0.0,-1.8404,-1.8338,-1.8734,0.0,-1.9551,-2.0061,-2.082,-2.1897,-2.258,-2.3028,-2.321,-2.3293,-2.3617,-2.4281,-2.494,-2.5594,-2.6228,-2.7277,-2.795,-2.8246,-2.8629,-2.8909,-2.9114,-2.939,-2.9612,-2.9831,-3.0541,-3.1043,-3.1439,-3.1905,-3.2078,-3.1996,-3.1996,-3.1798,-3.1511,-3.1511,-3.1366,-3.1161,-3.1102,-3.0925,-3.0642,-1.9435,-1.8823,0.0,0.0,0.0,0.0,0.0,0.0,0.0,0.0,0.0,0.0,0.0,0.0,0.0,0.0,0.0,-3.0944,-3.0889,0.0,-2.9355,0.0,0.0,-2.6204,0.0,-2.3715,-2.2528,-2.0264,-1.9361,-1.8523,-1.7748,-1.6904,-1.6926,-1.7661,-1.7627,-1.8476,-2.0002,-2.0787,-2.2007,-2.3594,-2.5176,-2.721,-2.9369,-3.0118,-3.0815,-3.1526,-3.2252,-3.2436,-3.2213,-3.1423,-3.1142,-3.0968,-3.0052,-2.9236,-2.8578,-2.8383,-2.7247,-2.6059,-2.6059,-2.5508,-2.4721,-2.379,-2.3557,-2.3105,-2.1522,-2.1156,-2.0936,-2.0166,-1.9985,-1.9761,-1.9029,-1.8877,-1.8623,-1.7918,-1.7766,0.0,0.0,-1.7581,0.0,-1.9449,-1.9617,-1.965,-1.97,-2.0373,-2.1073,-2.1713,-2.2293,-2.2916,-2.36,-2.4196,-2.4871,-2.5613,-2.611,-2.7034,-2.8377,-2.8205,-2.8474,-2.9098,-2.8928,-2.9184,-2.9799,-2.9558,-3.0181,-3.1409,-3.1439,-3.1649,-3.1996,-3.1996,-3.1798,-3.1511,-3.1511,-3.1409,-3.1292,-3.1132,-3.0984,-3.0791,0.0,0.0,0.0,0.0,0.0,0.0,0.0,-2.6512,0.0,0.0,-3.0682,0.0,0.0,-3.3655,-3.4247,0.0,0.0,-3.3954,-3.3429,-3.2632,0.0,0.0,0.0,-2.7821,0.0,-2.49,-2.3405,-2.2614,-2.1238,-2.0128,-1.9237,-1.8941,-1.8682,-1.8449,0.0,-1.9752,0.0,0.0,0.0,0.0,0.0,-2.8481,-3.0157,-3.0347,-3.0894,-3.1581,-3.2292,-3.2473,-3.2353,-3.209,-3.1633,-3.1125,-3.0679,-3.0019,-2.9395,-2.9195,-2.842,-2.7627,-2.7627,-2.6713,-2.5633,-2.5208,-2.4718,-2.4025,-2.2912,-2.2663,-2.2446,-2.1671,-2.1126,-2.072,-2.0463,-1.9599,-1.8826,-1.8572,-1.8053,-1.7687,0.0,-1.7566,-1.7671,-1.8137,0.0,0.0,0.0,-1.9829,-2.0064,-2.0287,-2.0905,-2.1553,-2.2181,-2.329,-2.4197,-2.4839,-2.5902,-2.6844,-2.7742,-2.8017,-2.8471,-2.9098,-2.8936,-2.8959,-2.9169,-2.9394,-2.9965,-3.0766,-3.1197,-3.1673,-3.2122,-3.2053,-3.1883,-3.1698,-3.1539,-3.1467,-3.1409,-3.119,-3.0984,-3.0791,-2.1809,0.0,0.0,0.0,0.0,0.0,0.0,0.0,0.0,0.0,-3.2288,0.0,-3.4247,0.0,-3.5849,0.0,-3.5804,-3.5569,-3.5062,-3.4537,0.0,-3.2669,-3.1148,-2.9776,0.0,0.0,-2.495,-2.3804,-2.2744,-2.1592,-2.0427,-2.0131,-1.9852,-1.9635,0.0,-2.0573,-2.1572,0.0,-2.3642,0.0,0.0,-2.9358,0.0,-3.0698,-3.1239,-3.1935,-3.2347,-3.2474,-3.2406,-3.2406,-3.2055,-3.1599,-3.1394,-3.0802,-3.016,-2.9972,-2.9386,-2.873,-2.8472,-2.7678,-2.6752,-2.6062,-2.5519,-2.4893,-2.3996,-2.3797,-2.3579,-2.2852,-2.231,-2.1817,-2.1292,-2.0395,-1.9621,-1.9333,-1.8638,-1.8013,0.0,-1.7566,-1.7489,-1.7498,0.0,0.0,0.0,0.0,-1.9204,-1.9204,-1.9827,-2.0482,-2.1114,-2.2214,-2.324,-2.4112,-2.5183,-2.6274,-2.739,-2.771,-2.8262,-2.9098,-2.8967,-2.8865,-2.881,-2.9111,-2.9537,-3.0079,-3.0751,-3.1347,-3.1855,-3.1946,-3.1912,-3.1784,-3.1568,-3.1511,-3.1467,-3.1249,-3.1014,-3.0791,-2.2033,0.0,0.0,0.0,-2.4498,0.0,0.0,0.0,-3.0121,0.0,-3.3586,-3.4247,-3.5747,-3.5949,-3.5985,-3.6021,-3.6021,-3.6021,-3.6021,-3.5949,0.0,0.0,-3.3484,-3.1966,-2.8907,0.0,0.0,-2.4028,-2.3847,-2.2909,-2.1302,-2.0485,0.0,0.0,-2.0412,0.0,-2.2368,-2.3202,-2.4468,-2.6139,-2.8513,-2.9864,-3.0538,-3.1259,-3.1986,-3.2589,-3.2523,-3.2439,-3.2406,-3.2406,-3.2406,-3.2354,-3.2144,-3.1586,-3.0942,-3.0802,-3.0179,-2.942,-2.8696,-2.8472,-2.806,-2.6437,-2.6014,-2.5762,-2.4774,-2.4558,-2.4355,-2.3611,-2.3444,-2.3004,-2.1563,-2.1275,-2.0987,-2.02,-1.9418,-1.861,-1.7774,-1.7576,-1.7489,-1.7498,0.0,0.0,0.0,0.0,0.0,0.0,-1.9072,0.0,0.0,-2.1072,-2.2053,-2.3464,-2.4086,-2.5359,-2.7342,-2.7253,-2.7825,-2.9051,-2.8951,-2.8865,-2.8794,-2.866,-2.8912,-2.9458,-3.0094,-3.0718,-3.1243,-3.1792,-3.194,-3.1799,-3.1597,-3.1511,-3.1467,-3.1351,-3.1087,-3.0791,-2.5364,-2.5664,-2.6197,0.0,-2.767,-2.8152,0.0,0.0,0.0,0.0,-3.4981,-3.6485,-3.7468,-3.8119,-3.8699,-3.9243,-3.9279,0.0,0.0,0.0,0.0,-3.6995,-3.4679,-3.2984,-3.2098,-2.9746,-2.8057,-2.7133,-2.538,-2.3972,-2.2892,0.0,0.0,0.0,0.0,0.0,-2.2386,-2.3802,-2.5627,-2.775,-2.9497,-3.0647,-3.1371,-3.2054,-3.2397,-3.2506,-3.2457,-3.2405,-3.2406,-3.2406,-3.2406,-3.2354,-3.2144,-3.1951,-3.1759,-3.1579,-3.0972,-3.0351,-3.0162,-2.9661,-2.8955,-2.7943,-2.762,-2.7162,-2.5721,-2.5353,-2.5101,-2.4372,-2.422,-2.3932,-2.3018,-2.2395,-2.1769,-2.1008,-1.9756,-1.8802,-1.8521,0.0,0.0,-1.7517,0.0,0.0,0.0,0.0,0.0,0.0,-1.8377,-1.9052,-1.9712,-2.0837,-2.2116,-2.3534,-2.416,-2.5145,-2.6566,-2.7093,-2.7689,-2.8363,-2.8823,-2.8982,-2.8873,-2.8803,-2.9033,-2.9593,-3.0145,-3.0771,-3.139,-3.1916,-3.2066,-3.194,-3.1784,-3.1626,-3.1467,-3.1351,-3.1087,-3.0791,-2.7083,0.0,0.0,-2.9598,0.0,0.0,-3.0807,-3.2305,0.0,-3.4839,-3.6469,0.0,-3.8644,-3.9423,-4.0057,-4.0456,-4.0492,0.0,-4.0492,0.0,0.0,-3.8227,-3.6403,-3.4746,-3.3328,-3.1463,0.0,-2.83,0.0,0.0,-2.4005,0.0,0.0,0.0,0.0,-2.251,-2.2928,-2.4516,-2.6537,-2.882,-3.0015,-3.0917,0.0,-3.2321,-3.254,-3.2457,-3.2405,-3.2406,-3.2406,-3.2406,-3.2406,-3.2354,-3.2144,-3.209,-3.2055,-3.1873,-3.1507,-3.1093,-3.0782,-3.0368,-2.9817,-2.899,-2.8442,-2.7862,-2.6926,-2.6385,-2.5879,-2.5118,-2.4983,-2.4762,-2.4017,-2.3274,-2.2429,-2.136,-2.0463,-1.9761,0.0,0.0,0.0,0.0,-1.7721,-1.7503,-1.7503,-1.7503,-1.7503,-1.7503,-1.7851,-1.8467,-1.946,-2.0193,-2.1363,-2.3079,-2.3725,-2.4634,-2.5851,-2.6894,-2.7652,-2.811,-2.8767,-2.9029,-2.8881,-2.8826,-2.9097,-2.9627,-3.0171,-3.0797,-3.1443,-3.1971,-3.215,-3.2066,-3.187,-3.167,-3.1511,-3.1409,-3.1234,-3.0999,-2.8077,0.0,0.0,0.0,0.0,0.0,-3.3749,-3.3836,-3.4661,-3.6868,-3.7865,-3.8716,-3.9604,-4.0274,-4.0691,-4.0818,-4.08,-4.08,-4.08,-4.0709,-4.0003,-3.8537,-3.8162,-3.6596,-3.364,-3.3258,-3.1619,0.0,0.0,-2.6422,0.0,0.0,0.0,0.0,0.0,0.0,0.0,-2.5342,-2.7353,-2.9601,-3.0243,-3.0958,-3.1721,-3.2358,-3.2506,-3.2406,-3.2406,-3.2406,-3.2406,-3.2406,-3.2406,-3.2354,-3.2144,-3.209,-3.2055,-3.1873,-3.18,-3.1662,-3.1025,-3.0834,-3.0644,-2.9782,-2.8973,-2.8357,-2.8202,-2.7487,-2.6657,-2.6031,-2.5812,-2.5524,-2.4778,-2.4051,-2.3103,-2.1715,-2.141,-2.1075,0.0,0.0,0.0,0.0,0.0,0.0,-1.7503,-1.7503,-1.7503,-1.7503,-1.7503,-1.8046,-1.9309,-1.9389,-2.0301,-2.2313,-2.3109,-2.4039,-2.515,-2.6654,-2.7583,-2.7984,-2.8735,-2.9052,-2.8904,-2.8834,-2.9105,-2.9667,-3.0197,-3.0782,-3.1443,-3.1999,-3.2219,-3.2163,-3.1883,-3.1698,-3.1539,-3.1511,-3.1438,-3.1322,-2.9957,0.0,0.0,0.0,0.0,-3.2335,-3.4984,-3.5962,-3.6759,-3.7846,-3.8698,-3.9731,-4.1144,-4.1415,-4.1759,-4.2411,-4.2466,0.0,-4.2466,0.0,0.0,-4.0059,-3.8671,-3.7001,-3.5084,-3.3707,-3.2067,-3.0115,-2.8691,-2.7174,-2.5586,-2.4694,0.0,0.0,0.0,0.0,-2.5461,-2.6389,-2.8156,-3.0318,-3.0443,-3.1278,-3.2429,-3.2553,-3.2506,-3.2406,-3.2406,-3.2406,-3.2406,-3.2406,-3.2406,-3.2354,-3.2144,-3.209,-3.2055,-3.1873,-3.18,-3.1765,-3.1627,-3.161,-3.142,-3.0662,-3.0226,-2.9809,-2.9142,-2.8269,-2.757,-2.7435,-2.6928,-2.6285,-2.5541,-2.4812,-2.4017,-2.3171,-2.2496,-2.1854,-2.1092,0.0,0.0,0.0,0.0,-1.812,-1.7553,-1.7503,-1.7503,-1.7503,-1.7503,-1.7839,-1.8629,-1.915,-2.0101,-2.164,-2.285,-2.3795,-2.438,-2.6378,-2.736,-2.7288,-2.8514,-2.9075,-2.9052,-2.8959,-2.9209,-2.9806,-3.0324,-3.0886,-3.1455,-3.2093,-3.2287,-3.2163,-3.1883,-3.1784,-3.1727,-3.1568,-3.1511,-3.1453,0.0,0.0,0.0,0.0,0.0,-3.4009,-3.555,-3.7522,-3.8844,-3.8971,-3.993,-4.089,-4.1614,-4.2085,-4.2484,-4.2883,-4.2901,-4.2881,-4.2861,-4.2461,-4.1646,-4.0346,-3.9499,-3.8098,-3.6073,-3.4788,-3.3344,-3.1742,-2.9779,-2.8213,-2.7018,-2.5836,-2.5069,0.0,0.0,-2.5337,0.0,-2.7281,-2.8744,-3.0532,-3.0957,-3.1722,-3.2606,-3.2606,-3.2506,-3.2406,-3.2406,-3.2406,-3.2406,-3.2406,-3.2406,-3.2354,-3.2144,-3.209,-3.2055,-3.1873,-3.18,-3.18,-3.18,-3.18,-3.1714,-3.1351,-3.0828,-3.0305,-2.9894,-2.9102,-2.8416,-2.8416,-2.7824,-2.6928,-2.5812,-2.5321,-2.4831,-2.4085,-2.3342,-2.275,-2.2392,0.0,-2.0304,0.0,0.0,0.0,0.0,-1.7702,-1.7503,-1.7503,0.0,-1.7801,-1.8456,-1.9068,-1.9886,-2.095,-2.2622,-2.3588,-2.3735,-2.6178,-2.7322,-2.7169,-2.8474,-2.9098,-2.9114,-2.936,-2.9814,-3.046,-3.0928,-3.1464,-3.2033,-3.2287,-3.2315,-3.2191,-3.2066,-3.1912,-3.1799,-3.1698,-3.1822,-3.2004,0.0,-3.5045,0.0,0.0,-3.6854,-3.7306,-3.7306,-3.9423,-4.0727,-3.9967,-4.0782,-4.1578,-4.1922,-4.252,-4.2901,-4.2901,-4.29,-4.2861,-4.2803,-4.2763,-4.2056,-4.0504,-4.0194,-3.9046,-3.6862,-3.5756,-3.4436,-3.29,-3.0886,-2.9301,-2.8178,-2.6894,-2.6139,-2.5818,-2.5979,-2.6496,-2.7299,-2.8106,-2.9337,-3.0814,-3.1439,-3.2058,-3.2606,-3.2606,-3.2506,-3.2406,-3.2406,-3.2406,-3.2406,-3.2406,-3.2406,-3.2354,-3.2144,-3.209,-3.2055,-3.1873,-3.18,-3.18,-3.18,-3.18,-3.18,-3.18,-3.1223,-3.063,-3.063,-2.992,-2.923,-2.923,-2.8602,-2.7638,-2.6302,-2.6066,-2.5778,-2.488,-2.4254,-2.3765,-2.3444,-2.2298,0.0,0.0,0.0,0.0,-1.8538,-1.8021,-1.7652,-1.7503,-1.7503,-1.7801,-1.8456,-1.9068,-1.9804,-2.0688,-2.2525,-2.3573,-2.3742,-2.6166,-2.7407,-2.7445,-2.8582,-2.9098,-2.913,-2.9745,-3.0389,-3.1021,-3.1462,-3.1986,-3.2551,-3.2425,-3.2342,-3.2247,-3.2219,-3.2066,-3.1913,-3.2007,-3.2283,-3.2646,0.0,0.0,0.0,-3.7991,-4.0347,-4.223,-4.223,-4.2502,-4.2122,-4.0619,-4.0528,-4.1162,-4.2629,-4.2865,-4.2901,-4.2901,-4.2842,-4.2803,-4.2803,-4.2625,-4.2129,-4.1253,-4.0384,-3.9147,-3.7542,-3.5989,-3.4436,-3.29,-3.1954,-3.0368,-2.8196,-2.8053,-2.7197,-2.5836,-2.655,-2.7335,-2.8142,-2.8945,-3.019,-3.1581,-3.1671,-3.2058,-3.2606,-3.2606,-3.2506,-3.2406,-3.2406,-3.2406,-3.2406,-3.2406,-3.2406,-3.2354,-3.2144,-3.209,-3.2055,-3.1873,-3.18,-3.18,-3.18,-3.18,-3.18,-3.18,-3.16,-3.1395,-3.1395,-3.0664,-3.0006,-3.0006,-2.9397,-2.8619,-2.7756,-2.7587,-2.7131,-2.5744,-2.5439,-2.4932,-2.3579,-2.3218,-2.2572,-2.1158,0.0,0.0,-1.8638,-1.8439,-1.8141,-1.7553,-1.7503,-1.7801,-1.8456,-1.9068,-2.0017,-2.1361,-2.2769,-2.4058,-2.5188,-2.6663,-2.7663,-2.8208,-2.8797,-2.9098,-2.913,-2.9864,-3.0486,-3.1021,-3.155,-3.2009,-3.2425,-3.2425,-3.2398,-3.237,-3.2247,-3.2191,-3.2211,-3.2693,-3.2908,-3.3136,-3.9132,-4.0147,-4.1035,-4.1035,-4.2068,-4.2901,-4.2901,-4.2901,-4.2684,-4.2013,-4.194,-4.2176,-4.2829,-4.2901,-4.2901,-4.2901,-4.2805,-4.2727,-4.2668,-4.2566,-4.2125,-4.1225,-4.0362,-3.9395,-3.8344,-3.6738,-3.5382,-3.4276,-3.3043,-3.1689,-3.0279,-2.9337,-2.832,-2.7268,-2.8084,-2.862,-2.8998,-3.0243,-3.1135,-3.1742,-3.2239,-3.2485,-3.2606,-3.2606,-3.2506,-3.2406,-3.2406,-3.2406,-3.2406,-3.2406,-3.2406,-3.2354,-3.2144,-3.209,-3.2055,-3.1873,-3.18,-3.18,-3.18,-3.18,-3.18,-3.18,-3.1651,-3.1498,-3.1498,-3.1106,-3.0768,-3.0768,-3.0176,-2.9431,-2.8653,-2.8146,-2.7621,-2.7012,-2.6167,-2.539,-2.4797,-2.3907,0.0,-2.2398,0.0,-2.0542,-1.9876,-1.9416,-1.9051,-1.877,-1.8352,-1.8207,-1.8489,-1.9479,-2.0508,-2.1476,-2.2801,-2.4141,-2.5508,-2.6784,-2.7716,-2.8359,-2.8858,-2.9319,-2.9785,-3.048,-3.1338,-3.2269,-3.2404,-3.2482,-3.2523,-3.2425,-3.2398,-3.2398,-3.2342,-3.2259,-3.2267,-3.2898,-3.3314,-3.3712,-4.2901,-4.2901,-4.2901,-4.2901,-4.2901,-4.3227,-4.4168,-4.4313,-4.4313,-4.4313,-4.4313,-4.4313,-4.4313,-4.4313,-4.3914,-4.2992,-4.2786,-4.267,-4.2589,-4.2488,-4.2154,-4.1466,-4.0467,-3.9645,-3.9128,-3.7327,-3.6114,-3.556,-3.4008,-3.2846,-3.2025,-3.0457,-2.9408,-2.8891,-2.9476,-2.9851,-3.0154,-3.1242,-3.1831,-3.2114,-3.2668,-3.277,-3.2606,-3.2606,-3.2506,-3.2406,-3.2406,-3.2406,-3.2406,-3.2406,-3.2406,-3.2354,-3.2144,-3.209,-3.2055,-3.1873,-3.18,-3.18,-3.18,-3.18,-3.18,-3.18,-3.167,-3.1519,-3.1498,-3.1366,-3.1213,-3.121,-3.0784,-3.0209,-2.9448,-2.8856,-2.8331,-2.7874,-2.6928,-2.61,-2.566,-2.4665,-2.3794,-2.3268,-2.2206,-2.1299,-2.0749,-2.0224,-1.9829,-1.9617,-1.9316,-1.9164,-1.9164,-2.0186,-2.1212,-2.2114,-2.3224,-2.4581,-2.6196,-2.7013,-2.7854,-2.8728,-2.9198,-2.9706,-3.0236,-3.1112,-3.211,-3.3096,-3.3005,-3.287,-3.2676,-3.2523,-3.2453,-3.2453,-3.2425,-3.2465,-3.2658,-3.3332,-3.3933,-3.4531,-4.2901,-4.2901,-4.2901,-4.2901,-4.2901,-4.3969,-4.7174,-4.7624,-4.7624,-4.7624,-4.7624,-4.7624,-4.7624,-4.7624,-4.6359,-4.3172,-4.2786,-4.265,-4.2512,-4.2389,-4.2308,-4.229,-4.0753,-3.9895,-3.9877,-3.7612,-3.6399,-3.6381,-3.4847,-3.3669,-3.2846,-3.1242,-3.0493,-3.046,-3.0493,-3.0939,-3.1671,-3.1689,-3.2168,-3.2882,-3.29,-3.277,-3.2606,-3.2606,-3.2506,-3.2406,-3.2406,-3.2406,-3.2406,-3.2406,-3.2406,-3.2354,-3.2144,-3.209,-3.2055,-3.1873,-3.18,-3.18,-3.18,-3.18,-3.18,-3.18,-3.1709,-3.1578,-3.1517,-3.1387,-3.1293,-3.121,-3.119,-3.0954,-3.0207,-3.0072,-2.9565,-2.8043,-2.779,-2.7266,-2.5795,-2.5576,-2.4987,-2.3385,-2.3185,-2.2523,-2.0849,-2.0685,-2.0373,-1.965,-2.0274,-2.0669,-2.0669,-2.1189,-2.2163,-2.3637,-2.42,-2.5503,-2.7656,-2.7495,-2.8089,-2.9496,-2.995,-3.0188,-3.0251,-3.1643,-3.2593,-3.3096,-3.3096,-3.3032,-3.287,-3.2676,-3.2594,-3.2578,-3.2453,-3.2798,-3.3475,-3.4198,-3.4921,-3.5568,-4.6178,-4.6178,-4.6178,-4.6178,-4.6178,-4.6522,-4.7554,-4.7717,-4.7717,-4.7717,-4.7717,-4.7717,-4.7717,-4.7717,-4.7301,-4.6269,-4.3991,-4.2591,-4.2512,-4.2371,-4.2308,-4.2308,-4.1288,-4.0467,-3.9895,-3.8683,-3.7505,-3.6399,-3.5917,-3.4722,-3.2882,-3.1813,-3.1028,-3.0514,-3.1064,-3.1457,-3.174,-3.2293,-3.2668,-3.29,-3.29,-3.277,-3.2606,-3.2606,-3.2506,-3.2406,-3.2406,-3.2406,-3.2406,-3.2406,-3.2406,-3.2354,-3.2144,-3.209,-3.2055,-3.1873,-3.18,-3.18,-3.18,-3.18,-3.18,-3.18,-3.1709,-3.1579,-3.1517,-3.1366,-3.123,-3.121,-3.119,-3.1123,-3.0886,-3.0446,-2.977,-2.8772,-2.8145,-2.7452,-2.6488,-2.593,-2.5391,-2.4823,-2.424,-2.3659,-2.3067,-2.2972,-2.2857,-2.2626,-2.2824,-2.251,-2.1497,-2.1961,-2.2916,-2.4407,-2.4962,-2.6053,-2.7688,-2.804,-2.8656,-2.9512,-3.0076,-3.0799,-3.1659,-3.2576,-3.3061,-3.3229,-3.3123,-3.3085,-3.3032,-3.287,-3.2718,-3.264,-3.3104,-3.3342,-3.3537,-3.4751,-3.5321,-3.5614,-4.7717,-4.7717,-4.7717,-4.7717,-4.7717,-4.7717,-4.7717,-4.7717,-4.7717,-4.7717,-4.7717,-4.7717,-4.7717,-4.7717,-4.7717,-4.7717,-4.4646,-4.2631,-4.245,-4.2348,-4.2308,-4.2308,-4.152,-4.0717,-3.9912,-3.9163,-3.8165,-3.6845,-3.6542,-3.5489,-3.374,-3.3241,-3.2759,-3.2295,-3.2509,-3.2599,-3.2616,-3.2829,-3.29,-3.29,-3.29,-3.277,-3.2606,-3.2606,-3.2506,-3.2406,-3.2406,-3.2406,-3.2406,-3.2406,-3.2406,-3.2354,-3.2144,-3.209,-3.2055,-3.1873,-3.18,-3.18,-3.18,-3.18,-3.18,-3.18,-3.1951,-3.2046,-3.1946,-3.1791,-3.1588,-3.1278,-3.119,-3.119,-3.119,-3.0818,-3.0277,-2.9533,-2.8755,-2.7994,-2.7232,-2.6488,-2.588,-2.5529,-2.4994,-2.4495,-2.4147,-2.4049,-2.4,-2.4,-2.4,-2.3719,-2.3073,-2.3293,-2.3981,-2.5176,-2.5726,-2.6701,-2.8093,-2.8436,-2.903,-2.9879,-3.072,-3.1645,-3.2703,-3.3103,-3.3309,-3.3309,-3.3203,-3.3176,-3.315,-3.3032,-3.3064,-3.3189,-3.3597,-3.4038,-3.4465,-3.5272,-3.5721,-3.6014,-4.7717,-4.7717,-4.7717,-4.7717,-4.7717,-4.7717,-4.7717,-4.7717,-4.7717,-4.7717,-4.7717,-4.7717,-4.7717,-4.7717,-4.7717,-4.7717,-4.4965,-4.2982,-4.2366,-4.2308,-4.2308,-4.2308,-4.1573,-4.0806,-3.9984,-3.9253,-3.8469,-3.7595,-3.6774,-3.6024,-3.5293,-3.5222,-3.5186,-3.5169,-3.449,-3.4187,-3.4133,-3.3366,-3.3061,-3.3061,-3.3007,-3.2859,-3.2677,-3.2623,-3.2506,-3.2406,-3.2406,-3.2406,-3.2406,-3.2406,-3.2406,-3.2354,-3.2144,-3.209,-3.2055,-3.1873,-3.18,-3.18,-3.18,-3.1834,-3.1869,-3.1869,-3.2438,-3.2932,-3.2718,-3.2585,-3.2264,-3.145,-3.1244,-3.119,-3.119,-3.119,-3.0954,-3.0207,-2.9516,-2.8772,-2.7925,-2.7215,-2.6488,-2.568,-2.553,-2.5163,-2.4363,-2.4199,-2.4149,-2.4149,-2.4199,-2.453,-2.5226,-2.5118,-2.5307,-2.5946,-2.6542,-2.7462,-2.8795,-2.878,-2.9406,-3.0663,-3.1784,-3.2655,-3.3309,-3.3309,-3.3309,-3.3309,-3.3309,-3.3309,-3.3282,-3.3239,-3.3563,-3.4101,-3.4072,-3.486,-3.5985,-3.5823,-3.6181,-3.6693,-4.7717,-4.7717,-4.7717,-4.7717,-4.7717,-4.7717,-4.7717,-4.7717,-4.7717,-4.7717,-4.7717,-4.7717,-4.7717,-4.7717,-4.7717,-4.7717,-4.7011,-4.5405,-4.2711,-4.2389,-4.2308,-4.2308,-4.2129,-4.1627,-4.0842,-4.0057,-3.8968,-3.7595,-3.6774,-3.6292,-3.6096,-3.5489,-3.5186,-3.5186,-3.5008,-3.4937,-3.4919,-3.474,-3.4668,-3.4615,-3.4044,-3.3695,-3.3455,-3.2818,-3.2506,-3.2406,-3.2406,-3.2406,-3.2406,-3.2406,-3.2406,-3.2354,-3.2144,-3.209,-3.2055,-3.1873,-3.18,-3.18,-3.18,-3.2214,-3.2645,-3.2645,-3.3156,-3.3645,-3.3605,-3.3037,-3.2437,-3.223,-3.1659,-3.119,-3.119,-3.119,-3.0954,-3.0207,-2.9956,-2.9364,-2.7993,-2.7655,-2.7266,-2.6522,-2.6303,-2.615,-2.5966,-2.5777,-2.5672,-2.5672,-2.6205,-2.6586,-2.6768,-2.7076,-2.706,-2.6683,-2.7745,-2.845,-2.8811,-2.983,-3.0937,-3.2117,-3.2344,-3.2758,-3.3309,-3.3309,-3.3309,-3.3309,-3.3309,-3.3309,-3.334,-3.3819,-3.4053,-3.4195,-3.525,-3.5806,-3.6048,-3.6532,-3.6798,-3.6908,-4.7717,-4.7717,-4.7717,-4.7717,-4.7717,-4.7717,-4.7717,-4.7717,-4.7717,-4.7717,-4.7717,-4.7717,-4.7717,-4.7717,-4.7717,-4.7717,-4.7717,-4.6279,-4.2946,-4.2452,-4.2308,-4.2308,-4.2308,-4.1912,-4.1127,-4.0681,-3.97,-3.8148,-3.7327,-3.6934,-3.6952,-3.6488,-3.6292,-3.6274,-3.5917,-3.5757,-3.5721,-3.5347,-3.5186,-3.5186,-3.4758,-3.4282,-3.3738,-3.3313,-3.2841,-3.2406,-3.2406,-3.2406,-3.2406,-3.2406,-3.2406,-3.2354,-3.2144,-3.209,-3.2055,-3.1873,-3.18,-3.1869,-3.2214,-3.2593,-3.3076,-3.3783,-3.4226,-3.4475,-3.4452,-3.4062,-3.3464,-3.2664,-3.2108,-3.1676,-3.1278,-3.119,-3.1072,-3.0666,-3.0328,-2.982,-2.8973,-2.8551,-2.8197,-2.7808,-2.7634,-2.7543,-2.7508,-2.7344,-2.7234,-2.7197,-2.758,-2.7796,-2.7796,-2.83,-2.8378,-2.7928,-2.8493,-2.9097,-2.9761,-3.1101,-3.208,-3.2688,-3.2873,-3.3111,-3.3372,-3.3335,-3.3309,-3.3309,-3.3309,-3.3467,-3.3783,-3.4146,-3.4656,-3.5235,-3.5978,-3.6452,-3.6723,-3.6994,-3.7105,-3.7075,-4.7699,-4.7717,-4.7717,-4.7717,-4.7717,-4.7717,-4.7717,-4.7717,-4.7717,-4.7717,-4.7717,-4.7717,-4.7717,-4.7717,-4.7717,-4.7717,-4.7717,-4.6341,-4.3118,-4.2591,-4.2369,-4.2308,-4.2308,-4.1966,-4.1306,-4.1038,-4.0217,-3.8808,-3.7987,-3.7595,-3.7595,-3.7595,-3.7595,-3.7577,-3.6899,-3.6577,-3.6542,-3.5846,-3.556,-3.556,-3.5418,-3.4887,-3.411,-3.388,-3.3282,-3.2546,-3.2441,-3.2406,-3.2406,-3.2406,-3.2406,-3.2354,-3.2144,-3.2178,-3.2229,-3.2028,-3.2041,-3.2248,-3.2766,-3.3076,-3.3593,-3.5007,-3.537,-3.5349,-3.5284,-3.5194,-3.4686,-3.3202,-3.2701,-3.2284,-3.1537,-3.1314,-3.121,-3.119,-3.0666,-3.0243,-3.0125,-2.955,-2.9128,-2.901,-2.8883,-2.8774,-2.8716,-2.8567,-2.8489,-2.8412,-2.8492,-2.8558,-2.8558,-2.9134,-2.9457,-2.9419,-2.9262,-2.9815,-3.1212,-3.2289,-3.2884,-3.2972,-3.3371,-3.3555,-3.3503,-3.3372,-3.3335,-3.3309,-3.3403,-3.3767,-3.4304,-3.4525,-3.5331,-3.6408,-3.6519,-3.6959,-3.748,-3.73,-3.7254,-3.7224,-4.7762,-4.7717,-4.7717,-4.7717,-4.7717,-4.7717,-4.7717,-4.7717,-4.7717,-4.7717,-4.7717,-4.7717,-4.7717,-4.7717,-4.7717,-4.7717,-4.7717,-4.6341,-4.3118,-4.2825,-4.267,-4.2308,-4.2308,-4.2234,-4.2129,-4.0788,-3.9645,-3.8808,-3.7987,-3.7595,-3.7595,-3.7595,-3.7595,-3.7595,-3.747,-3.7416,-3.7416,-3.7291,-3.7238,-3.7184,-3.6488,-3.6025,-3.5598,-3.4305,-3.36,-3.3248,-3.2616,-3.2406,-3.2406,-3.2406,-3.2406,-3.2354,-3.2144,-3.2525,-3.2992,-3.2788,-3.3214,-3.363,-3.3059,-3.3852,-3.5042,-3.5904,-3.6128,-3.6128,-3.6125,-3.5597,-3.5019,-3.4754,-3.3556,-3.2517,-3.2335,-3.1754,-3.1274,-3.121,-3.1106,-3.0818,-3.0192,-3.0006,-2.9702,-2.9077,-2.8883,-2.8809,-2.879,-2.8605,-2.8508,-2.8489,-2.8959,-2.9251,-2.9251,-2.9861,-3.0448,-3.0948,-3.0826,-3.1375,-3.274,-3.2943,-3.3298,-3.3738,-3.3799,-3.372,-3.3503,-3.3477,-3.3398,-3.3324,-3.3893,-3.4194,-3.4383,-3.56,-3.6187,-3.6456,-3.7085,-3.7415,-3.751,-3.7464,-3.7435,-3.7435,-4.7783,-4.7717,-4.7717,-4.7717,-4.7717,-4.7717,-4.7717,-4.7717,-4.7717,-4.7717,-4.7717,-4.7717,-4.7717,-4.7717,-4.7717,-4.7717,-4.7717,-4.7083,-4.558,-4.386,-4.2824,-4.2631,-4.2472,-4.2409,-4.2405,-4.0755,-3.9716,-3.9377,-3.8183,-3.7595,-3.7595,-3.7595,-3.7595,-3.7595,-3.7595,-3.7595,-3.7595,-3.7595,-3.7595,-3.7577,-3.7202,-3.6666,-3.6023,-3.5314,-3.4394,-3.3459,-3.3125,-3.2739,-3.2406,-3.2406,-3.2651,-3.2967,-3.2843,-3.3276,-3.381,-3.3659,-3.4135,-3.4594,-3.4231,-3.4956,-3.587,-3.6215,-3.6301,-3.6301,-3.6301,-3.6,-3.5614,-3.5194,-3.448,-3.3662,-3.2724,-3.2222,-3.1788,-3.1322,-3.1213,-3.1072,-3.0734,-3.0683,-3.0565,-3.0245,-3.0121,-3.0063,-2.9986,-2.987,-2.9772,-2.9692,-2.9871,-3.0174,-3.0555,-3.0877,-3.1325,-3.1939,-3.2115,-3.2488,-3.3105,-3.3453,-3.3768,-3.4,-3.3924,-3.3822,-3.3736,-3.4042,-3.4181,-3.4133,-3.4736,-3.5217,-3.557,-3.6166,-3.6614,-3.7022,-3.7354,-3.751,-3.751,-3.751,-3.751,-3.751,-4.7888,-4.7762,-4.7717,-4.7717,-4.7717,-4.7717,-4.7717,-4.7717,-4.7717,-4.7717,-4.7717,-4.7717,-4.7717,-4.7717,-4.7717,-4.7717,-4.7717,-4.7717,-4.7717,-4.4693,-4.2901,-4.2901,-4.267,-4.253,-4.2526,-4.0992,-4.0112,-3.9933,-3.8559,-3.7791,-3.7595,-3.7595,-3.7595,-3.7595,-3.7595,-3.7595,-3.7595,-3.7595,-3.7595,-3.7595,-3.7595,-3.7111,-3.6378,-3.6182,-3.5259,-3.4039,-3.3845,-3.3424,-3.2932,-3.2932,-3.3301,-3.3757,-3.3666,-3.4116,-3.4629,-3.4515,-3.4933,-3.5456,-3.5456,-3.587,-3.6301,-3.6301,-3.6301,-3.6301,-3.6301,-3.6301,-3.6125,-3.5511,-3.5249,-3.4727,-3.3422,-3.2847,-3.2344,-3.1689,-3.1373,-3.123,-3.121,-3.119,-3.119,-3.119,-3.119,-3.1219,-3.1308,-3.1244,-3.121,-3.1254,-3.1129,-3.1293,-3.183,-3.1846,-3.2133,-3.2685,-3.2988,-3.3186,-3.3323,-3.3841,-3.4101,-3.4101,-3.4,-3.4004,-3.4172,-3.4657,-3.4899,-3.5065,-3.5648,-3.6198,-3.6676,-3.6695,-3.7049,-3.7524,-3.751,-3.751,-3.751,-3.751,-3.751,-3.751,-4.8267,-4.7949,-4.7717,-4.7717,-4.7717,-4.7717,-4.7717,-4.7717,-4.7717,-4.7717,-4.7717,-4.7717,-4.7717,-4.7717,-4.7717,-4.7717,-4.7717,-4.7717,-4.7717,-4.4693,-4.2901,-4.2901,-4.2749,-4.265,-4.2589,-4.1685,-4.082,-4.0085,-3.9149,-3.8326,-3.7595,-3.7595,-3.7595,-3.7595,-3.7595,-3.7595,-3.7595,-3.7595,-3.7595,-3.7595,-3.7595,-3.7486,-3.7214,-3.6413,-3.5985,-3.5696,-3.49,-3.4583,-3.453,-3.453,-3.4565,-3.46,-3.4454,-3.4882,-3.5412,-3.533,-3.5728,-3.6215,-3.6215,-3.6266,-3.6301,-3.6301,-3.6301,-3.6301,-3.6301,-3.6301,-3.6284,-3.6232,-3.568,-3.5139,-3.495,-3.3745,-3.2689,-3.2443,-3.1771,-3.1274,-3.121,-3.119,-3.119,-3.119,-3.119,-3.1461,-3.2138,-3.2086,-3.2265,-3.288,-3.2805,-3.2679,-3.2619,-3.2613,-3.2832,-3.3325,-3.3224,-3.3462,-3.402,-3.4084,-3.4101,-3.4101,-3.4101,-3.4381,-3.4923,-3.4945,-3.5262,-3.5769,-3.6478,-3.683,-3.6926,-3.7409,-3.7623,-3.7671,-3.7539,-3.751,-3.751,-3.751,-3.751,-3.751,-4.8306,-4.817,-4.799,-4.7741,-4.7717,-4.7717,-4.7717,-4.7717,-4.7717,-4.7717,-4.7717,-4.7717,-4.7717,-4.7717,-4.7717,-4.7717,-4.7717,-4.7717,-4.7717,-4.4693,-4.2901,-4.2901,-4.2805,-4.2746,-4.2725,-4.1836,-4.097,-4.0162,-3.9279,-3.8454,-3.7667,-3.7613,-3.7595,-3.7595,-3.7595,-3.7595,-3.7595,-3.7595,-3.7595,-3.7595,-3.7595,-3.7522,-3.7356,-3.6998,-3.6497,-3.5961,-3.5533,-3.5092,-3.4706,-3.4706,-3.5004,-3.5371,-3.5316,-3.5782,-3.6292,-3.6131,-3.6177,-3.6301,-3.6301,-3.6301,-3.6301,-3.6301,-3.6301,-3.6301,-3.6301,-3.6301,-3.6301,-3.6301,-3.6077,-3.5732,-3.526,-3.4647,-3.4054,-3.3477,-3.3089,-3.2821,-3.27,-3.2679,-3.2659,-3.256,-3.256,-3.2679,-3.2949,-3.2896,-3.2946,-3.3189,-3.3021,-3.3073,-3.3478,-3.3852,-3.4117,-3.4191,-3.4087,-3.4048,-3.4101,-3.4101,-3.4101,-3.4101,-3.4554,-3.4884,-3.5166,-3.6028,-3.6535,-3.677,-3.7428,-3.7721,-3.7709,-3.7793,-3.7817,-3.7817,-3.7687,-3.7612,-3.7612,-3.7539,-3.751,-3.751,-4.8306,-4.8306,-4.817,-4.7762,-4.7717,-4.7717,-4.7717,-4.7717,-4.7717,-4.7717,-4.7717,-4.7717,-4.7717,-4.7717,-4.7717,-4.7717,-4.7246,-4.6957,-4.6957,-4.4403,-4.2901,-4.2901,-4.2861,-4.2823,-4.2823,-4.2167,-4.1317,-4.0255,-3.9623,-3.8761,-3.7703,-3.7649,-3.7613,-3.7595,-3.7595,-3.7595,-3.7595,-3.7595,-3.7595,-3.7595,-3.7595,-3.754,-3.7448,-3.7334,-3.694,-3.6387,-3.6218,-3.5846,-3.5426,-3.5426,-3.5759,-3.618,-3.618,-3.647,-3.6768,-3.6606,-3.6482,-3.6343,-3.6343,-3.6322,-3.6301,-3.6301,-3.6301,-3.6301,-3.6301,-3.6301,-3.6301,-3.6301,-3.6301,-3.6146,-3.5628,-3.5328,-3.494,-3.4366,-3.4028,-3.3792,-3.369,-3.3628,-3.3569,-3.3469,-3.3427,-3.3491,-3.3728,-3.3697,-3.3751,-3.396,-3.3812,-3.3896,-3.4328,-3.4705,-3.4851,-3.4691,-3.4618,-3.4423,-3.4176,-3.4126,-3.4214,-3.4441,-3.4968,-3.5412,-3.5882,-3.6869,-3.7425,-3.7667,-3.8068,-3.8266,-3.825,-3.8078,-3.7992,-3.7992,-3.7817,-3.7759,-3.7759,-3.7642,-3.7628,-3.7628,-4.8306,-4.8306,-4.817,-4.7762,-4.7699,-4.7717,-4.7717,-4.7717,-4.7717,-4.7717,-4.7717,-4.7717,-4.7717,-4.7717,-4.7717,-4.7717,-4.6232,-4.5291,-4.5273,-4.3788,-4.2901,-4.2901,-4.2901,-4.2901,-4.2901,-4.2823,-4.2027,-4.0402,-4.0255,-3.9336,-3.7703,-3.7703,-3.7649,-3.7595,-3.7595,-3.7595,-3.7595,-3.7595,-3.7595,-3.7595,-3.7595,-3.7595,-3.7594,-3.7372,-3.7297,-3.7278,-3.7085,-3.7007,-3.7007,-3.7007,-3.7007,-3.7007,-3.7007,-3.6908,-3.6788,-3.6705,-3.6602,-3.6502,-3.6502,-3.6402,-3.6301,-3.6301,-3.6301,-3.6301,-3.6301,-3.6301,-3.6301,-3.6301,-3.6301,-3.6301,-3.6301,-3.5697,-3.5194,-3.5125,-3.4452,-3.3894,-3.3826,-3.3707,-3.3607,-3.3607,-3.3503,-3.3711,-3.4438,-3.4506,-3.4783,-3.5464,-3.5492,-3.5377,-3.5111,-3.497,-3.4851,-3.4707,-3.4707,-3.4586,-3.43,-3.4176,-3.4473,-3.5211,-3.5211,-3.5946,-3.7295,-3.7295,-3.7728,-3.8391,-3.8391,-3.8391,-3.8408,-3.8266,-3.8209,-3.8164,-3.7992,-3.7905,-3.7905,-3.7905,-3.7905,-3.7905,-4.8306,-4.8306,-4.8267,-4.8131,-4.7907,-4.7717,-4.7717,-4.7717,-4.7717,-4.7717,-4.7717,-4.7717,-4.7717,-4.7717,-4.7717,-4.7717,-4.6232,-4.482,-4.3679,-4.3173,-4.2901,-4.2901,-4.2901,-4.2901,-4.2901,-4.2881,-4.2084,-4.0456,-4.0366,-3.95,-3.7915,-3.7774,-3.7685,-3.7685,-3.7613,-3.7595,-3.7595,-3.7595,-3.7595,-3.7595,-3.7595,-3.7595,-3.7577,-3.7429,-3.7353,-3.7278,-3.7126,-3.7048,-3.7007,-3.7007,-3.7007,-3.7007,-3.7007,-3.6908,-3.6809,-3.6768,-3.6705,-3.6643,-3.6643,-3.6544,-3.6423,-3.6322,-3.6301,-3.6301,-3.6301,-3.6301,-3.6301,-3.6301,-3.6301,-3.6301,-3.6301,-3.6111,-3.5973,-3.5949,-3.5742,-3.5562,-3.5475,-3.545,-3.539,-3.5305,-3.5176,-3.5174,-3.5394,-3.5328,-3.5346,-3.5554,-3.552,-3.5377,-3.5111,-3.5065,-3.497,-3.4835,-3.525,-3.5441,-3.5341,-3.5141,-3.5078,-3.5211,-3.6206,-3.6902,-3.7311,-3.7841,-3.8197,-3.8391,-3.8391,-3.8391,-3.8391,-3.8379,-3.8351,-3.8323,-3.8164,-3.8107,-3.8078,-3.7963,-3.7905,-3.7905,-4.8306,-4.8306,-4.8306,-4.8306,-4.811,-4.7868,-4.772,-4.7717,-4.7717,-4.7717,-4.7717,-4.7717,-4.7717,-4.7717,-4.7717,-4.7717,-4.6232,-4.4621,-4.301,-4.2901,-4.2901,-4.2901,-4.2901,-4.2901,-4.2901,-4.2901,-4.2103,-4.0492,-4.0474,-3.9589,-3.8001,-3.788,-3.7774,-3.7703,-3.7667,-3.7613,-3.7595,-3.7595,-3.7595,-3.7595,-3.7595,-3.7595,-3.7594,-3.7448,-3.7354,-3.7278,-3.7147,-3.7068,-3.7007,-3.7007,-3.7007,-3.7007,-3.7007,-3.693,-3.6888,-3.6888,-3.6809,-3.6745,-3.6745,-3.6664,-3.6544,-3.6482,-3.6381,-3.6301,-3.6301,-3.6301,-3.6301,-3.6301,-3.6301,-3.6301,-3.6301,-3.6301,-3.6301,-3.6301,-3.6301,-3.628,-3.6251,-3.6208,-3.6182,-3.6101,-3.5971,-3.5861,-3.5795,-3.5728,-3.5667,-3.56,-3.5543,-3.5423,-3.5268,-3.5418,-3.5514,-3.5402,-3.6009,-3.629,-3.6239,-3.6366,-3.6316,-3.6117,-3.6967,-3.7507,-3.776,-3.8197,-3.8391,-3.8391,-3.8391,-3.8391,-3.8391,-3.8391,-3.8391,-3.8391,-3.8307,-3.8294,-3.825,-3.8135,-3.8107,-3.8107,-4.8306,-4.8306,-4.8306,-4.8306,-4.8306,-4.817,-4.7804,-4.7741,-4.772,-4.772,-4.7717,-4.7699,-4.7717,-4.7717,-4.7681,-4.7609,-4.6124,-4.453,-4.301,-4.2901,-4.2901,-4.2901,-4.2901,-4.2901,-4.2901,-4.2901,-4.214,-4.0601,-4.0528,-3.9678,-3.8109,-3.8037,-3.7897,-3.7721,-3.7703,-3.7685,-3.7613,-3.7595,-3.7595,-3.7595,-3.7595,-3.7595,-3.7594,-3.7466,-3.7373,-3.7297,-3.7166,-3.7069,-3.7007,-3.6989,-3.7007,-3.7007,-3.7007,-3.7007,-3.7007,-3.7007,-3.6911,-3.6829,-3.6829,-3.6748,-3.6722,-3.6722,-3.6523,-3.6339,-3.6339,-3.6322,-3.6322,-3.6322,-3.6301,-3.6301,-3.6301,-3.6301,-3.6301,-3.6301,-3.6301,-3.6301,-3.6301,-3.6251,-3.6242,-3.6311,-3.6204,-3.609,-3.6026,-3.6021,-3.5954,-3.5825,-3.5745,-3.5716,-3.5694,-3.6104,-3.6328,-3.6304,-3.6896,-3.7151,-3.7023,-3.7748,-3.7929,-3.7519,-3.7584,-3.7893,-3.842,-3.842,-3.8391,-3.8391,-3.8391,-3.8391,-3.8391,-3.8391,-3.8391,-3.8391,-3.8391,-3.8391,-3.8391,-3.8391,-3.8391,-3.8391,-4.8306,-4.8306,-4.8306,-4.8306,-4.8306,-4.8267,-4.817,-4.809,-4.797,-4.7868,-4.7863,-4.7819,-4.7717,-4.7717,-4.7464,-4.683,-4.5291,-4.3932,-4.2955,-4.2901,-4.2901,-4.2901,-4.2901,-4.2901,-4.2901,-4.2901,-4.2411,-4.1433,-4.08,-4.0021,-3.908,-3.8342,-3.7984,-3.7932,-3.7774,-3.7685,-3.7667,-3.7613,-3.7595,-3.7595,-3.7595,-3.7595,-3.7613,-3.7558,-3.7485,-3.7373,-3.7297,-3.7184,-3.7069,-3.7009,-3.7007,-3.7007,-3.7007,-3.7007,-3.7007,-3.7007,-3.6987,-3.6968,-3.6968,-3.6869,-3.6768,-3.6768,-3.6705,-3.6623,-3.6623,-3.6523,-3.6461,-3.6461,-3.6364,-3.6301,-3.6301,-3.6301,-3.6301,-3.6301,-3.6301,-3.6301,-3.6301,-3.628,-3.6521,-3.7141,-3.7106,-3.7242,-3.778,-3.7706,-3.7555,-3.7415,-3.7391,-3.732,-3.7225,-3.7328,-3.7274,-3.7061,-3.7744,-3.805,-3.7928,-3.8666,-3.8599,-3.7746,-3.8286,-3.852,-3.8576,-3.8576,-3.8504,-3.8391,-3.8391,-3.8391,-3.8391,-3.8391,-3.8391,-3.8391,-3.8391,-3.8391,-3.8391,-3.8391,-3.8391,-3.8391,-4.8306,-4.8306,-4.8306,-4.8306,-4.8306,-4.8287,-4.8209,-4.8149,-4.807,-4.7951,-4.7947,-4.7925,-4.7819,-4.7798,-4.7288,-4.6033,-4.4802,-4.3751,-4.2955,-4.2901,-4.2901,-4.2901,-4.2901,-4.2901,-4.2901,-4.2901,-4.2502,-4.1705,-4.089,-4.013,-3.9369,-3.8502,-3.8053,-3.8001,-3.7897,-3.7792,-3.7703,-3.7649,-3.7631,-3.7595,-3.7595,-3.7595,-3.7595,-3.7595,-3.7522,-3.7411,-3.7354,-3.7241,-3.7089,-3.705,-3.7029,-3.7007,-3.7007,-3.7007,-3.7007,-3.7007,-3.7007,-3.7007,-3.7007,-3.6948,-3.6908,-3.6908,-3.6869,-3.6826,-3.6722,-3.6643,-3.6602,-3.6602,-3.6544,-3.6464,-3.6402,-3.6402,-3.6364,-3.6322,-3.6301,-3.6422,-3.6818,-3.687,-3.7146,-3.7944,-3.7964,-3.8057,-3.8368,-3.8207,-3.8078,-3.7984,-3.7929,-3.7858,-3.781,-3.8074,-3.8161,-3.802,-3.8612,-3.8892,-3.883,-3.9143,-3.9036,-3.8523,-3.8777,-3.8849,-3.8683,-3.8683,-3.8616,-3.8492,-3.8492,-3.8448,-3.8391,-3.8391,-3.8391,-3.8391,-3.8391,-3.8391,-3.8391,-3.8391,-3.8391,-3.8391,-4.8306,-4.8306,-4.8306,-4.8306,-4.8306,-4.8267,-4.8149,-4.813,-4.811,-4.8032,-4.8032,-4.801,-4.7943,-4.7647,-4.6844,-4.5276,-4.4369,-4.3607,-4.2955,-4.2901,-4.2901,-4.2901,-4.2901,-4.2901,-4.2901,-4.2901,-4.2574,-4.1904,-4.1089,-4.0329,-3.9568,-3.8788,-3.8267,-3.8036,-3.8001,-3.7915,-3.7757,-3.7721,-3.7685,-3.7613,-3.7595,-3.7595,-3.7595,-3.7595,-3.7522,-3.7429,-3.7411,-3.7298,-3.7127,-3.7108,-3.705,-3.7009,-3.6989,-3.7007,-3.7007,-3.7007,-3.7007,-3.7007,-3.7007,-3.7007,-3.7007,-3.7007,-3.7007,-3.6968,-3.6786,-3.6725,-3.6722,-3.6722,-3.6702,-3.6681,-3.6544,-3.6523,-3.6502,-3.6402,-3.6446,-3.6753,-3.7431,-3.7616,-3.7961,-3.8703,-3.8927,-3.8928,-3.8797,-3.8647,-3.854,-3.8476,-3.8374,-3.8302,-3.8278,-3.8747,-3.9009,-3.8984,-3.9367,-3.9554,-3.9501,-3.9395,-3.9325,-3.9299,-3.9121,-3.8969,-3.8832,-3.8832,-3.8766,-3.8644,-3.8644,-3.856,-3.842,-3.842,-3.842,-3.8391,-3.8391,-3.8391,-3.8391,-3.8391,-3.8391,-3.8391,-4.8306,-4.8306,-4.8306,-4.8306,-4.8306,-4.8287,-4.8267,-4.8267,-4.8267,-4.8187,-4.8168,-4.8128,-4.801,-4.669,-4.5449,-4.4522,-4.3591,-4.3028,-4.2919,-4.2901,-4.2901,-4.2901,-4.2901,-4.2901,-4.2901,-4.2901,-4.2865,-4.2737,-4.1922,-4.1126,-4.0329,-3.9586,-3.8862,-3.8157,-3.8053,-3.7984,-3.7949,-3.7774,-3.7685,-3.7667,-3.7613,-3.7595,-3.7595,-3.7595,-3.7577,-3.7558,-3.7448,-3.7336,-3.7259,-3.7147,-3.7089,-3.7069,-3.7009,-3.7007,-3.7007,-3.7007,-3.7007,-3.7007,-3.7007,-3.7007,-3.7007,-3.7007,-3.7007,-3.6987,-3.6968,-3.6869,-3.6788,-3.6788,-3.6745,-3.6702,-3.6681,-3.6664,-3.6681,-3.6643,-3.7082,-3.7447,-3.7573,-3.8091,-3.8715,-3.9457,-4.0187,-4.0554,-4.0412,-4.0364,-4.0243,-4.0024,-3.9974,-3.9925,-3.9808,-3.9884,-3.986,-3.9749,-3.9825,-3.972,-3.9501,-3.9475,-3.9405,-3.9299,-3.9272,-3.9148,-3.8969,-3.8969,-3.8887,-3.8777,-3.8777,-3.8711,-3.856,-3.856,-3.8504,-3.8391,-3.8391,-3.8391,-3.8391,-3.8391,-3.8391,-3.8391,-4.8306,-4.8306,-4.8306,-4.8306,-4.8306,-4.8306,-4.8306,-4.8306,-4.8287,-4.8267,-4.7862,-4.7549,-4.7452,-4.5913,-4.4744,-4.4379,-4.356,-4.3068,-4.3068,-4.3031,-4.3012,-4.3012,-4.2938,-4.2901,-4.2901,-4.2901,-4.2901,-4.2901,-4.2103,-4.1288,-4.0474,-3.9749,-3.897,-3.8209,-3.814,-3.807,-3.8001,-3.7915,-3.781,-3.7703,-3.7685,-3.7631,-3.7595,-3.7595,-3.7595,-3.7577,-3.754,-3.7448,-3.7336,-3.728,-3.7223,-3.7203,-3.7182,-3.7106,-3.7068,-3.7068,-3.7029,-3.7007,-3.7007,-3.7007,-3.7007,-3.7007,-3.7007,-3.7007,-3.7007,-3.695,-3.6908,-3.6908,-3.6888,-3.6829,-3.6768,-3.6766,-3.6885,-3.7244,-3.7551,-3.8013,-3.8881,-3.9188,-3.9577,-4.029,-4.0687,-4.0888,-4.0817,-4.0745,-4.0648,-4.0527,-4.0362,-4.0263,-4.0213,-4.0138,-4.007,-4.0011,-3.9952,-3.9849,-3.972,-3.9563,-3.9475,-3.9405,-3.9342,-3.9245,-3.9175,-3.9175,-3.9067,-3.8914,-3.8914,-3.8832,-3.8711,-3.8616,-3.8576,-3.8504,-3.8436,-3.8391,-3.8391,-3.8391,-3.8391,-3.8391]},{"header":{"parameterUnit":"m.s-1","parameterCategory":1,"la1":30.6,"la2":28.766,"lo1":-90.7593,"lo2":-88.6598,"dy":0.0162,"dx":0.0183,"nx":116,"ny":114,"refTime":"2023-07-01T06:00:00:Z","depth":0,"parameterNumber":3,"parameterNumberName":"V-component_of_WINDS"},"data":[0.0,0.0,0.0,0.0,0.0,0.0,0.0,0.0,0.0,0.0,0.0,0.0,0.0,0.0,0.0,0.0,0.0,0.0,0.0,0.0,0.0,0.0,0.0,0.0,0.0,0.0,0.0,0.0,0.0,0.0,0.0,0.0,0.0,0.0,0.0,0.0,0.0,0.0,0.0,0.0,0.0,0.0,0.0,0.0,0.0,0.0,0.0,0.0,0.0,0.0,0.0,0.0,0.0,0.0,0.0,0.0,0.0,0.0,0.0,0.0,0.0,0.0,0.0,0.0,0.0,0.0,0.0,0.0,0.0,0.0,0.0,0.0,0.0,0.0,0.0,0.0,0.0,0.0,0.0,0.0,0.0,0.0,0.0,0.0,0.0,0.0,0.0,0.0,0.0,0.0,0.0,0.0,0.0,0.0,0.0,0.0,0.0,0.0,0.0,0.0,0.0,0.0,0.0,0.0,0.0,0.0,0.0,0.0,0.0,0.0,0.0,0.0,0.0,0.0,0.0,0.0,0.0,0.0,0.0,0.0,0.0,0.0,0.0,0.0,0.0,0.0,0.0,0.0,0.0,0.0,0.0,0.0,0.0,0.0,0.0,0.0,0.0,0.0,0.0,0.0,0.0,0.0,0.0,0.0,0.0,0.0,0.0,0.0,0.0,0.0,0.0,0.0,0.0,0.0,0.0,0.0,0.0,0.0,0.0,0.0,0.0,0.0,0.0,0.0,0.0,0.0,0.0,0.0,0.0,0.0,0.0,0.0,0.0,0.0,0.0,0.0,0.0,0.0,0.0,0.0,0.0,0.0,0.0,0.0,0.0,0.0,0.0,0.0,0.0,0.0,0.0,0.0,0.0,0.0,0.0,0.0,0.0,0.0,0.0,0.0,0.0,0.0,0.0,0.0,0.0,0.0,0.0,0.0,0.0,0.0,0.0,0.0,0.0,0.0,0.0,0.0,0.0,0.0,0.0,0.0,0.0,0.0,0.0,0.0,0.0,0.0,0.0,0.0,0.0,0.0,0.0,0.0,0.0,0.0,0.0,0.0,0.0,0.0,0.0,0.0,0.0,0.0,0.0,0.0,0.0,0.0,0.0,0.0,0.0,0.0,0.0,0.0,0.0,0.0,0.0,0.0,0.0,0.0,0.0,0.0,0.0,0.0,0.0,0.0,0.0,0.0,0.0,0.0,0.0,0.0,0.0,0.0,0.0,0.0,0.0,0.0,0.0,0.0,0.0,0.0,0.0,0.0,0.0,0.0,0.0,0.0,0.0,0.0,0.0,0.0,0.0,0.0,0.0,0.0,0.0,0.0,0.0,0.0,0.0,0.0,0.0,0.0,0.0,0.0,0.0,0.0,0.0,0.0,0.0,0.0,0.0,0.0,0.0,0.0,0.0,0.0,0.0,0.0,0.0,0.0,0.0,0.0,0.0,0.0,0.0,0.0,0.0,0.0,0.0,0.0,0.0,0.0,0.0,0.0,0.0,0.0,0.0,0.0,0.0,0.0,0.0,0.0,0.0,0.0,0.0,0.0,0.0,0.0,0.0,0.0,0.0,0.0,0.0,0.0,0.0,0.0,0.0,0.0,0.0,0.0,0.0,0.0,0.0,0.0,0.0,0.0,0.0,0.0,0.0,0.0,0.0,0.0,0.0,0.0,0.0,0.0,0.0,0.0,0.0,0.0,0.0,0.0,0.0,0.0,0.0,0.0,0.0,0.0,0.0,0.0,0.0,0.0,0.0,0.0,0.0,0.0,0.0,0.0,0.0,0.0,0.0,0.0,0.0,0.0,0.0,0.0,0.0,0.0,0.0,0.0,0.0,0.0,0.0,0.0,0.0,0.0,0.0,0.0,0.0,0.0,0.0,0.0,0.0,0.0,0.0,0.0,0.0,0.0,0.0,0.0,0.0,0.0,0.0,0.0,0.0,0.0,0.0,0.0,0.0,0.0,0.0,0.0,0.0,0.0,0.0,0.0,0.0,0.0,0.0,0.0,0.0,0.0,0.0,0.0,0.0,0.0,0.0,0.0,0.0,0.0,0.0,0.0,0.0,0.0,0.0,0.0,0.0,0.0,0.0,0.0,0.0,0.0,0.0,0.0,0.0,0.0,0.0,0.0,0.0,0.0,0.0,0.0,0.0,0.0,0.0,0.0,0.0,0.0,0.0,0.0,0.0,0.0,0.0,0.0,0.0,0.0,0.0,0.0,0.0,0.0,0.0,0.0,0.0,0.0,0.0,0.0,0.0,0.0,0.0,0.0,0.0,0.0,0.0,0.0,0.0,0.0,0.0,0.0,0.0,0.0,0.0,0.0,0.0,0.0,0.0,0.0,0.0,0.0,0.0,0.0,0.0,0.0,0.0,0.0,0.0,0.0,0.0,0.0,0.0,0.0,0.0,0.0,0.0,0.0,0.0,0.0,0.0,0.0,0.0,0.0,0.0,0.0,0.0,0.0,0.0,0.0,0.0,0.0,0.0,0.0,0.0,0.0,0.0,0.0,0.0,0.0,0.0,0.0,0.0,0.0,0.0,0.0,0.0,0.0,0.0,0.0,0.0,0.0,0.0,0.0,0.0,0.0,0.0,0.0,0.0,0.0,0.0,0.0,0.0,0.0,0.0,0.0,0.0,0.0,0.0,0.0,0.0,0.0,0.0,0.0,0.0,0.0,0.0,0.0,0.0,0.0,0.0,0.0,0.0,0.0,0.0,0.0,0.0,0.0,0.0,0.0,0.0,0.0,0.0,0.0,0.0,0.0,0.0,0.0,0.0,0.0,0.0,0.0,0.0,0.0,0.0,0.0,0.0,0.0,0.0,0.0,0.0,0.0,0.0,0.0,0.0,0.0,0.0,0.0,0.0,0.0,0.0,0.0,0.0,0.0,0.0,0.0,0.0,0.0,0.0,0.0,0.0,0.0,0.0,0.0,0.0,0.0,0.0,0.0,0.0,0.0,0.0,0.0,0.0,0.0,0.0,0.0,0.0,0.0,0.0,0.0,0.0,0.0,0.0,0.0,0.0,0.0,0.0,0.0,0.0,0.0,0.0,0.0,0.0,0.0,0.0,0.0,0.0,0.0,0.0,0.0,0.0,0.0,0.0,0.0,0.0,0.0,0.0,0.0,0.0,0.0,0.0,0.0,0.0,0.0,0.0,0.0,0.0,0.0,0.0,0.0,0.0,0.0,0.0,0.0,0.0,0.0,0.0,0.0,0.0,0.0,0.0,0.0,0.0,0.0,0.0,0.0,0.0,0.0,0.0,0.0,0.0,0.0,0.0,0.0,0.0,0.0,0.0,0.0,0.0,0.0,0.0,0.0,0.0,0.0,0.0,0.0,0.0,0.0,0.0,0.0,0.0,0.0,0.0,0.0,0.0,0.0,0.0,0.0,0.0,0.0,0.0,0.0,0.0,0.0,0.0,0.0,0.0,0.0,0.0,0.0,0.0,0.0,0.0,0.0,0.0,0.0,0.0,0.0,0.0,0.0,0.0,0.0,0.0,0.0,0.0,0.0,0.0,0.0,0.0,0.0,0.0,0.0,0.0,0.0,0.0,0.0,0.0,0.0,0.0,0.0,0.0,0.0,0.0,0.0,0.0,0.0,0.0,0.0,0.0,0.0,0.0,0.0,0.0,0.0,0.0,0.0,0.0,0.0,0.0,0.0,0.0,0.0,0.0,0.0,0.0,0.0,0.0,0.0,0.0,0.0,0.0,0.0,0.0,0.0,0.0,0.0,0.0,0.0,0.0,0.0,0.0,0.0,0.0,0.0,0.0,0.0,0.0,0.0,0.0,0.0,0.0,0.0,0.0,0.0,0.0,0.0,0.0,0.0,0.0,0.0,0.0,0.0,0.0,0.0,0.0,0.0,0.0,0.0,0.0,0.0,0.0,0.0,0.0,0.0,0.0,0.0,0.0,0.0,0.0,0.0,0.0,0.0,0.0,0.0,0.0,0.0,0.0,0.0,0.0,0.0,0.0,0.0,0.0,0.0,0.0,0.0,0.0,0.0,0.0,0.0,0.0,0.0,0.0,0.0,0.0,0.0,0.0,0.0,0.0,0.0,0.0,0.0,0.0,0.0,0.0,0.0,0.0,0.0,0.0,0.0,0.0,0.0,0.0,0.0,0.0,0.0,0.0,0.0,0.0,0.0,0.0,0.0,0.0,0.0,0.0,0.0,0.0,0.0,0.0,0.0,0.0,0.0,0.0,0.0,0.0,0.0,0.0,0.0,0.0,0.0,0.0,0.0,0.0,0.0,0.0,0.0,0.0,0.0,0.0,0.0,0.0,0.0,0.0,0.0,0.0,0.0,0.0,0.0,0.0,0.0,0.0,0.0,0.0,0.0,0.0,0.0,0.0,0.0,0.0,0.0,0.0,0.0,0.0,0.0,0.0,0.0,0.0,0.0,0.0,0.0,0.0,0.0,0.0,0.0,0.0,0.0,0.0,0.0,0.0,0.0,0.0,0.0,0.0,0.0,0.0,0.0,0.0,0.0,0.0,0.0,0.0,0.0,0.0,0.0,0.0,0.0,0.0,0.0,0.0,0.0,0.0,0.0,0.0,0.0,0.0,0.0,0.0,0.0,0.0,0.0,0.0,0.0,0.0,0.0,0.0,0.0,0.0,0.0,0.0,0.0,0.0,0.0,0.0,0.0,0.0,0.0,0.0,0.0,0.0,0.0,0.0,0.0,0.0,0.0,0.0,0.0,0.0,0.0,0.0,0.0,0.0,0.0,0.0,0.0,0.0,0.0,0.0,0.0,0.0,0.0,0.0,0.0,0.0,0.0,0.0,0.0,0.0,0.0,0.0,0.0,0.0,0.0,0.0,0.0,0.0,0.0,0.0,0.0,0.0,0.0,0.0,0.0,0.0,0.0,0.0,0.0,0.0,0.0,0.0,0.0,0.0,0.0,0.0,0.0,0.0,0.0,0.0,0.0,0.0,0.0,0.0,0.0,0.0,0.0,0.0,0.0,0.0,0.0,0.0,0.0,0.0,0.0,0.0,0.0,0.0,0.0,0.0,0.0,0.0,0.0,0.0,0.0,0.0,0.0,0.0,0.0,0.0,0.0,0.0,0.0,0.0,0.0,0.0,0.0,0.0,0.0,0.0,0.0,0.0,0.0,0.0,0.0,0.0,0.0,0.0,0.0,0.0,0.0,0.0,0.0,0.0,0.0,0.0,0.0,0.0,0.0,0.0,0.0,0.0,0.0,0.0,0.0,0.0,0.0,0.0,0.0,0.0,0.0,0.0,0.0,0.0,0.0,0.0,0.0,0.0,0.0,0.0,0.0,0.0,0.0,0.0,0.0,0.0,0.0,0.0,0.0,0.0,0.0,0.0,0.0,0.0,0.0,0.0,0.0,0.0,0.0,0.0,0.0,0.0,0.0,0.0,0.0,0.0,0.0,0.0,0.0,0.0,0.0,0.0,0.0,0.0,0.0,0.0,0.0,0.0,0.0,0.0,0.0,0.0,0.0,0.0,0.0,0.0,0.0,0.0,0.0,0.0,0.0,0.0,0.0,0.0,0.0,0.0,0.0,0.0,0.0,0.0,0.0,0.0,0.0,0.0,0.0,0.0,0.0,0.0,0.0,0.0,0.0,0.0,0.0,0.0,0.0,0.0,0.0,0.0,0.0,0.0,0.0,0.0,0.0,0.0,0.0,0.0,0.0,0.0,0.0,0.0,0.0,0.0,0.0,0.0,0.0,0.0,0.0,0.0,0.0,0.0,0.0,0.0,0.0,0.0,0.0,0.0,0.0,0.0,0.0,0.0,0.0,0.0,0.0,0.0,0.0,0.0,0.0,0.0,0.0,0.0,0.0,0.0,0.0,0.0,0.0,0.0,0.0,0.0,0.0,0.0,0.0,0.0,0.0,0.0,0.0,0.0,0.0,0.0,0.0,0.0,0.0,0.0,0.0,0.0,0.0,0.0,0.0,0.0,0.0,0.0,0.0,0.0,0.0,0.0,0.0,0.0,0.0,0.0,0.0,0.0,0.0,0.0,0.0,0.0,0.0,0.0,0.0,0.0,0.0,0.0,0.0,0.0,0.0,0.0,0.0,0.0,0.0,0.0,0.0,0.0,0.0,0.0,0.0,0.0,0.0,0.0,0.0,-1.6035,-1.5366,0.0,0.0,0.0,0.0,0.0,0.0,0.0,0.0,0.0,0.0,0.0,0.0,0.0,0.0,0.0,0.0,0.0,0.0,0.0,0.0,0.0,0.0,0.0,0.0,0.0,0.0,0.0,0.0,0.0,0.0,0.0,0.0,0.0,0.0,0.0,0.0,0.0,0.0,-0.7159,-0.7812,-0.8443,-0.7612,-0.7319,-0.7523,0.0,0.0,0.0,0.0,0.0,0.0,0.0,0.0,0.0,0.0,0.0,0.0,0.0,0.0,0.0,0.0,0.0,0.0,0.0,0.0,0.0,0.0,0.0,0.0,0.0,0.0,0.0,0.0,0.0,0.0,0.0,0.0,0.0,0.0,0.0,0.0,0.0,0.0,0.0,0.0,0.0,0.0,0.0,0.0,0.0,0.0,0.0,0.0,0.0,0.0,0.0,0.0,0.0,0.0,0.0,0.0,0.0,0.0,0.0,0.0,0.0,0.0,0.0,0.0,0.0,0.0,0.0,0.0,0.0,0.0,-1.8012,-1.7056,0.0,0.0,0.0,0.0,0.0,0.0,0.0,0.0,0.0,0.0,0.0,0.0,0.0,0.0,0.0,0.0,0.0,0.0,0.0,0.0,0.0,0.0,0.0,0.0,-0.3289,-0.3489,-0.3689,-0.4035,0.0,0.0,0.0,0.0,0.0,0.0,0.0,0.0,0.0,0.0,-0.8128,-0.8889,-0.9665,-0.9677,-0.9541,-0.9289,-0.9178,0.0,0.0,0.0,0.0,0.0,0.0,0.0,0.0,0.0,0.0,0.0,0.0,0.0,0.0,0.0,0.0,0.0,0.0,0.0,0.0,0.0,0.0,0.0,0.0,0.0,0.0,0.0,0.0,0.0,0.0,0.0,0.0,0.0,0.0,0.0,0.0,0.0,0.0,0.0,0.0,0.0,0.0,0.0,0.0,0.0,0.0,0.0,0.0,0.0,0.0,0.0,0.0,0.0,0.0,0.0,0.0,0.0,0.0,0.0,0.0,0.0,0.0,0.0,-2.04,-2.0749,-2.1331,-2.1331,-2.1742,-2.2345,-2.0573,-1.9531,-1.9123,-1.9061,0.0,0.0,0.0,0.0,0.0,0.0,0.0,0.0,0.0,0.0,0.0,0.0,0.0,0.0,0.0,0.0,0.0,0.0,0.0,0.0,0.0,-0.3458,-0.3819,-0.4306,-0.4524,-0.4743,0.0,0.0,0.0,0.0,0.0,0.0,0.0,-0.737,-0.775,-0.7829,-0.9009,-1.0113,-1.1119,-1.118,-1.1215,-1.1202,-1.0392,-0.9804,-0.9414,0.0,0.0,0.0,0.0,0.0,0.0,0.0,0.0,0.0,0.0,0.0,0.0,0.0,0.0,0.0,0.0,0.0,0.0,0.0,0.0,0.0,0.0,0.0,0.0,0.0,0.0,0.0,0.0,0.0,0.0,0.0,0.0,0.0,0.0,0.0,0.0,0.0,0.0,0.0,0.0,0.0,-1.2221,-1.2323,0.0,0.0,0.0,0.0,0.0,0.0,0.0,0.0,0.0,0.0,0.0,0.0,0.0,-1.9775,-1.9848,-2.0975,-2.163,-2.1737,-2.2255,-2.2851,-2.3493,-2.3493,-2.3891,-2.4574,-2.429,0.0,-2.1203,-2.1186,0.0,0.0,0.0,0.0,0.0,0.0,0.0,0.0,0.0,0.0,0.0,0.0,0.0,0.0,0.0,0.0,0.0,0.0,0.0,0.0,0.0,-0.3991,-0.4413,-0.4803,-0.5232,-0.5582,-0.5816,-0.6025,0.0,0.0,0.0,0.0,-0.7134,-0.8061,-0.8885,-0.9595,-1.0479,-1.1363,-1.218,-1.2559,-1.2918,-1.3208,-1.2805,-1.1938,-1.0767,-1.0431,0.0,0.0,0.0,0.0,0.0,0.0,0.0,0.0,0.0,0.0,0.0,0.0,0.0,0.0,0.0,0.0,0.0,0.0,0.0,0.0,0.0,0.0,0.0,0.0,0.0,0.0,0.0,0.0,0.0,0.0,0.0,0.0,0.0,0.0,0.0,0.0,0.0,0.0,0.0,-1.231,-1.3309,-1.369,-1.4697,-1.5366,0.0,0.0,0.0,0.0,0.0,0.0,0.0,0.0,0.0,-2.0331,-2.0974,-2.1648,-2.24,-2.2954,-2.3583,-2.4309,-2.453,-2.5013,-2.5708,-2.5708,-2.5866,-2.6167,-2.6167,-2.5527,-2.44,-2.36,-2.2987,-2.2501,0.0,0.0,0.0,0.0,-2.1427,-2.1427,0.0,0.0,0.0,0.0,0.0,0.0,0.0,0.0,0.0,0.0,0.0,0.0,-0.3873,-0.4468,-0.494,-0.5211,-0.5706,-0.6104,-0.6358,-0.6571,0.0,0.0,0.0,-0.7618,-0.7729,-0.9001,-1.0197,-1.1258,-1.1849,-1.2472,-1.3089,-1.3543,-1.3968,-1.4364,-1.4415,-1.3637,-1.2276,-1.1688,-1.1175,-1.0699,0.0,0.0,0.0,0.0,0.0,0.0,0.0,0.0,0.0,0.0,0.0,0.0,0.0,0.0,0.0,0.0,0.0,0.0,0.0,0.0,0.0,0.0,0.0,0.0,0.0,0.0,0.0,0.0,0.0,0.0,0.0,0.0,0.0,0.0,0.0,0.0,0.0,-1.3811,-1.4547,-1.5047,-1.5964,-1.6636,0.0,0.0,0.0,0.0,0.0,0.0,-2.0511,-2.0879,-2.155,-2.2605,-2.2989,-2.3658,-2.4675,-2.4808,-2.5389,-2.6344,-2.6472,-2.6909,-2.7636,-2.781,-2.8,-2.8158,-2.8158,-2.8007,-2.7609,-2.5856,-2.5015,-2.4795,-2.4271,-2.4071,-2.4025,-2.3517,-2.3352,-2.3352,0.0,0.0,0.0,0.0,0.0,0.0,0.0,0.0,0.0,0.0,0.0,-0.3896,-0.4237,-0.4814,-0.5276,-0.5554,-0.5833,-0.6089,-0.6292,-0.6557,-0.6759,-0.689,-0.7953,-0.8566,-0.8637,-1.031,-1.152,-1.2235,-1.2768,-1.3302,-1.3846,-1.387,-1.3934,-1.4038,-1.4149,-1.4017,-1.3661,-1.3116,-1.2656,-1.215,-1.0509,0.0,0.0,0.0,0.0,0.0,0.0,0.0,0.0,0.0,0.0,0.0,0.0,0.0,0.0,0.0,0.0,0.0,0.0,0.0,0.0,0.0,0.0,0.0,0.0,0.0,0.0,0.0,0.0,0.0,0.0,0.0,0.0,0.0,0.0,0.0,0.0,0.0,0.0,-1.6499,-1.7771,0.0,0.0,0.0,0.0,-2.0799,-2.1534,-2.195,-2.1982,-2.3261,-2.401,-2.4092,-2.5384,-2.6062,-2.5989,-2.6713,-2.7047,-2.7067,-2.7683,-2.8363,-2.9019,-2.9722,-3.0385,-3.0977,-3.0977,-3.0854,-3.0386,-2.7687,-2.6479,-2.6272,-2.6188,-2.6195,-2.6226,-2.6217,-2.618,-2.618,0.0,0.0,0.0,0.0,0.0,0.0,0.0,0.0,-0.2229,-0.2782,-0.3411,-0.3948,-0.4324,-0.5096,-0.5697,-0.5962,-0.6659,-0.7209,-0.7502,-0.798,-0.8344,-0.8565,-0.9045,-0.9675,-1.048,-1.1246,-1.2035,-1.2887,-1.3798,-1.4408,-1.4701,-1.5428,-1.5835,-1.5938,-1.5984,-1.5946,-1.5773,-1.4501,-1.3483,-1.2671,-1.2073,-1.1476,0.0,0.0,0.0,0.0,0.0,0.0,0.0,0.0,0.0,0.0,0.0,0.0,0.0,0.0,0.0,0.0,0.0,0.0,0.0,0.0,0.0,0.0,0.0,0.0,0.0,0.0,0.0,0.0,0.0,0.0,0.0,0.0,0.0,0.0,0.0,0.0,0.0,-1.8552,-1.9498,0.0,-2.1065,-2.1556,-2.2145,-2.2825,-2.3111,-2.365,-2.4572,-2.5096,-2.5588,-2.6064,-2.6968,-2.7644,-2.8022,-2.8763,-2.9342,-2.9753,-2.999,-3.0227,-3.0456,-3.0733,-3.0986,-3.1198,-3.1099,-3.0958,-3.0713,-2.9648,-2.9113,-2.8925,-2.8464,-2.8319,-2.8288,-2.7857,-2.7688,-2.7688,0.0,0.0,0.0,0.0,0.0,0.0,0.0,0.0,-0.2352,-0.3045,-0.362,-0.416,-0.4659,-0.5568,-0.625,-0.6517,-0.7372,-0.8025,-0.8311,-0.8795,-0.918,-0.9453,-0.9929,-1.0677,-1.1654,-1.2177,-1.284,-1.3628,-1.462,-1.5231,-1.5495,-1.6251,-1.6635,-1.6723,-1.6822,-1.6872,-1.6803,-1.5775,-1.4776,-1.3836,-1.3289,-1.2604,-1.181,0.0,0.0,0.0,0.0,0.0,0.0,0.0,0.0,0.0,0.0,0.0,0.0,0.0,0.0,0.0,0.0,0.0,0.0,0.0,0.0,0.0,0.0,0.0,0.0,0.0,0.0,0.0,0.0,0.0,0.0,0.0,0.0,0.0,0.0,0.0,-1.9153,-2.0368,-2.13,-2.2122,-2.2817,-2.3528,-2.4223,-2.493,-2.4977,-2.5503,-2.6656,-2.6925,-2.7383,-2.8126,-2.8805,-2.9374,-2.9793,-3.0291,-3.0765,-3.1198,-3.146,-3.1571,-3.1571,-3.1808,-3.1893,-3.1842,-3.1756,-3.1586,-3.1415,-3.1311,-3.1195,-3.0971,-3.0079,-2.9725,-2.9679,-2.9258,-2.9064,-2.9064,0.0,0.0,0.0,0.0,0.0,0.0,0.0,-0.1885,-0.2411,-0.3289,-0.3924,-0.4543,-0.5218,-0.6191,-0.69,-0.7165,-0.7877,-0.8403,-0.8602,-0.8879,-0.9155,-0.944,-1.0573,-1.1476,-1.2023,-1.3119,-1.3959,-1.45,-1.5185,-1.576,-1.6204,-1.6216,-1.6252,-1.6252,-1.6519,-1.6619,-1.6644,-1.6895,-1.6539,-1.571,-1.411,-1.324,-1.2866,0.0,0.0,0.0,0.0,0.0,0.0,0.0,0.0,0.0,0.0,0.0,0.0,0.0,0.0,0.0,0.0,0.0,0.0,0.0,0.0,0.0,0.0,0.0,0.0,0.0,0.0,0.0,0.0,0.0,0.0,0.0,0.0,0.0,-1.9703,-2.03,-2.1088,-2.1883,-2.3146,-2.4235,-2.4985,-2.5645,-2.6356,-2.7115,-2.7162,-2.7478,-2.8158,-2.8798,-2.9477,-3.022,-3.0875,-3.1214,-3.1214,-3.1246,-3.1286,-3.1318,-3.2023,-3.237,-3.2418,-3.3056,-3.3292,-3.3159,-3.3132,-3.2971,-3.2683,-3.2655,-3.2585,-3.2321,-3.0971,-3.0463,-3.0463,-3.0463,-3.0463,-3.0463,0.0,0.0,0.0,0.0,0.0,0.0,0.0,-0.1965,-0.2501,-0.3233,-0.3847,-0.4455,-0.509,-0.601,-0.6726,-0.709,-0.7981,-0.8647,-0.894,-0.9478,-1.0059,-1.0683,-1.1211,-1.186,-1.2643,-1.3487,-1.4157,-1.4653,-1.5508,-1.6103,-1.6444,-1.6818,-1.7092,-1.7308,-1.7351,-1.7404,-1.7382,-1.7051,-1.6925,-1.6784,-1.5401,-1.4367,-1.3571,0.0,0.0,0.0,0.0,0.0,0.0,0.0,0.0,0.0,0.0,0.0,0.0,0.0,0.0,0.0,0.0,0.0,0.0,0.0,0.0,0.0,0.0,0.0,0.0,0.0,0.0,0.0,0.0,0.0,0.0,0.0,0.0,-2.085,-2.0255,-2.1693,-2.3073,-2.3768,-2.4708,-2.557,-2.6314,-2.663,-2.7288,-2.8451,-2.8546,-2.9067,-3.0291,-3.0519,-3.0709,-3.0923,-3.1602,-3.2007,-3.2007,-3.2471,-3.2977,-3.3451,-3.364,-3.4047,-3.4541,-3.4589,-3.4584,-3.4528,-3.4347,-3.4221,-3.4136,-3.4021,-3.3964,-3.3796,-3.2382,-3.1859,-3.1859,-3.1859,-3.1859,-3.1859,0.0,0.0,0.0,0.0,0.0,0.0,0.0,-0.1998,-0.2545,-0.3244,-0.3841,-0.4428,-0.5033,-0.5962,-0.6729,-0.7187,-0.8036,-0.8728,-0.9155,-0.9911,-1.0564,-1.1053,-1.163,-1.2274,-1.2998,-1.3754,-1.444,-1.5112,-1.5786,-1.6282,-1.6623,-1.6942,-1.7183,-1.7323,-1.7462,-1.7518,-1.7523,-1.7305,-1.7193,-1.7066,-1.6331,-1.5441,-1.451,-1.4308,-1.382,-1.3182,-1.2787,-1.2362,-1.191,-1.1474,0.0,0.0,0.0,0.0,0.0,0.0,0.0,0.0,0.0,0.0,0.0,0.0,0.0,0.0,0.0,0.0,0.0,0.0,0.0,0.0,0.0,0.0,0.0,0.0,-2.18,-2.2478,-2.2375,-2.3297,-2.4346,-2.5352,-2.6389,-2.7183,-2.7606,-2.8246,-2.8983,-2.9744,-2.9863,-3.0383,-3.1486,-3.1624,-3.1918,-3.2487,-3.2898,-3.3288,-3.3604,-3.3972,-3.4383,-3.4747,-3.4747,-3.494,-3.5279,-3.515,-3.5036,-3.4922,-3.4765,-3.4665,-3.4606,-3.4534,-3.4505,-3.4428,0.0,0.0,0.0,0.0,-3.2813,-3.2782,0.0,0.0,0.0,0.0,0.0,0.0,0.0,-0.1981,-0.2544,-0.3268,-0.3841,-0.4415,-0.5004,-0.5962,-0.6765,-0.7272,-0.8,-0.8682,-0.9253,-1.0156,-1.0721,-1.0914,-1.1832,-1.2625,-1.3222,-1.3936,-1.4733,-1.5625,-1.5913,-1.632,-1.6761,-1.6761,-1.6761,-1.6807,-1.7099,-1.725,-1.725,-1.749,-1.7361,-1.6937,-1.6937,-1.6378,-1.5509,-1.545,-1.4941,-1.418,-1.3724,-1.3299,-1.2912,-1.2562,0.0,0.0,0.0,0.0,0.0,0.0,0.0,0.0,0.0,0.0,0.0,0.0,0.0,0.0,0.0,0.0,0.0,0.0,0.0,0.0,0.0,0.0,0.0,0.0,-2.3406,-2.4655,-2.5314,-2.5127,-2.5412,-2.6725,-2.8085,-2.8918,-2.8918,-3.0055,-3.0818,-3.0922,-3.1023,-3.1381,-3.2081,0.0,0.0,0.0,0.0,-3.4676,-3.5351,-3.5322,-3.537,-3.5449,-3.5449,-3.5424,-3.53,-3.53,-3.5156,-3.4911,-3.4911,-3.4838,-3.4736,-3.4736,-3.4736,-3.472,-3.4566,-3.4505,-3.4428,-3.3767,-3.3521,-3.3444,0.0,0.0,0.0,0.0,0.0,0.0,0.0,-0.1874,-0.2383,-0.3063,-0.3713,-0.4306,-0.4803,-0.5716,-0.6403,-0.6717,-0.7585,-0.8442,-0.9253,-0.9969,-1.0578,-1.1035,-1.1717,-1.2516,-1.342,-1.4069,-1.469,-1.5305,-1.5715,-1.611,-1.6488,-1.6488,-1.6602,-1.6818,-1.6874,-1.6902,-1.6902,-1.6959,-1.7073,-1.7208,-1.7208,-1.6799,-1.617,-1.5853,-1.5453,-1.504,-1.4716,-1.4325,-1.3924,-1.3951,-1.3447,-1.2788,-1.2872,0.0,0.0,0.0,0.0,0.0,0.0,0.0,0.0,0.0,0.0,0.0,0.0,0.0,0.0,0.0,0.0,0.0,0.0,0.0,0.0,-2.3375,-2.4682,-2.6069,-2.727,-2.7474,-2.7632,-2.8028,-2.9345,-3.0225,-3.0225,-3.0581,-3.1005,-3.1561,-3.1633,-3.1972,-3.2674,-3.3279,-3.3701,-3.3966,-3.451,-3.4854,-3.4995,-3.4995,-3.5276,-3.5794,-3.5794,0.0,-3.6624,-3.6442,-3.6351,-3.6306,-3.6214,-3.6122,-3.6107,-3.6107,-3.6107,-3.603,-3.4936,-3.4505,-3.4489,-3.4351,-3.4305,-3.4274,0.0,0.0,0.0,0.0,0.0,0.0,0.0,-0.1812,-0.2257,-0.282,-0.3391,-0.396,-0.4486,-0.5168,-0.5825,-0.6392,-0.7399,-0.8326,-0.9102,-0.9878,-1.048,-1.087,-1.164,-1.2497,-1.3475,-1.3927,-1.449,-1.5213,-1.5602,-1.5885,-1.6058,-1.6116,-1.623,-1.6335,-1.641,-1.6495,-1.6602,-1.6666,-1.6835,-1.7043,-1.7043,-1.6972,-1.6826,-1.6602,-1.6115,-1.5556,-1.5518,-1.5095,-1.4555,-1.4666,-1.4274,-1.3773,-1.3914,-1.3631,-1.3221,0.0,0.0,0.0,0.0,0.0,0.0,0.0,0.0,0.0,0.0,0.0,0.0,0.0,0.0,-2.0089,0.0,0.0,-2.3873,-2.4933,-2.6101,-2.7255,-2.8253,-2.9093,-2.9526,-2.9317,-3.0315,-3.0994,-3.0994,-3.1356,-3.1738,-3.209,-3.2486,-3.2913,-3.327,-3.3979,-3.4537,-3.488,-3.5223,-3.5595,-3.5954,-3.5954,-3.6126,-3.6439,-3.6439,-3.658,-3.6862,-3.6754,-3.6662,-3.6616,-3.6523,-3.6492,-3.6492,-3.6492,-3.6492,-3.643,-3.5753,-3.5506,-3.5475,-3.5136,-3.5013,-3.4951,0.0,0.0,0.0,0.0,0.0,0.0,0.0,-0.1757,-0.2134,-0.2613,-0.3106,-0.3596,-0.4115,-0.4644,-0.5328,-0.6228,-0.7245,-0.8092,-0.8739,-0.9675,-1.031,-1.0588,-1.1492,-1.2452,-1.3413,-1.3648,-1.4229,-1.5088,-1.541,-1.5585,-1.5624,-1.5711,-1.5798,-1.5885,-1.598,-1.6134,-1.6316,-1.642,-1.6552,-1.6733,-1.6733,-1.6902,-1.7196,-1.7109,-1.6565,-1.5883,-1.6007,-1.5566,-1.4955,-1.5093,-1.4871,-1.4554,-1.4745,-1.4789,-1.4731,-1.4473,-1.4505,0.0,0.0,0.0,0.0,0.0,0.0,0.0,0.0,0.0,-1.8635,-2.0116,-2.0483,-2.1135,-2.3067,-2.3731,-2.4548,-2.6258,-2.73,-2.8181,-2.8978,-3.0177,-3.0843,-3.0552,-3.1114,-3.1516,-3.1516,-3.202,-3.2432,-3.2555,-3.3234,-3.3689,-3.3844,-3.4594,-3.5274,-3.5789,-3.5944,-3.6286,-3.6908,-3.6908,-3.6908,-3.6908,-3.6908,-3.68,-3.6662,-3.6662,-3.66,-3.6492,-3.6492,-3.6492,-3.6492,-3.646,-3.6445,-3.6445,-3.6429,-3.6398,-3.6368,-3.5876,-3.5676,-3.5629,0.0,0.0,0.0,0.0,0.0,0.0,0.0,0.0,-0.201,-0.2544,-0.3076,-0.347,-0.3652,-0.4367,-0.5229,-0.6212,-0.6851,-0.7441,-0.7996,-0.9179,-0.997,-1.0245,-1.1092,-1.2067,-1.3104,-1.3286,-1.3821,-1.4745,-1.497,-1.5147,-1.5244,-1.5274,-1.5449,-1.5711,-1.573,-1.5827,-1.5953,-1.5972,-1.6144,-1.6431,-1.6431,-1.6602,-1.6849,-1.6656,-1.6406,-1.6137,-1.5917,-1.551,-1.514,-1.5509,-1.5317,-1.4959,-1.5092,-1.4926,-1.4722,-1.4744,0.0,-1.5151,-1.528,-1.5883,-1.651,-1.6672,-1.767,-1.8728,0.0,0.0,-2.0429,-2.1894,-2.2359,-2.2913,-2.436,-2.5218,-2.601,-2.688,-2.7754,-2.8747,-2.9967,-3.0531,-3.1011,-3.1554,-3.1817,-3.1931,-3.1931,-3.2104,-3.2463,-3.306,-3.331,-3.3719,-3.438,-3.5058,-3.5459,-3.5536,-3.6122,-3.6477,-3.6554,-3.6554,-3.6554,-3.6554,-3.6554,-3.6554,-3.6523,-3.6523,-3.6523,-3.6492,-3.6492,-3.6492,-3.6492,-3.6305,-3.6242,-3.6211,-3.61,-3.6068,-3.6085,-3.6306,-3.6384,-3.6368,0.0,0.0,0.0,0.0,0.0,0.0,0.0,0.0,0.0,0.0,-0.2713,-0.3117,-0.3447,-0.4267,-0.5078,-0.578,-0.6328,-0.6942,-0.7667,-0.8478,-0.9196,-0.9817,-1.0508,-1.1318,-1.2262,-1.2494,-1.3012,-1.3821,-1.4101,-1.4434,-1.4775,-1.4872,-1.5049,-1.5293,-1.5293,-1.541,-1.5604,-1.5604,-1.5817,-1.6116,-1.6116,-1.6133,-1.6144,-1.6081,-1.5794,-1.5466,-1.5585,-1.5404,0.0,0.0,-1.5384,-1.5425,-1.5521,-1.5514,-1.5499,-1.5728,-1.5885,0.0,-1.6809,-1.7568,0.0,0.0,-1.8857,-1.9557,-2.0464,-2.1004,-2.1685,-2.3086,-2.35,-2.394,-2.5066,-2.5593,-2.6239,0.0,-2.8245,-2.9121,-3.0052,-3.0625,-3.1111,-3.1466,-3.1553,-3.1697,-3.1968,-3.2038,-3.2368,-3.3038,-3.3508,-3.4057,-3.4744,-3.5493,-3.5922,-3.5922,-3.6307,-3.6492,-3.6492,-3.6492,-3.6692,-3.7076,-3.7076,-3.7292,-3.7661,-3.7661,-3.7382,-3.6903,-3.6838,-3.6576,-3.6195,-3.6132,-3.6085,-3.6085,-3.6037,-3.6005,-3.6037,-3.6242,-3.6352,-3.6352,0.0,0.0,0.0,0.0,0.0,0.0,0.0,0.0,0.0,0.0,-0.2361,-0.2772,-0.3334,-0.4041,-0.4686,-0.5239,-0.5755,-0.6365,-0.71,-0.7798,-0.8474,-0.9177,-0.988,-1.0615,-1.1426,-1.1773,-1.2249,-1.2926,-1.3256,-1.3661,-1.4157,-1.4275,-1.4516,-1.4852,-1.4852,-1.502,-1.5303,-1.5303,-1.5419,-1.5608,-1.5608,-1.5517,-1.5402,-1.5322,-1.5065,-1.48,-1.5216,-1.5216,-1.4983,-1.5062,-1.5289,-1.5547,-1.5726,-1.5859,-1.6025,-1.6457,-1.676,-1.7128,-1.8028,0.0,0.0,-1.9817,-2.022,-2.0796,-2.182,-2.2207,-2.2745,-2.3968,-2.4317,-2.468,-2.558,-2.5862,-2.6396,-2.7833,-2.8583,-2.9295,-3.0176,-3.0749,-3.1146,-3.1234,-3.1234,-3.138,-3.1712,-3.2006,-3.2485,-3.3167,-3.3894,-3.4577,-3.5245,-3.5826,-3.6148,-3.6148,-3.6289,-3.6367,-3.6367,-3.6551,-3.6872,-3.7347,-3.7531,-3.7868,-3.8328,-3.8328,-3.8002,-3.7382,-3.7114,-3.6732,-3.6246,-3.6017,-3.5926,-3.5894,-3.5878,-3.5861,-3.5893,-3.6022,-3.6116,-3.6179,0.0,0.0,0.0,0.0,0.0,0.0,0.0,0.0,0.0,0.0,0.0,0.0,0.0,-0.3549,-0.3936,-0.466,-0.5154,-0.561,-0.6015,-0.7151,-0.7933,-0.8219,-0.9259,-1.0088,-1.0726,-1.1252,-1.1743,-1.2239,-1.2562,-1.2921,-1.3243,-1.3396,-1.3832,-1.4529,-1.4529,-1.4686,-1.5,-1.5,-1.4936,-1.4833,-1.4833,-1.476,-1.4615,-1.4419,-1.4324,-1.4378,-1.4933,-1.4895,-1.4673,-1.4994,-1.5108,-1.5198,-1.5582,-1.576,0.0,-1.6598,-1.7388,-1.814,0.0,0.0,-2.0595,-2.081,-2.1885,-2.2936,-2.3121,-2.3265,-2.3638,-2.4575,-2.4873,-2.5188,-2.5942,-2.619,-2.678,-2.8238,-2.861,-2.9202,-3.0587,-3.0969,-3.1117,-3.1117,-3.1117,-3.1102,0.0,-3.2064,-3.2975,-3.3713,-3.4516,-3.5276,-3.5944,-3.599,-3.6005,-3.6005,-3.6005,-3.6005,-3.6005,-3.6641,-3.7005,-3.7021,-3.761,-3.7898,-3.7928,-3.7928,-3.7898,-3.7867,-3.7246,-3.6973,-3.6897,-3.6071,-3.572,-3.5703,-3.5587,-3.5504,-3.5537,-3.5671,-3.5831,-3.6037,0.0,0.0,0.0,0.0,0.0,0.0,0.0,0.0,0.0,0.0,0.0,0.0,0.0,0.0,0.0,0.0,-0.4541,-0.5095,-0.5446,-0.6142,-0.6891,-0.7709,-0.8206,-0.8807,-0.9499,-1.0063,-1.059,-1.1076,-1.1509,-1.1999,-1.2549,-1.2653,-1.2928,-1.3323,-1.3408,-1.3606,-1.3867,-1.3867,-1.3978,-1.4148,-1.4229,-1.4102,-1.3852,-1.3601,-1.3457,-1.3351,0.0,-1.3765,-1.45,-1.4708,-1.4914,-1.5131,-1.5266,-1.5503,-1.5878,-1.6599,-1.7697,-1.8782,0.0,0.0,-2.1186,-2.1707,-2.2286,-2.2897,-2.3528,-2.3771,-2.4096,-2.4888,-2.5218,-2.5451,-2.5892,-2.6002,-2.6394,-2.7538,-2.8082,-2.8685,-2.9606,-3.0231,-3.0612,-3.0762,-3.0851,0.0,0.0,0.0,0.0,-3.3408,-3.4098,-3.482,-3.5621,-3.575,-3.5799,-3.5799,-3.5941,-3.6201,-3.6656,-3.6899,-3.7461,-3.8341,-3.8975,-3.9278,-3.9278,-3.9158,-3.8847,-3.8409,-3.8095,-3.768,-3.7214,-3.6535,-3.6232,-3.6187,-3.5701,-3.5504,-3.5504,-3.5554,-3.5619,-3.5716,0.0,0.0,0.0,0.0,0.0,0.0,0.0,0.0,0.0,0.0,0.0,0.0,0.0,0.0,0.0,0.0,0.0,0.0,-0.4885,-0.5352,-0.6002,-0.6858,-0.7372,-0.7873,-0.8416,-0.9088,-0.9568,-0.9923,-1.0319,-1.0839,-1.1419,-1.1659,-1.1983,-1.2337,-1.2613,-1.2848,-1.3104,-1.3132,-1.3258,-1.3395,-1.3332,-1.3148,-1.2909,-1.2649,-1.2503,0.0,-1.2336,-1.2879,-1.3712,-1.4135,-1.444,-1.4688,-1.5005,-1.5636,-1.6382,-1.7086,-1.8289,-1.9454,-1.9998,-2.0879,-2.1783,-2.2336,-2.2817,-2.3273,-2.3839,-2.4143,-2.4378,-2.4736,-2.4901,-2.5094,-2.5381,-2.5475,-2.5864,-2.6974,-2.7527,-2.8111,-2.9054,-2.9601,-3.0021,-3.0372,-3.0492,-3.0714,0.0,0.0,0.0,-3.3145,-3.3974,-3.4673,-3.5264,-3.5427,-3.5509,-3.5509,-3.5959,-3.6403,-3.6824,-3.7277,-3.8062,-3.9149,-3.9586,-3.9783,-3.9783,-3.9661,-3.9349,-3.8943,-3.8567,-3.8153,-3.7704,-3.7075,-3.6686,-3.6447,-3.6028,-3.5714,-3.5504,-3.5504,-3.5504,-3.5537,0.0,0.0,0.0,0.0,0.0,0.0,0.0,0.0,0.0,0.0,0.0,0.0,0.0,0.0,0.0,0.0,0.0,0.0,-0.43,-0.4789,-0.5274,-0.5736,-0.6682,-0.7321,-0.7529,-0.8238,-0.869,-0.8843,-0.9105,-0.9502,-0.9971,-1.0431,-1.0969,-1.1624,-1.2061,-1.2369,-1.2569,-1.2706,-1.2698,-1.256,-1.2193,-1.1961,-1.1835,-1.1633,-1.1555,-1.161,-1.2043,-1.2214,-1.2372,0.0,0.0,0.0,0.0,-1.608,-1.7312,-1.8022,-1.9066,-2.0092,-2.0605,-2.1518,-2.238,-2.2735,-2.3447,-2.4083,-2.4083,-2.4319,-2.4435,-2.4122,-2.4069,-2.415,0.0,0.0,-2.5171,-2.6568,-2.6905,-2.7513,-2.8882,-2.914,-2.9397,0.0,0.0,0.0,0.0,0.0,0.0,-3.2954,0.0,-3.4902,-3.4902,-3.5082,-3.5195,-3.5225,-3.6048,-3.6522,-3.6582,-3.7823,-3.8766,-3.9388,-3.9388,-3.9388,-3.9388,-3.9388,-3.9388,-3.9343,-3.8686,-3.8402,-3.8357,-3.7699,-3.7071,-3.6582,-3.6507,-3.6103,-3.5517,-3.5487,-3.5504,-3.5537,0.0,0.0,0.0,0.0,0.0,0.0,0.0,0.0,0.0,0.0,0.0,0.0,0.0,0.0,0.0,0.0,0.0,0.0,-0.3563,-0.4207,-0.475,-0.5112,-0.5718,-0.6201,-0.6544,-0.7035,-0.7551,-0.8074,-0.8408,-0.8815,-0.9346,-0.9668,-0.989,-1.0075,-1.0341,-1.0608,-1.0848,-1.0872,-1.0954,-1.1073,-1.1159,-1.1204,-1.1133,-1.093,-1.0958,-1.1056,-1.0864,0.0,0.0,0.0,0.0,0.0,0.0,-1.6215,-1.707,-1.8296,-1.9222,-2.0072,-2.1072,-2.1849,-2.241,-2.2913,-2.3365,-2.3776,-2.4024,-2.383,-2.3604,-2.3779,-2.3514,-2.3352,0.0,0.0,0.0,-2.5036,-2.5673,0.0,-2.7157,-2.8262,0.0,-2.9174,0.0,-3.0368,-3.1014,-3.1675,0.0,0.0,-3.4149,-3.4783,-3.4902,-3.4935,-3.5189,-3.571,-3.5955,-3.6585,-3.7669,-3.868,-3.9245,-3.9388,-3.9388,-3.9388,-3.9388,-3.9228,-3.9177,-3.9177,-3.8839,-3.8692,-3.8633,-3.7982,-3.7627,-3.739,-3.6413,-3.6056,-3.5963,-3.5472,-3.5359,-3.5504,0.0,0.0,0.0,0.0,0.0,0.0,0.0,0.0,0.0,0.0,0.0,0.0,0.0,0.0,0.0,0.0,0.0,0.0,0.0,-0.3643,-0.4112,-0.4655,-0.5084,-0.5482,-0.5887,-0.6321,-0.6725,-0.7096,-0.7415,-0.7749,-0.8089,-0.8417,-0.8694,-0.8947,-0.9298,-0.9641,-0.9927,-0.9995,-1.0154,0.0,0.0,-1.0373,-1.0446,-1.0264,-1.029,0.0,0.0,0.0,0.0,0.0,0.0,-1.4574,-1.5583,-1.6268,-1.6975,-1.8414,0.0,-2.0167,-2.1222,-2.189,-2.2374,-2.2882,-2.3198,-2.3374,-2.3438,-2.3272,-2.3052,-2.2774,-2.2565,0.0,0.0,0.0,0.0,0.0,0.0,0.0,-2.6036,-2.7336,-2.8336,0.0,-2.9346,0.0,-3.1208,-3.1639,-3.2321,0.0,-3.4076,-3.4515,-3.4668,-3.4769,-3.511,-3.5761,-3.6153,-3.6989,-3.8381,-3.8875,-3.9141,-3.9141,-3.9141,-3.9141,-3.9141,-3.9017,-3.898,-3.8943,-3.887,-3.8782,-3.8752,-3.8399,-3.8074,-3.7685,-3.6733,-3.6227,-3.6003,-3.5318,-3.518,-3.5359,0.0,0.0,0.0,0.0,0.0,0.0,0.0,0.0,0.0,0.0,0.0,0.0,0.0,0.0,0.0,0.0,0.0,0.0,0.0,0.0,0.0,0.0,-0.4575,-0.4947,-0.5346,-0.5764,-0.6037,-0.6154,-0.6376,-0.6586,-0.676,-0.7145,-0.7573,-0.8031,-0.8527,-0.8966,-0.9322,-0.9434,-0.9634,-0.9821,-0.9499,-0.9475,-0.9624,0.0,0.0,0.0,0.0,0.0,0.0,0.0,-1.3113,-1.4414,-1.5548,-1.6207,-1.6905,-1.8529,-1.95,-2.0241,-2.1194,-2.1806,-2.229,-2.2708,-2.2877,-2.2882,-2.2609,-2.2575,-2.2349,-2.1498,0.0,-2.1363,-2.149,-2.178,-2.221,-2.2914,0.0,-2.4459,-2.5218,-2.6323,-2.7363,-2.8237,-2.8864,-2.9869,-3.1481,-3.1641,-3.2231,-3.3762,-3.3971,-3.4128,-3.4312,-3.4602,-3.5069,-3.5804,-3.6667,-3.7655,-3.8745,-3.8797,-3.8782,-3.8782,-3.8782,-3.8782,-3.8782,-3.8745,-3.8745,-3.8745,-3.8708,-3.8708,-3.8708,-3.8708,-3.8385,-3.7775,-3.7172,-3.656,-3.5918,-3.5236,-3.5075,-3.5148,0.0,0.0,0.0,0.0,0.0,0.0,0.0,0.0,0.0,0.0,0.0,0.0,0.0,0.0,0.0,0.0,0.0,0.0,0.0,0.0,0.0,0.0,-0.3838,-0.4237,-0.4587,-0.4734,-0.5145,-0.5868,-0.592,-0.6155,-0.6545,-0.6793,-0.6963,-0.7052,-0.7325,-0.7567,-0.7776,-0.7813,-0.7907,-0.8067,-0.8156,-0.8212,-0.8258,0.0,0.0,0.0,0.0,0.0,0.0,0.0,-1.255,-1.3544,-1.5339,-1.5953,-1.6499,-1.8868,-1.9662,-2.0028,-2.1299,-2.1908,-2.2216,-2.2309,-2.2225,-2.2154,-2.2305,-2.1325,0.0,0.0,0.0,-1.9488,-1.9511,-1.9698,0.0,-2.1453,0.0,0.0,0.0,0.0,-2.6214,0.0,0.0,0.0,0.0,0.0,0.0,0.0,-3.3675,-3.3779,-3.4,-3.4646,-3.5629,-3.6961,-3.7784,-3.8333,-3.8553,-3.8723,-3.8782,-3.8782,-3.8782,-3.8782,-3.8782,-3.8612,-3.8553,-3.8553,-3.8389,-3.8315,-3.8315,-3.8315,-3.8242,-3.8082,-3.7485,-3.6916,-3.64,-3.5727,-3.5242,-3.4935,0.0,0.0,0.0,0.0,0.0,0.0,0.0,0.0,0.0,0.0,0.0,0.0,0.0,0.0,0.0,0.0,0.0,0.0,0.0,0.0,0.0,0.0,0.0,0.0,0.0,0.0,0.0,0.0,0.0,0.0,0.0,0.0,0.0,0.0,-0.6645,-0.6901,-0.7242,-0.7242,-0.7342,-0.7495,-0.761,-0.7682,0.0,0.0,0.0,0.0,0.0,0.0,0.0,0.0,-1.1805,-1.264,-1.4757,-1.5646,-1.6273,-1.8243,-1.9172,-1.9744,-2.0757,-2.1413,-2.1791,-2.1788,-2.1705,-2.1543,-2.1283,0.0,0.0,0.0,0.0,-1.8799,-1.8881,0.0,0.0,0.0,0.0,0.0,0.0,0.0,0.0,0.0,0.0,0.0,0.0,0.0,0.0,0.0,-3.3045,-3.3486,-3.3896,-3.4874,-3.5964,-3.7126,-3.7823,-3.8231,-3.8329,-3.8427,-3.8486,-3.8486,-3.8486,-3.8486,-3.8486,-3.8389,-3.8329,-3.8329,-3.824,-3.8202,-3.8202,-3.8202,-3.8202,-3.8144,-3.7549,-3.6932,-3.6385,-3.5729,-3.519,-3.4783,0.0,0.0,0.0,0.0,0.0,0.0,0.0,0.0,-0.0366,-0.0624,-0.0795,-0.1016,-0.1321,-0.1596,0.0,0.0,0.0,0.0,0.0,0.0,0.0,0.0,0.0,0.0,0.0,0.0,0.0,0.0,0.0,0.0,0.0,0.0,0.0,0.0,0.0,0.0,0.0,-0.6838,-0.6935,0.0,0.0,-0.7215,0.0,0.0,0.0,0.0,0.0,0.0,0.0,0.0,-1.1074,-1.1819,-1.3901,-1.509,-1.5999,-1.7448,-1.8433,-1.926,-1.9962,-2.0588,-2.1043,-2.1051,-2.1021,-2.0844,-2.0116,-1.961,0.0,0.0,-1.8293,-1.8054,-1.8309,0.0,0.0,0.0,0.0,0.0,0.0,0.0,0.0,0.0,0.0,0.0,0.0,0.0,0.0,0.0,-3.2499,-3.3325,-3.4198,-3.5125,-3.6119,-3.7092,-3.7595,-3.7915,-3.8052,-3.8052,-3.8052,-3.8052,-3.8052,-3.8052,-3.8052,-3.8052,-3.8052,-3.8052,-3.8052,-3.8052,-3.8052,-3.8052,-3.8089,-3.8084,-3.762,-3.6976,-3.6243,-3.5784,-3.5185,-3.4631,0.0,0.0,0.0,0.0,0.0,0.0,0.0,0.0,-0.0285,-0.0489,-0.0739,-0.0983,-0.1196,-0.1455,0.0,0.0,0.0,0.0,0.0,0.0,0.0,0.0,0.0,0.0,0.0,0.0,0.0,0.0,0.0,0.0,0.0,0.0,0.0,0.0,0.0,0.0,0.0,0.0,0.0,0.0,0.0,0.0,0.0,0.0,0.0,0.0,0.0,0.0,0.0,0.0,0.0,-1.1284,-1.2657,-1.4013,-1.5384,-1.6923,0.0,0.0,-1.9093,-1.9579,-1.9858,-1.9853,-1.9812,-1.9654,-1.9218,0.0,0.0,-1.7442,-1.6616,-1.6166,-1.6782,-1.6661,0.0,0.0,0.0,-1.9741,0.0,0.0,0.0,0.0,0.0,0.0,0.0,0.0,0.0,-3.1764,-3.2394,-3.3489,-3.5257,-3.5463,-3.6148,-3.7496,-3.7582,-3.7663,-3.7649,-3.7663,-3.7663,-3.7663,-3.7663,-3.7663,-3.7663,-3.7663,-3.7663,-3.7663,-3.7663,-3.7663,-3.7663,-3.7663,-3.7777,-3.7929,-3.7872,-3.7205,-3.6301,-3.6243,-3.5459,-3.4414,0.0,0.0,0.0,0.0,0.0,0.0,0.0,-0.0083,-0.0213,-0.0411,-0.064,-0.0873,-0.1116,-0.131,0.0,0.0,0.0,0.0,0.0,0.0,0.0,0.0,0.0,0.0,0.0,0.0,0.0,-0.3983,-0.4196,0.0,0.0,0.0,0.0,0.0,0.0,0.0,0.0,0.0,0.0,0.0,0.0,0.0,0.0,0.0,0.0,0.0,0.0,0.0,0.0,0.0,0.0,0.0,-1.1424,-1.2672,0.0,0.0,-1.6935,-1.7713,-1.8295,-1.8925,-1.9379,-1.9246,-1.8957,-1.8639,-1.8441,0.0,0.0,-1.6538,-1.6,-1.5586,-1.5616,-1.5845,-1.6319,-1.723,0.0,0.0,0.0,0.0,0.0,0.0,0.0,0.0,0.0,0.0,0.0,-3.2064,-3.2387,-3.3076,-3.4365,-3.4882,-3.5827,-3.7376,-3.7419,-3.7457,-3.7625,-3.7625,-3.7625,-3.7625,-3.7625,-3.7625,-3.7625,-3.7625,-3.7625,-3.7625,-3.7625,-3.7625,-3.7625,-3.7625,-3.7663,-3.7696,-3.7324,-3.6659,-3.5921,-3.5653,-3.4995,-3.423,0.0,0.0,0.0,0.0,0.0,0.0,0.0058,-0.0028,-0.0152,-0.0367,-0.0573,-0.0796,-0.1038,-0.1208,-0.1396,-0.1615,0.0,0.0,0.0,0.0,0.0,0.0,0.0,0.0,0.0,0.0,-0.3336,-0.3785,-0.4067,-0.4443,0.0,0.0,0.0,0.0,0.0,0.0,0.0,0.0,0.0,0.0,0.0,0.0,0.0,0.0,0.0,0.0,0.0,0.0,0.0,0.0,0.0,0.0,0.0,0.0,0.0,0.0,-1.5833,-1.6721,-1.7179,-1.7754,-1.8198,-1.8063,-1.7847,-1.7617,0.0,0.0,-1.6223,-1.5801,-1.5294,-1.4935,-1.4844,-1.5263,-1.5818,-1.6501,0.0,-1.9087,0.0,0.0,0.0,0.0,0.0,0.0,0.0,0.0,0.0,-3.2155,-3.2322,-3.2691,-3.3578,-3.4335,-3.5366,-3.6799,-3.7011,-3.7226,-3.7419,-3.7419,-3.7419,-3.7419,-3.7419,-3.7419,-3.7419,-3.7419,-3.7419,-3.7419,-3.7419,-3.7419,-3.7419,-3.7419,-3.7357,-3.7182,-3.6778,-3.6131,-3.5418,-3.5116,-3.4606,-3.4074,0.0,0.0,0.0,0.0,0.0,0.0,0.0,0.0046,-0.0102,-0.0367,-0.0573,-0.0774,-0.0983,-0.1185,-0.1355,-0.1491,0.0,0.0,0.0,0.0,0.0,0.0,0.0,0.0,0.0,0.0,-0.3435,-0.3501,-0.4173,-0.4502,-0.4508,-0.4983,-0.5207,0.0,0.0,0.0,0.0,0.0,0.0,0.0,0.0,0.0,0.0,0.0,0.0,0.0,0.0,0.0,0.0,0.0,0.0,0.0,0.0,0.0,0.0,0.0,-1.4329,-1.5112,-1.5528,-1.577,-1.595,-1.6015,-1.6381,-1.6581,0.0,0.0,-1.5582,-1.5106,-1.4268,-1.3851,-1.4566,-1.4826,-1.5124,-1.5805,-1.7425,0.0,0.0,0.0,0.0,0.0,0.0,0.0,0.0,0.0,-3.0586,-3.1796,-3.2109,0.0,-3.3357,-3.396,-3.4754,-3.5784,-3.6387,-3.6811,-3.6978,-3.7017,-3.7017,-3.7017,-3.7017,-3.7017,-3.7017,-3.7017,-3.7017,-3.7017,-3.7017,-3.7017,-3.7017,-3.7017,-3.6781,-3.642,-3.642,-3.575,-3.4817,-3.4803,-3.4431,-3.3931,0.0,0.0,0.0,0.0,0.0,0.0,0.0,0.0,-0.0147,-0.0375,-0.0531,-0.0729,-0.0972,-0.1139,-0.1308,-0.148,0.0,0.0,0.0,0.0,0.0,0.0,0.0,0.0,0.0,0.0,-0.346,-0.3708,-0.4096,-0.446,-0.4781,-0.4925,-0.5058,-0.5207,-0.5239,0.0,0.0,0.0,0.0,0.0,0.0,0.0,0.0,0.0,0.0,0.0,0.0,0.0,0.0,0.0,0.0,0.0,0.0,0.0,0.0,-1.1183,0.0,0.0,-1.466,-1.522,-1.5738,-1.5891,-1.5606,-1.5285,-1.5337,-1.4793,-1.4166,-1.384,-1.3646,-1.3489,-1.3356,-1.408,-1.4784,-1.5044,-1.6901,0.0,0.0,0.0,0.0,0.0,0.0,0.0,0.0,0.0,-3.0388,-3.1589,-3.189,-3.2117,-3.238,-3.3098,-3.4139,-3.554,-3.6191,-3.651,-3.6589,-3.6589,-3.6668,-3.6772,-3.6772,-3.685,-3.6978,-3.6978,-3.6978,-3.6978,-3.6978,-3.6978,-3.695,-3.6567,-3.6324,-3.6109,-3.5226,-3.4685,-3.4348,-3.408,-3.388,-3.3709,0.0,0.0,0.0,0.0,0.0,0.0,0.0,0.0,-0.0175,-0.0378,-0.0522,-0.0696,-0.0938,-0.1105,-0.1274,-0.1444,0.0,0.0,0.0,0.0,0.0,0.0,0.0,0.0,0.0,-0.3246,-0.361,-0.3942,-0.4225,-0.4528,-0.4864,-0.489,-0.4969,-0.5096,-0.5112,-0.5176,0.0,0.0,0.0,0.0,0.0,0.0,-0.5686,0.0,0.0,0.0,0.0,0.0,0.0,0.0,0.0,0.0,0.0,0.0,0.0,0.0,-1.0994,0.0,0.0,-1.3971,-1.4422,-1.4662,-1.4355,0.0,0.0,-1.3798,-1.3253,-1.3077,-1.3082,-1.304,-1.2752,-1.369,-1.4546,-1.4651,-1.6601,0.0,0.0,0.0,0.0,0.0,0.0,0.0,0.0,-2.9579,-3.021,-3.1392,-3.1669,-3.178,-3.178,-3.2492,-3.3365,-3.4443,-3.5409,-3.6091,-3.6405,-3.6405,-3.6484,-3.6603,-3.6603,-3.6668,-3.6758,-3.6758,-3.6758,-3.6758,-3.6758,-3.6632,0.0,-3.6119,-3.5685,-3.5204,-3.4497,-3.4062,-3.3845,-3.3572,-3.3501,-3.3536,0.0,0.0,0.0,0.0,0.0,0.0,0.0,0.0,0.0,0.0,0.0,-0.068,-0.0881,-0.1083,0.0,0.0,0.0,0.0,0.0,0.0,0.0,0.0,0.0,0.0,-0.3086,-0.3484,-0.3855,-0.4208,-0.4458,-0.4672,-0.4796,-0.4864,-0.4899,-0.4906,-0.4976,-0.5071,-0.5192,-0.5246,-0.5316,-0.5386,-0.5386,-0.5426,0.0,0.0,0.0,0.0,0.0,0.0,0.0,0.0,0.0,0.0,0.0,0.0,0.0,0.0,0.0,0.0,0.0,0.0,0.0,0.0,0.0,0.0,0.0,-1.2878,0.0,-1.2731,-1.2584,-1.2538,-1.2704,-1.3639,-1.4452,-1.4668,0.0,0.0,0.0,0.0,0.0,0.0,0.0,0.0,0.0,-2.9332,-3.0032,-3.1193,-3.1447,-3.1559,-3.1559,-3.2115,-3.2535,-3.2764,-3.424,-3.5413,-3.6282,-3.6296,-3.631,-3.6365,-3.6365,-3.6405,-3.6405,-3.6405,-3.6405,-3.6405,-3.635,-3.6044,-3.5515,-3.5628,-3.4928,-3.3893,-3.4024,-3.3746,-3.3276,-3.3276,-3.329,-3.3326,0.0,0.0,0.0,0.0,0.0,0.0,0.0,0.0,0.0,0.0,0.0,-0.0677,-0.0876,-0.1083,0.0,0.0,0.0,0.0,0.0,0.0,0.0,0.0,0.0,0.0,-0.3017,-0.3372,-0.3764,-0.4208,-0.4423,-0.4614,-0.4796,-0.4822,-0.4848,-0.4906,-0.4922,-0.4969,-0.5055,-0.5055,-0.5135,-0.5246,-0.5246,-0.5309,0.0,0.0,0.0,0.0,-0.5803,-0.5936,0.0,0.0,0.0,0.0,0.0,0.0,0.0,0.0,-0.8539,-0.928,-1.0092,0.0,-1.2329,-1.2393,-1.236,-1.2336,0.0,-1.218,-1.1998,0.0,0.0,0.0,0.0,0.0,0.0,0.0,0.0,0.0,0.0,0.0,0.0,0.0,0.0,0.0,-2.8595,-2.9012,-2.9624,-3.0758,-3.1174,-3.1347,-3.1347,-3.1655,-3.2046,-3.2537,-3.2932,-3.3808,-3.515,-3.5163,-3.5528,-3.6166,-3.6166,-3.6246,-3.6405,-3.6405,-3.6405,-3.6363,-3.5919,-3.5629,-3.5421,-3.4533,-3.4016,-3.3697,-3.3212,-3.3056,-3.3072,-3.3072,-3.3157,-3.3326,0.0,0.0,0.0,0.0,0.0,0.0,0.0,0.0,0.0,0.0,0.0,0.0,0.0,0.0,0.0,0.0,0.0,0.0,0.0,0.0,0.0,0.0,0.0,-0.2946,-0.3183,-0.3509,-0.3886,-0.4296,-0.4552,-0.4755,-0.4905,-0.5076,-0.5121,-0.5043,-0.4945,-0.4922,-0.4953,-0.4992,-0.5039,-0.5112,-0.5176,0.0,0.0,0.0,0.0,0.0,-0.5493,-0.5598,0.0,-0.6052,-0.6276,-0.6429,0.0,0.0,0.0,0.0,-0.7888,-0.8425,-0.8858,-1.0039,-1.1225,-1.1571,-1.1596,-1.1593,-1.1778,0.0,0.0,0.0,0.0,0.0,0.0,0.0,0.0,0.0,0.0,0.0,0.0,0.0,0.0,0.0,0.0,0.0,0.0,-2.8749,-2.9333,-3.0481,-3.0836,-3.1024,-3.1024,-3.1224,-3.1519,-3.1936,-3.1949,-3.2659,-3.4148,-3.4161,-3.4441,-3.5015,-3.5247,-3.5449,-3.5648,-3.5648,-3.5648,-3.562,-3.5043,-3.4618,-3.4341,-3.3757,-3.3354,-3.3064,-3.2806,-3.2775,-3.2881,-3.2988,-3.3072,-3.3192,0.0,0.0,0.0,0.0,0.0,0.0,0.0,0.0,0.0,0.0,0.0,0.0,0.0,0.0,0.0,0.0,0.0,0.0,0.0,0.0,0.0,0.0,-0.2767,-0.3129,-0.3389,-0.3736,-0.4078,-0.4438,-0.4751,-0.4958,-0.5063,-0.5438,-0.5456,-0.5195,-0.5024,-0.4927,-0.489,-0.4944,-0.4976,-0.4992,-0.5112,0.0,0.0,0.0,0.0,0.0,0.0,0.0,0.0,-0.5778,-0.6075,-0.633,-0.6429,0.0,0.0,0.0,0.0,0.0,-0.8137,-0.8916,-0.9848,-1.0578,-1.0826,-1.0983,-1.1298,0.0,0.0,0.0,0.0,0.0,0.0,0.0,0.0,0.0,0.0,0.0,0.0,0.0,0.0,0.0,0.0,0.0,-2.8225,-2.8533,-2.9114,-3.0279,-3.0533,-3.066,-3.066,-3.0798,-3.1024,-3.1198,-3.1198,-3.1785,-3.3022,-3.3206,-3.3403,-3.3651,-3.4109,-3.443,-3.4588,-3.4588,-3.4588,-3.4547,-3.3991,-3.3487,-3.305,-3.3114,-3.2846,-3.2395,-3.2561,-3.2632,-3.2668,-3.2846,-3.2952,-3.3023,0.0,0.0,0.0,0.0,0.0,0.0,0.0,0.0,0.0,0.0,0.0,0.0,0.0,0.0,0.0,0.0,0.0,0.0,0.0,0.0,0.0,-0.2545,-0.2837,-0.3129,-0.3389,-0.3736,-0.4144,-0.4647,-0.4819,-0.5056,-0.5338,-0.5528,-0.5456,-0.5201,-0.5159,-0.5035,-0.4822,-0.4822,-0.4864,-0.4922,-0.4938,0.0,0.0,0.0,0.0,0.0,0.0,0.0,0.0,-0.545,-0.5859,-0.6299,-0.633,0.0,0.0,0.0,0.0,0.0,-0.8437,-0.8867,-0.9219,-0.9965,-1.0524,-1.0964,-1.1185,0.0,0.0,0.0,0.0,0.0,0.0,0.0,0.0,0.0,0.0,0.0,0.0,0.0,0.0,0.0,0.0,-2.6764,-2.8033,-2.8352,-2.8918,-3.0063,-3.033,-3.0444,-3.0444,-3.0482,-3.0558,-3.0811,-3.0811,-3.0965,-3.1361,-3.2203,-3.2886,-3.3457,-3.3551,-3.3591,-3.363,-3.363,-3.363,-3.359,-3.3154,-3.292,-3.2799,-3.2521,-3.2323,-3.2241,-3.2277,-3.2336,-3.2453,-3.2489,-3.2704,-3.3023,0.0,0.0,0.0,0.0,0.0,0.0,0.0,0.0,0.0,0.0,0.0,0.0,0.0,0.0,0.0,0.0,0.0,0.0,0.0,0.0,-0.2388,-0.2589,-0.3,-0.3321,-0.3551,-0.3928,-0.4291,-0.4638,-0.4971,-0.5275,-0.5562,-0.5737,-0.5669,-0.5414,-0.5268,-0.5055,-0.4796,-0.4796,-0.4822,-0.4848,0.0,0.0,0.0,0.0,0.0,0.0,0.0,0.0,0.0,0.0,-0.5581,-0.5918,-0.6205,0.0,0.0,0.0,0.0,0.0,-0.8041,-0.8543,-0.8991,-0.9621,-1.025,-1.0855,-1.1307,0.0,0.0,0.0,0.0,0.0,0.0,0.0,0.0,0.0,0.0,0.0,0.0,0.0,0.0,0.0,0.0,-2.6553,-2.7801,-2.8011,-2.8586,-2.9845,-3.0113,-3.0228,-3.0228,-3.033,-3.0444,-3.0533,-3.0533,-3.0558,-3.0672,-3.1248,-3.1789,-3.2268,-3.26,-3.2797,-3.2913,-3.2913,-3.2913,-3.2873,-3.2361,-3.2158,-3.2131,-3.2071,-3.2036,-3.2036,-3.2146,-3.2241,-3.23,-3.2503,-3.2739,-3.3023,0.0,0.0,0.0,0.0,0.0,0.0,0.0,0.0,0.0,0.0,0.0,0.0,0.0,0.0,0.0,0.0,0.0,0.0,0.0,0.0,-0.2405,-0.2663,-0.3148,-0.3493,-0.37,-0.4098,-0.4432,-0.4694,-0.5094,-0.5496,-0.5865,-0.6027,-0.5918,-0.559,-0.5389,-0.5116,-0.4796,-0.4796,-0.4796,-0.4812,0.0,0.0,0.0,0.0,0.0,0.0,0.0,0.0,0.0,0.0,0.0,0.0,0.0,0.0,0.0,-0.6697,-0.687,-0.7139,-0.7794,-0.8367,-0.8958,-0.9557,-1.0241,-1.0902,-1.1468,0.0,0.0,0.0,0.0,0.0,0.0,0.0,0.0,0.0,0.0,0.0,0.0,0.0,-2.419,-2.5108,-2.5583,-2.6328,-2.7618,-2.7717,-2.8263,-2.9537,-2.9805,-2.996,-2.996,-3.0139,-3.0292,-3.033,-3.033,-3.0368,-3.0406,-3.0533,-3.0798,-3.1174,-3.1672,-3.201,-3.2148,-3.2148,-3.2148,-3.2135,-3.1721,-3.1522,-3.1559,-3.1743,-3.1853,-3.1927,-3.2073,-3.2146,-3.2241,-3.2525,-3.2775,-3.2952,0.0,0.0,0.0,0.0,0.0,0.0,0.0,0.0,0.0,0.0,0.0,0.0,0.0,0.0,0.0,0.0,0.0,0.0,0.0,0.0,-0.2474,-0.2865,-0.3208,-0.3493,-0.37,-0.4098,-0.4525,-0.4974,-0.5197,-0.5654,-0.6337,-0.6365,-0.6106,-0.5596,-0.5578,-0.5286,-0.4796,-0.4796,-0.4796,-0.4796,-0.4806,0.0,0.0,0.0,0.0,0.0,0.0,0.0,0.0,0.0,0.0,0.0,0.0,0.0,-0.6521,-0.6589,-0.6792,-0.7217,-0.8181,-0.8626,-0.9007,-0.9849,-1.0656,0.0,-1.1551,-1.2425,0.0,-1.3982,0.0,0.0,0.0,0.0,0.0,0.0,0.0,0.0,0.0,0.0,-2.4032,-2.5388,-2.5594,-2.6103,-2.741,-2.752,-2.7963,-2.9057,-2.9353,-2.9457,-2.9457,-2.9689,-2.9934,-3.0113,-3.0113,-3.0228,-3.0406,-3.0406,-3.0533,-3.0736,-3.1001,-3.1089,-3.1127,-3.1127,-3.1127,-3.1127,-3.1261,-3.131,-3.1347,-3.1522,-3.172,-3.189,-3.1927,-3.2036,-3.2205,-3.2359,-3.2561,-3.2739,0.0,0.0,0.0,0.0,0.0,0.0,0.0,0.0,0.0,0.0,0.0,0.0,0.0,0.0,0.0,0.0,0.0,0.0,0.0,-0.2213,-0.2494,-0.2941,-0.3245,-0.3555,-0.3883,-0.4157,-0.4536,-0.5001,-0.5499,-0.5961,-0.6395,-0.6395,-0.6125,-0.5596,-0.5596,-0.5304,-0.4796,-0.4796,-0.4796,-0.4796,-0.4796,-0.4709,0.0,0.0,0.0,0.0,0.0,0.0,0.0,0.0,-0.4772,-0.5306,-0.5601,-0.6071,-0.6506,-0.6536,-0.6755,-0.7186,-0.8073,-0.8549,-0.9057,-1.0134,-1.1027,0.0,0.0,-1.2754,-1.3778,-1.4401,-1.5268,0.0,0.0,0.0,0.0,0.0,0.0,0.0,-2.3105,-2.3416,-2.3943,-2.5133,-2.5359,-2.5779,-2.6712,-2.7127,-2.7665,-2.8539,-2.8973,-2.9197,-2.9197,-2.9443,-2.9599,-2.9664,-2.9844,-2.9934,-3.0049,-3.0152,-3.0267,-3.0318,-3.0533,-3.0685,-3.0811,-3.0811,-3.0874,-3.0986,-3.1099,-3.1099,-3.1123,-3.1323,-3.1471,-3.1545,-3.1817,-3.2036,-3.2218,-3.2359,-3.2453,-3.2561,0.0,0.0,0.0,0.0,0.0,0.0,0.0,0.0,0.0,0.0,0.0,0.0,0.0,0.0,0.0,0.0,0.0,0.0,-0.21,-0.2228,-0.2529,-0.3041,-0.3277,-0.3596,-0.4016,-0.4199,-0.4498,-0.49,-0.5593,-0.6093,-0.6395,-0.6395,-0.6125,-0.5596,-0.5596,-0.5304,-0.4796,-0.4796,-0.4796,-0.4796,-0.4796,-0.4687,0.0,0.0,0.0,0.0,0.0,0.0,0.0,0.0,-0.4575,-0.5096,-0.5397,-0.5938,-0.6475,-0.649,-0.674,-0.7171,-0.7979,-0.8462,-0.9042,0.0,0.0,0.0,-1.2317,-1.322,-1.4174,-1.4984,-1.6079,0.0,0.0,0.0,0.0,0.0,-2.0981,-2.176,-2.2961,-2.3248,-2.3751,-2.4862,-2.5147,-2.5493,-2.6142,-2.659,-2.721,-2.8041,-2.8509,-2.8829,-2.9,-2.9197,-2.9314,-2.9314,-2.9521,-2.965,-2.965,-2.9882,-3.0011,-3.0011,-3.0152,-3.0343,-3.0609,-3.0609,-3.0723,-3.0911,-3.0911,-3.0949,-3.1024,-3.1161,-3.1235,-3.1347,-3.173,-3.1963,-3.2132,-3.23,-3.2345,-3.2453,0.0,0.0,0.0,0.0,0.0,0.0,0.0,0.0,0.0,0.0,0.0,0.0,0.0,0.0,0.0,0.0,0.0,0.0,-0.21,-0.2228,-0.2564,-0.3167,-0.3331,-0.3625,-0.4086,-0.4237,-0.4427,-0.4702,-0.5448,-0.5999,-0.6389,-0.6395,-0.6125,-0.5602,-0.5596,-0.5304,-0.4796,-0.4796,-0.4796,-0.4796,-0.4796,-0.4796,-0.4751,0.0,0.0,0.0,0.0,0.0,0.0,0.0,-0.4514,-0.4965,-0.5369,-0.5915,-0.6413,-0.6475,-0.674,-0.7171,-0.7979,-0.8393,0.0,0.0,0.0,0.0,-1.3047,-1.3836,-1.4649,-1.5871,0.0,-1.8335,-1.8832,0.0,0.0,-2.02,-2.0754,-2.1622,-2.2817,-2.299,-2.3443,-2.4636,-2.4981,-2.529,-2.5741,-2.5959,-2.655,-2.7582,-2.7886,-2.8232,-2.8767,-2.9,-2.9091,-2.9091,-2.9275,-2.9419,-2.9419,-2.965,-2.9792,-2.9792,-2.9792,-3.0011,-3.0406,-3.0406,-3.0495,-3.0698,-3.0698,-3.0811,-3.0986,-3.0986,-3.1123,-3.1347,-3.173,-3.189,-3.1927,-3.2146,-3.23,-3.2417,0.0,0.0,0.0,0.0,0.0,0.0,0.0,0.0,0.0,0.0,0.0,0.0,0.0,0.0,0.0,0.0,0.0,0.0,-0.2235,-0.2322,-0.2551,-0.297,-0.3259,-0.3547,-0.3888,-0.4252,-0.4571,-0.4836,-0.5487,-0.5898,-0.6119,-0.6319,-0.6222,-0.5869,-0.5681,-0.5408,-0.5073,-0.4875,-0.4796,-0.4796,-0.4796,-0.4796,-0.4751,0.0,0.0,0.0,0.0,0.0,0.0,0.0,0.0,0.0,-0.5086,-0.5638,-0.6168,-0.6431,-0.674,-0.7171,-0.7979,0.0,0.0,0.0,0.0,0.0,0.0,-1.4455,0.0,0.0,0.0,-1.8239,-1.9274,0.0,0.0,-2.0599,-2.0876,-2.1417,-2.2603,-2.2923,-2.342,-2.4446,-2.479,-2.4956,-2.5073,-2.5586,-2.6029,-2.6351,-2.7258,-2.7854,-2.8023,-2.8557,-2.8882,-2.8882,-2.9079,-2.9197,-2.9197,-2.9392,-2.9509,-2.9509,-2.9702,-2.9934,-3.019,-3.019,-3.0305,-3.0495,-3.066,-3.0736,-3.0811,-3.0949,-3.1123,-3.131,-3.1596,-3.178,-3.1927,-3.2146,-3.2241,-3.2264,0.0,0.0,0.0,0.0,0.0,0.0,0.0,0.0,0.0,0.0,0.0,0.0,0.0,0.0,0.0,0.0,0.0,0.0,0.0,-0.2387,-0.2585,-0.2927,-0.3162,-0.3472,-0.3872,-0.4281,-0.4591,-0.479,-0.531,-0.5713,-0.5997,-0.6167,-0.6155,-0.5979,-0.5718,-0.545,-0.5189,-0.4905,-0.4796,-0.4796,-0.4796,-0.4796,-0.4764,0.0,0.0,0.0,0.0,0.0,0.0,0.0,0.0,0.0,-0.4965,-0.55,-0.6022,-0.6399,-0.674,-0.7171,-0.7979,0.0,0.0,0.0,0.0,0.0,0.0,0.0,0.0,0.0,0.0,-1.8655,-1.9667,-1.9925,0.0,-2.0634,-2.0775,-2.1222,-2.24,-2.2685,-2.3156,-2.4266,-2.4574,-2.4682,-2.4682,-2.5132,-2.5477,-2.5678,-2.6469,-2.7119,-2.7577,-2.8096,-2.8467,-2.8685,-2.8882,-2.8961,-2.8961,-2.9197,-2.9275,-2.9275,-2.9534,-2.9689,-2.9831,-2.9921,-3.0075,-3.0305,-3.0584,-3.0698,-3.0736,-3.0911,-3.1061,-3.1198,-3.1397,-3.1596,-3.1817,-3.2,-3.2146,-3.2205,0.0,0.0,0.0,0.0,0.0,0.0,0.0,0.0,0.0,0.0,0.0,0.0,0.0,0.0,0.0,0.0,0.0,0.0,0.0,0.0,-0.2648,-0.2962,-0.3095,-0.3429,-0.4001,-0.4344,-0.4549,-0.4618,-0.5,-0.545,-0.5918,-0.5967,-0.5991,-0.5979,-0.5742,-0.5487,-0.5225,-0.4958,-0.482,-0.4796,-0.4796,-0.4812,-0.4798,-0.4658,0.0,0.0,0.0,0.0,0.0,0.0,0.0,0.0,-0.4945,-0.545,-0.5947,-0.6375,-0.674,-0.7171,0.0,0.0,0.0,0.0,0.0,0.0,0.0,0.0,0.0,0.0,0.0,-1.936,-1.9966,-2.0237,-2.0378,-2.041,-2.054,-2.1059,-2.2162,-2.2366,-2.2821,-2.3969,-2.4311,-2.4454,-2.4454,-2.4646,-2.4989,-2.546,-2.5666,-2.6215,-2.7165,-2.7466,-2.7846,-2.8386,-2.8573,-2.8715,-2.8764,-2.8961,-2.9052,-2.9091,-2.9275,-2.938,-2.9419,-2.9702,-2.9895,-3.0113,-3.0508,-3.066,-3.0698,-3.0911,-3.0986,-3.1024,-3.1235,-3.1434,-3.1609,-3.1817,-3.2036,-3.2205,0.0,0.0,0.0,0.0,0.0,0.0,0.0,0.0,0.0,0.0,0.0,0.0,0.0,0.0,0.0,0.0,0.0,0.0,0.0,0.0,-0.2635,-0.2763,-0.3275,-0.3752,-0.4143,-0.4427,-0.464,-0.4758,-0.5057,-0.5262,-0.5383,-0.5796,-0.5991,-0.5991,-0.593,-0.576,-0.5499,-0.5231,-0.4984,-0.4796,-0.4796,-0.4838,-0.4859,-0.4673,-0.446,0.0,0.0,0.0,0.0,0.0,0.0,0.0,-0.4888,-0.5322,-0.5705,-0.6316,-0.674,-0.7171,0.0,0.0,0.0,0.0,0.0,0.0,0.0,0.0,0.0,0.0,0.0,-1.9148,-1.9814,-2.0074,-2.0216,-2.0378,-2.0443,-2.074,-2.152,-2.2083,-2.2662,-2.3335,-2.3912,-2.4273,-2.4273,-2.4465,-2.462,-2.4725,-2.5294,-2.5734,-2.5958,-2.6536,-2.7064,-2.7627,-2.7846,-2.8117,-2.8578,-2.8764,-2.8882,-2.8882,-2.9091,-2.9236,-2.9419,-2.9702,-2.9895,-3.0113,-3.019,-3.0432,-3.0698,-3.0736,-3.0836,-3.1024,-3.1235,-3.1434,-3.1609,-3.1817,-3.2036,-3.2205,0.0,0.0,0.0,0.0,0.0,0.0,0.0,0.0,0.0,0.0,0.0,0.0,0.0,0.0,0.0,0.0,0.0,0.0,0.0,0.0,-0.2697,-0.2794,-0.3278,-0.3714,-0.4056,-0.4287,-0.4532,-0.4796,-0.4929,-0.508,-0.5213,-0.5614,-0.5869,-0.5991,-0.5991,-0.5845,-0.5584,-0.5316,-0.5066,-0.4848,-0.4848,-0.4896,-0.4941,-0.4904,-0.4717,-0.4493,-0.4488,0.0,0.0,0.0,0.0,0.0,0.0,0.0,-0.5603,-0.6114,-0.661,-0.7171,0.0,0.0,0.0,0.0,0.0,0.0,0.0,0.0,0.0,0.0,0.0,-1.902,-1.9749,-1.9976,-2.0074,-2.0248,-2.0248,-2.0511,-2.1219,-2.1778,-2.2385,-2.2975,-2.3663,-2.4055,-2.4055,-2.4236,-2.4345,-2.4345,-2.4818,-2.5197,-2.5431,-2.5887,-2.634,-2.6848,-2.7314,-2.7693,-2.7968,-2.8418,-2.8657,-2.8657,-2.8855,-2.9118,-2.9419,-2.9702,-2.9869,-2.9972,-3.0049,-3.0228,-3.0432,-3.0622,-3.0773,-3.0874,-3.1099,-3.1286,-3.1485,-3.1669,-3.189,-3.2073,0.0,0.0,0.0,0.0,0.0,0.0,0.0,0.0,0.0,0.0,0.0,0.0,0.0,0.0,0.0,0.0,0.0,0.0,0.0,0.0,0.0,-0.2918,-0.3243,-0.3574,-0.389,-0.4129,-0.4427,-0.4822,-0.4822,-0.4956,-0.5259,-0.5493,-0.5761,-0.6017,-0.606,-0.5951,-0.5707,-0.5437,-0.5195,-0.5006,-0.494,-0.4969,-0.5055,-0.516,-0.5007,-0.4772,-0.4945,-0.4657,-0.4228,-0.4355,0.0,0.0,0.0,0.0,-0.5649,-0.5987,-0.6522,-0.7162,0.0,0.0,0.0,0.0,0.0,0.0,0.0,0.0,0.0,0.0,-1.8166,-1.8912,-1.9651,-1.9835,-1.9933,-2.0042,-2.0074,-2.0314,-2.0919,-2.1462,-2.2019,-2.2639,-2.3311,-2.3759,-2.3849,-2.4043,-2.4152,-2.4152,-2.4345,-2.4639,-2.5106,-2.5314,-2.5622,-2.6115,-2.6742,-2.713,-2.7263,-2.7944,-2.8338,-2.8378,-2.8648,-2.8988,-2.9302,-2.9611,-2.9753,-2.9792,-2.9972,-3.0075,-3.0126,-3.0508,-3.066,-3.0736,-3.0911,-3.1123,-3.131,-3.1522,-3.172,-3.1927,0.0,0.0,0.0,0.0,0.0,0.0,0.0,0.0,0.0,0.0,0.0,0.0,0.0,0.0,0.0,0.0,0.0,0.0,-0.267,0.0,0.0,-0.2977,-0.3313,-0.3613,-0.3903,-0.4206,-0.4539,-0.489,-0.489,-0.5081,0.0,0.0,-0.578,-0.6089,-0.6323,-0.6356,-0.62,-0.592,-0.5658,-0.5401,-0.5103,-0.5071,-0.5176,-0.5192,-0.5099,-0.496,-0.4989,-0.4837,-0.4647,-0.4769,-0.4834,0.0,0.0,0.0,-0.6004,-0.6339,-0.6698,0.0,0.0,0.0,0.0,0.0,0.0,0.0,0.0,0.0,0.0,0.0,-1.7874,-1.8848,-1.93,-1.9671,-1.99,-1.99,-2.0009,-2.014,-2.0238,-2.0853,-2.1485,-2.1973,-2.2628,-2.3194,-2.3596,-2.3824,-2.3934,-2.3934,-2.4127,-2.4259,-2.4328,-2.4522,-2.49,-2.5413,-2.5693,-2.6127,-2.6716,-2.7278,-2.7618,-2.7798,-2.8467,-2.8843,-2.887,-2.9263,-2.956,-2.9792,-2.983,-2.9934,-3.0113,-3.033,-3.0533,-3.0736,-3.0911,-3.1123,-3.131,-3.1522,-3.172,-3.1927,0.0,0.0,0.0,0.0,0.0,0.0,0.0,0.0,0.0,0.0,0.0,0.0,0.0,0.0,0.0,-0.2605,-0.2702,-0.2789,-0.2859,-0.2961,-0.3031,-0.3057,-0.3267,-0.3579,-0.3998,-0.4194,-0.4504,-0.4953,-0.4953,0.0,0.0,-0.5668,-0.5933,0.0,0.0,-0.6502,-0.6283,-0.6181,-0.5989,-0.5749,-0.5448,-0.5392,-0.5465,-0.536,-0.5275,-0.5242,-0.5349,-0.521,-0.5003,-0.5134,-0.5094,-0.505,-0.537,0.0,0.0,0.0,0.0,0.0,0.0,0.0,0.0,0.0,0.0,0.0,0.0,0.0,0.0,-1.6287,-1.7161,-1.7989,-1.8805,-1.9271,-1.9638,-1.9868,-1.9944,-2.0009,-2.0085,-2.0632,-2.1106,-2.1326,-2.1917,-2.2499,-2.2989,-2.3214,-2.3446,-2.3728,-2.3934,-2.4043,-2.4043,-2.4225,-2.4449,-2.4669,-2.518,-2.5548,-2.5883,-2.6591,-2.7043,-2.7246,-2.7589,-2.7801,-2.7904,-2.8095,-2.8694,-2.956,-2.974,-2.9869,-2.9934,-3.0152,-3.0343,-3.0533,-3.0761,-3.0949,-3.1174,-3.136,-3.1559,-3.1743,0.0,0.0,0.0,0.0,0.0,0.0,0.0,0.0,0.0,0.0,0.0,0.0,0.0,0.0,0.0,0.0,-0.3003,-0.3079,-0.3117,-0.3125,-0.3138,-0.3149,-0.3251,-0.3567,-0.4111,-0.417,-0.4484,-0.5055,0.0,0.0,-0.5478,-0.582,-0.6117,0.0,-0.6644,-0.6644,0.0,0.0,0.0,0.0,-0.5869,-0.5803,-0.584,-0.5682,-0.5659,-0.5718,-0.5873,-0.5752,-0.5523,-0.5643,-0.552,-0.5341,-0.553,-0.5838,0.0,0.0,0.0,0.0,0.0,0.0,0.0,0.0,0.0,0.0,0.0,0.0,0.0,0.0,-1.6405,-1.7089,-1.8082,-1.8763,-1.9238,-1.9565,-1.9759,-1.9933,-2.0042,-2.0412,-2.0763,-2.0883,-2.1359,-2.1836,-2.23,-2.2533,-2.2784,-2.3128,-2.3444,-2.3668,-2.3704,-2.3975,-2.4164,-2.42,-2.4715,-2.5022,-2.5108,-2.5971,-2.6528,-2.681,-2.6898,-2.6961,-2.7136,-2.7161,-2.7825,-2.8932,-2.9187,-2.9314,-2.9377,-2.9732,-3.0012,-3.0201,-3.0558,-3.0811,-3.1011,-3.1027,-3.1209,-3.1393,0.0,0.0,0.0,0.0,0.0,0.0,0.0,0.0,0.0,0.0,0.0,0.0,-0.2958,-0.3319,-0.3553,-0.3553,-0.3664,-0.3672,-0.3489,-0.3297,-0.3219,-0.3289,-0.3292,0.0,-0.4184,-0.4203,-0.4527,-0.5192,0.0,0.0,-0.5684,-0.6037,-0.6332,-0.66,-0.6804,-0.6922,-0.6939,0.0,0.0,0.0,0.0,0.0,-0.6274,-0.6254,-0.6368,-0.6535,-0.6554,0.0,0.0,0.0,0.0,0.0,0.0,0.0,0.0,0.0,0.0,0.0,0.0,0.0,0.0,0.0,0.0,0.0,0.0,0.0,0.0,-1.5144,-1.582,-1.6405,-1.6996,-1.7999,-1.8743,-1.8775,-1.9393,-1.99,-1.99,-2.0031,-2.0325,-2.0839,-2.0916,-2.1124,-2.1616,-2.1834,-2.195,-2.1983,-2.2605,-2.3029,-2.3218,-2.3673,-2.4007,-2.4189,-2.4223,-2.4344,-2.4536,-2.5404,-2.6085,-2.6621,-2.681,-2.6898,-2.6935,-2.7099,-2.7359,-2.7606,-2.7817,-2.7989,-2.8235,-2.8961,-2.9375,-2.9625,-3.0403,-3.0811,-3.0959,-3.0579,-3.0563,-3.0686,0.0,0.0,0.0,0.0,0.0,0.0,0.0,0.0,0.0,0.0,0.0,0.0,0.0,-0.351,-0.3631,-0.3717,-0.3851,-0.3916,-0.389,-0.3861,-0.3854,-0.3873,-0.3916,-0.4147,-0.4578,-0.4584,-0.4803,0.0,0.0,-0.5385,-0.5516,-0.5893,-0.6249,-0.6548,-0.6834,-0.6985,-0.6993,-0.6983,0.0,0.0,0.0,0.0,0.0,0.0,0.0,0.0,0.0,0.0,0.0,0.0,0.0,0.0,0.0,0.0,0.0,0.0,0.0,0.0,0.0,0.0,0.0,0.0,0.0,0.0,0.0,0.0,-1.3526,-1.4244,-1.5121,-1.5841,-1.6118,-1.719,-1.8197,-1.8627,-1.8934,-1.9307,-1.9835,-1.9933,-2.0074,-2.0347,-2.0402,-2.0587,-2.1113,-2.1225,-2.1391,-2.1664,-2.2061,-2.23,-2.237,-2.3078,-2.3481,-2.3553,-2.3992,-2.4309,-2.449,-2.493,-2.5324,-2.5647,-2.5792,-2.5853,-2.5889,-2.5961,-2.6105,-2.6297,-2.6476,-2.7157,-2.8122,-2.8384,-2.8606,-2.8851,-2.9252,-2.9548,-2.9691,-2.9689,-2.9896,-3.0104,0.0,0.0,0.0,0.0,0.0,0.0,0.0,0.0,0.0,-0.3296,0.0,0.0,0.0,0.0,-0.4003,-0.4151,-0.4166,-0.42,-0.4262,-0.4248,-0.4237,-0.4237,-0.4297,-0.4509,-0.4859,-0.4865,-0.5036,0.0,0.0,0.0,0.0,-0.5828,-0.6121,-0.6345,-0.6778,-0.7038,0.0,0.0,0.0,-0.7265,0.0,0.0,-0.7264,0.0,0.0,0.0,0.0,0.0,0.0,0.0,0.0,0.0,0.0,0.0,0.0,0.0,0.0,0.0,0.0,0.0,0.0,0.0,0.0,0.0,0.0,0.0,-1.2946,-1.3531,-1.4342,-1.5093,-1.5547,-1.6407,-1.7283,-1.8009,-1.8312,-1.8702,-1.9415,-1.9544,-1.9695,-1.9987,-2.0042,-2.0205,-2.0587,-2.062,-2.0751,-2.1079,-2.1391,-2.1582,-2.1651,-2.2349,-2.2908,-2.3173,-2.3853,-2.4273,-2.4381,-2.461,-2.479,-2.4981,-2.5147,-2.5276,-2.5312,-2.5312,-2.5418,-2.5606,-2.5793,-2.6493,-2.7462,-2.7722,-2.7965,-2.8181,-2.8541,-2.8833,-2.9009,-2.9017,-2.9184,-2.9401,0.0,0.0,0.0,0.0,0.0,0.0,0.0,0.0,-0.3312,-0.3517,0.0,0.0,0.0,0.0,0.0,-0.4908,-0.4682,-0.4556,-0.4621,-0.4445,-0.4323,-0.4323,-0.4396,-0.4617,-0.501,-0.5017,-0.5177,-0.5491,-0.5507,-0.5507,-0.5514,0.0,-0.5994,-0.6037,-0.6621,-0.7089,-0.7405,0.0,-0.7398,-0.7419,0.0,-0.7943,-0.8032,0.0,0.0,0.0,-0.8849,-0.8746,0.0,-0.8286,0.0,0.0,0.0,0.0,0.0,0.0,0.0,0.0,0.0,0.0,0.0,0.0,0.0,0.0,0.0,0.0,-1.2338,-1.295,-1.3511,-1.4185,-1.5246,-1.5577,-1.596,-1.6831,-1.752,-1.8154,-1.8617,-1.8797,-1.9116,-1.9792,-1.9879,-1.9922,-2.0074,-2.0118,-2.0118,-2.0118,-2.0577,-2.0973,-2.1174,-2.1617,-2.2268,-2.3139,-2.383,-2.4177,-2.4177,-2.4381,-2.461,-2.479,-2.4981,-2.5182,-2.5312,-2.5312,-2.5418,-2.5606,-2.5793,-2.6027,-2.6251,-2.6972,-2.7397,-2.7646,-2.8385,-2.8782,-2.8883,-2.8499,-2.851,-2.8615,0.0,0.0,0.0,0.0,0.0,0.0,-0.3725,-0.398,-0.4186,0.0,0.0,0.0,-0.4992,-0.5252,-0.5419,-0.5473,-0.5362,-0.5303,-0.5326,-0.5141,-0.5022,-0.5022,-0.5089,-0.5175,-0.5287,-0.5335,-0.5408,-0.5491,-0.5599,-0.5638,-0.5654,-0.578,-0.5987,0.0,-0.6604,-0.6939,-0.7255,-0.741,0.0,-0.7517,-0.7954,-0.8135,0.0,0.0,0.0,0.0,0.0,-0.9059,-0.9073,0.0,-0.8919,-0.8708,0.0,0.0,0.0,0.0,0.0,0.0,-0.8141,0.0,0.0,0.0,0.0,0.0,0.0,0.0,0.0,-1.2411,-1.2988,-1.3565,-1.4343,-1.4799,-1.5262,-1.5942,-1.6744,-1.7479,-1.8102,-1.8227,-1.8479,-1.9105,-1.9318,-1.9554,-1.9901,-2.0042,-2.0118,-2.0118,-2.0238,-2.0347,-2.0413,-2.113,-2.1879,-2.2593,-2.328,-2.3614,-2.3614,-2.4196,-2.461,-2.479,-2.4981,-2.5182,-2.5312,-2.5312,-2.5347,-2.5382,-2.5758,-2.5945,-2.6027,-2.6524,-2.6747,-2.6842,-2.7318,-2.7507,-2.7563,-2.7689,-2.7859,-2.8047,0.0,0.0,0.0,0.0,0.0,0.0,-0.4249,-0.4533,-0.4777,0.0,0.0,0.0,-0.5496,-0.5683,-0.5788,-0.5832,-0.5795,-0.5788,-0.5841,-0.5762,-0.5665,-0.552,-0.5595,-0.5605,-0.5519,-0.5568,-0.5599,-0.5624,-0.5709,-0.5748,-0.5748,-0.5787,-0.5898,-0.6113,0.0,0.0,0.0,0.0,0.0,0.0,-0.8245,0.0,0.0,-0.9322,-0.9552,0.0,0.0,0.0,-1.0114,-0.9946,-0.9688,0.0,0.0,0.0,0.0,0.0,0.0,0.0,0.0,0.0,0.0,0.0,0.0,0.0,-1.0596,-1.0781,-1.1076,-1.1662,-1.2332,-1.2992,-1.3638,-1.416,-1.4696,-1.5318,-1.5846,-1.6516,-1.7447,-1.7592,-1.782,-1.8437,-1.8616,-1.8848,-1.9147,-1.9349,-1.9499,-1.9727,-1.9781,-1.99,-2.0107,-2.0886,-2.1509,-2.197,-2.2639,-2.312,-2.3407,-2.3848,-2.4245,-2.4682,-2.4885,-2.5052,-2.5206,-2.5276,-2.5312,-2.5312,-2.5723,-2.591,-2.5945,-2.6327,-2.6499,-2.6521,-2.6875,-2.699,-2.7045,-2.7369,-2.7556,-2.7689,0.0,0.0,0.0,0.0,-0.4169,-0.4438,-0.471,-0.493,-0.5164,0.0,-0.5537,-0.5688,-0.5881,-0.6028,-0.6124,-0.6188,-0.6174,-0.6205,-0.6297,-0.6344,-0.6213,-0.5889,-0.5989,-0.5967,-0.575,-0.5758,-0.5784,-0.5796,-0.5796,-0.5796,-0.5796,-0.5796,-0.5796,-0.581,0.0,0.0,0.0,0.0,0.0,-0.832,-0.8591,-0.9024,0.0,0.0,-1.0535,-1.074,-1.116,-1.1326,-1.126,-1.0946,-1.0516,0.0,0.0,0.0,0.0,0.0,-0.8558,0.0,0.0,0.0,0.0,0.0,0.0,0.0,-1.0303,-1.0576,-1.085,-1.0898,-1.161,-1.2427,-1.3067,-1.3602,-1.4139,-1.478,-1.4914,-1.538,-1.6676,-1.6862,-1.7107,-1.7809,-1.7903,-1.8005,-1.8159,-1.8364,-1.8639,-1.908,-1.9292,-1.9573,-2.0009,-2.0721,-2.1174,-2.1329,-2.1981,-2.2605,-2.3235,-2.335,-2.3743,-2.4409,-2.4694,-2.4921,-2.5123,-2.5241,-2.5312,-2.5312,-2.5688,-2.5875,-2.5945,-2.6327,-2.6499,-2.6521,-2.6875,-2.699,-2.7045,-2.7369,-2.749,-2.7523,-0.3838,0.0,0.0,0.0,-0.4512,-0.4719,-0.4989,-0.5325,-0.5671,-0.5982,-0.6595,-0.7067,-0.7217,-0.7296,-0.7358,-0.7364,-0.726,-0.7157,-0.7011,-0.6813,-0.6603,-0.6376,-0.6446,-0.6332,-0.6022,-0.6125,-0.606,-0.5796,-0.5796,-0.5796,-0.5796,-0.5796,-0.5796,-0.5818,0.0,0.0,0.0,0.0,0.0,-0.8852,-0.8858,0.0,-1.0012,-1.0516,-1.0915,-1.1176,-1.1379,-1.1459,-1.1499,-1.1677,-1.1364,-1.088,0.0,0.0,0.0,-1.0082,0.0,0.0,0.0,0.0,0.0,0.0,0.0,0.0,-1.0303,-1.0361,-1.0518,-1.084,-1.1066,-1.1482,-1.2407,-1.2742,-1.3206,-1.4118,-1.4363,-1.479,-1.5804,-1.5949,-1.626,-1.7107,-1.735,-1.7587,-1.7996,-1.817,-1.8366,-1.8626,-1.9107,-1.9431,-1.9529,-2.0181,-2.0641,-2.0836,-2.1495,-2.1934,-2.2192,-2.2995,-2.3547,-2.3851,-2.4507,-2.4921,-2.5123,-2.5241,-2.5312,-2.5312,-2.5535,-2.5758,-2.591,-2.6166,-2.6339,-2.6521,-2.6875,-2.699,-2.7045,-2.7369,-2.749,-2.7523,-0.4042,0.0,0.0,0.0,0.0,0.0,-0.5417,-0.585,-0.6269,-0.6558,-0.7153,-0.7628,-0.7879,-0.7996,-0.8045,-0.8045,-0.8051,-0.7936,-0.7659,-0.7649,-0.7454,-0.7021,-0.7097,-0.6919,-0.6413,-0.6334,-0.6223,-0.6054,-0.5876,-0.5796,-0.5796,-0.5796,-0.5811,-0.5872,-0.6336,0.0,0.0,0.0,-0.8447,-0.9136,-0.8997,0.0,-1.0489,-1.0903,-1.1295,-1.1694,-1.1956,-1.2025,-1.2045,-1.2273,-1.2074,0.0,-1.1705,-1.1414,-1.1039,0.0,-1.0772,-1.0606,0.0,0.0,0.0,-1.036,0.0,0.0,0.0,-1.0303,-1.0361,-1.0557,-1.0762,-1.1066,-1.1648,-1.2003,-1.2405,-1.2988,-1.3358,-1.382,-1.4552,-1.5059,-1.5515,-1.5942,-1.6106,-1.6339,-1.6809,-1.6974,-1.7379,-1.8108,-1.8694,-1.9058,-1.9058,-1.958,-2.0034,-2.0277,-2.0878,-2.1425,-2.1894,-2.2399,-2.2845,-2.3225,-2.4026,-2.4449,-2.4554,-2.5086,-2.5312,-2.5312,-2.55,-2.5711,-2.591,-2.6131,-2.6339,-2.6521,-2.6773,-2.6909,-2.7024,-2.7302,-2.7436,-2.749,-0.4251,0.0,0.0,0.0,0.0,0.0,-0.5973,-0.6383,-0.6825,-0.7262,-0.7671,-0.8078,-0.8449,-0.8617,-0.8701,-0.8701,-0.8824,-0.877,-0.8466,-0.8594,-0.842,-0.7846,-0.786,-0.7574,-0.6906,-0.668,-0.65,-0.6375,-0.6052,-0.5891,-0.5891,-0.5841,-0.5879,-0.6008,-0.6355,0.0,0.0,0.0,0.0,-0.9306,0.0,-0.9957,-1.0966,-1.1302,-1.1765,-1.2274,-1.2693,-1.2852,-1.2862,-1.2906,-1.2775,-1.2571,-1.2383,-1.2088,0.0,0.0,0.0,0.0,0.0,0.0,0.0,0.0,0.0,-1.0886,0.0,0.0,0.0,-1.0322,-1.0547,0.0,0.0,0.0,0.0,-1.1998,0.0,0.0,0.0,-1.4003,0.0,-1.4956,-1.4997,-1.5142,-1.5515,-1.5698,-1.6236,-1.7392,-1.8023,-1.8458,-1.8556,-1.9015,-1.9434,-1.9865,-2.0299,-2.092,-2.1712,-2.1848,-2.2134,-2.2569,-2.342,-2.3919,-2.4025,-2.4788,-2.5216,-2.5312,-2.5465,-2.5688,-2.591,-2.6097,-2.6292,-2.6499,-2.6658,-2.6829,-2.7024,-2.7248,-2.7369,-2.749,-0.4859,-0.4836,0.0,0.0,0.0,0.0,0.0,-0.683,-0.7312,-0.83,-0.8664,-0.9012,-0.9471,-0.9647,-0.9725,-0.9725,-0.9896,-0.9939,-0.9695,-0.9437,-0.9206,-0.9021,-0.8729,-0.8268,-0.7596,-0.7552,-0.7246,-0.6651,-0.6383,-0.6245,-0.6238,-0.6006,-0.6053,0.0,-0.6752,0.0,0.0,0.0,-0.8929,0.0,-1.0089,-1.0762,0.0,-1.1792,-1.2347,-1.3044,-1.3583,-1.395,-1.4127,-1.3863,-1.3585,-1.3352,0.0,-1.2886,-1.2689,-1.2851,0.0,0.0,0.0,0.0,0.0,0.0,-1.1233,-1.1245,-1.0896,0.0,-1.0732,-1.0371,0.0,-1.0488,0.0,0.0,0.0,0.0,0.0,0.0,-1.2269,-1.2459,-1.3198,-1.48,-1.4997,-1.5018,-1.507,-1.5217,-1.5548,-1.6249,-1.6897,-1.7503,-1.8065,-1.8523,-1.9063,-1.9709,-1.989,-2.0315,-2.1014,-2.16,-2.1929,-2.1986,-2.2883,-2.3532,-2.4013,-2.4406,-2.4867,-2.5312,-2.5312,-2.5535,-2.591,-2.591,-2.6154,-2.6499,-2.6658,-2.6829,-2.7024,-2.7248,-2.7369,-2.749,-0.5183,-0.5281,0.0,0.0,0.0,0.0,0.0,-0.7505,-0.8152,-0.8769,-0.9289,-0.9837,-1.0343,0.0,0.0,0.0,0.0,-1.0943,0.0,0.0,-1.0181,-0.9731,-0.9402,-0.9021,-0.8568,-0.8004,-0.7559,-0.7282,-0.6771,-0.6576,-0.6639,-0.654,-0.6616,0.0,-0.7247,0.0,-0.8158,0.0,-0.9336,0.0,0.0,-1.126,0.0,-1.1884,-1.2517,-1.3348,-1.3835,-1.4164,-1.4411,-1.4366,-1.4138,-1.3889,-1.3987,0.0,0.0,-1.3495,0.0,0.0,0.0,0.0,0.0,0.0,-1.183,-1.1666,-1.1365,-1.131,-1.1261,-1.1085,0.0,0.0,0.0,0.0,0.0,0.0,-1.1357,-1.1653,0.0,0.0,-1.2566,-1.3344,-1.3641,-1.4003,-1.4542,-1.495,-1.5311,-1.5564,-1.5978,-1.6472,-1.7042,-1.7577,-1.8174,-1.8806,-1.9543,-2.0079,-2.0492,-2.1163,-2.1479,-2.1491,-2.2369,-2.2897,-2.3154,-2.4084,-2.4604,-2.4867,-2.5168,-2.5535,-2.591,-2.591,-2.6154,-2.6499,-2.6555,-2.6739,-2.7024,-2.7079,-2.7268,-2.749,-0.5704,0.0,0.0,0.0,0.0,0.0,0.0,-0.8222,-0.8942,-0.946,-0.998,0.0,-1.1148,-1.1416,0.0,0.0,-1.1911,-1.1815,0.0,0.0,-1.1092,-1.0528,-1.0192,0.0,-0.9314,-0.8604,-0.8085,-0.7829,-0.73,-0.7033,-0.7029,-0.6994,-0.7111,-0.7347,0.0,-0.8035,-0.8585,0.0,-0.966,-1.0153,-1.1106,-1.167,-1.1964,-1.2313,-1.2987,-1.3803,-1.4263,-1.4563,-1.4799,-1.483,-1.4641,-1.4448,-1.4672,-1.4281,-1.3791,0.0,0.0,0.0,-1.3451,-1.323,-1.2945,-1.266,-1.2453,-1.222,-1.1843,-1.176,-1.1731,-1.1636,-1.133,0.0,0.0,0.0,-1.043,-1.039,0.0,-1.1085,-1.1155,-1.1593,0.0,-1.2276,-1.2566,-1.301,-1.3683,-1.4247,-1.4635,-1.4822,-1.5163,-1.5594,-1.6148,-1.6743,-1.7345,-1.7942,-1.8967,-1.9707,-2.0101,-2.0705,-2.1052,-2.1201,-2.1946,-2.2365,-2.253,-2.3594,-2.4254,-2.4508,-2.4927,-2.5402,-2.591,-2.591,-2.6154,-2.6499,-2.6499,-2.6671,-2.6909,-2.6977,-2.718,-2.7469,-0.6668,-0.6344,0.0,0.0,0.0,0.0,0.0,0.0,0.0,0.0,0.0,0.0,0.0,0.0,0.0,0.0,0.0,-1.2463,-1.2441,0.0,-1.186,0.0,0.0,-1.0587,0.0,-0.9551,-0.9102,-0.8187,-0.797,-0.7696,-0.7374,-0.7263,-0.736,-0.7679,-0.7756,-0.8202,-0.8905,-0.9255,-0.9827,-1.0536,-1.1209,-1.2115,-1.3076,-1.341,-1.4003,-1.4701,-1.5039,-1.5428,-1.5711,-1.5326,-1.5189,-1.5188,-1.5188,-1.4897,-1.464,-1.4972,-1.4488,-1.3892,-1.3892,-1.3598,-1.3248,-1.3119,-1.3058,-1.2906,-1.2332,-1.2184,-1.2057,-1.1672,-1.1596,-1.1438,-1.0986,-1.0898,-1.0752,-1.0371,-1.0361,0.0,0.0,-1.0747,0.0,-1.2182,-1.2318,-1.2339,-1.237,-1.273,-1.3232,-1.39,-1.4443,-1.4989,-1.5584,-1.6205,-1.6776,-1.7317,-1.8113,-1.8973,-1.9916,-2.0258,-2.0687,-2.119,-2.1552,-2.1992,-2.2506,-2.2886,-2.358,-2.4484,-2.4508,-2.5063,-2.591,-2.591,-2.6154,-2.6499,-2.6499,-2.6589,-2.6726,-2.6943,-2.7113,-2.7302,0.0,0.0,0.0,0.0,0.0,0.0,0.0,-0.9846,0.0,0.0,-1.1739,0.0,0.0,-1.3257,-1.362,0.0,0.0,-1.3718,-1.3506,-1.3184,0.0,0.0,0.0,-1.1276,0.0,-1.006,-0.9486,-0.9252,-0.8797,-0.8466,-0.8265,-0.8211,-0.8171,-0.8166,0.0,-0.8794,0.0,0.0,0.0,0.0,0.0,-1.2718,-1.3466,-1.371,-1.416,-1.4768,-1.523,-1.5576,-1.578,-1.5651,-1.5429,-1.5223,-1.5463,-1.5296,-1.5058,-1.5401,-1.5111,-1.4689,-1.4689,-1.4203,-1.3737,-1.3865,-1.3702,-1.342,-1.3128,-1.3051,-1.2959,-1.2543,-1.2197,-1.1963,-1.1784,-1.1287,-1.0869,-1.0723,-1.0528,-1.0418,0.0,-1.0659,-1.0935,-1.1333,0.0,0.0,0.0,-1.2421,-1.2598,-1.2831,-1.335,-1.3897,-1.4508,-1.5415,-1.6168,-1.6754,-1.776,-1.8665,-1.9425,-1.9984,-2.0591,-2.119,-2.1411,-2.1674,-2.198,-2.2555,-2.3254,-2.4037,-2.4374,-2.4969,-2.5723,-2.584,-2.605,-2.6305,-2.6465,-2.6521,-2.6589,-2.6875,-2.7113,-2.7302,-0.775,0.0,0.0,0.0,0.0,0.0,0.0,0.0,0.0,0.0,-1.2516,0.0,-1.362,0.0,-1.4348,0.0,-1.4511,-1.4416,-1.421,-1.3998,0.0,-1.3199,-1.2584,-1.2068,0.0,0.0,-1.0144,-0.9799,-0.945,-0.9165,-0.8908,-0.8805,-0.8761,-0.8768,0.0,-0.9159,-0.9604,0.0,-1.0526,0.0,0.0,-1.3148,0.0,-1.4071,-1.4484,-1.4934,-1.5342,-1.562,-1.5805,-1.5805,-1.5634,-1.5454,-1.5824,-1.5652,-1.545,-1.5811,-1.5625,-1.5276,-1.5139,-1.4717,-1.4337,-1.4298,-1.4109,-1.3869,-1.375,-1.3704,-1.3613,-1.3193,-1.2881,-1.2564,-1.2262,-1.1745,-1.1328,-1.1162,-1.0842,-1.0558,0.0,-1.0659,-1.0822,-1.0881,0.0,0.0,0.0,0.0,-1.2058,-1.2058,-1.2571,-1.3143,-1.3712,-1.4599,-1.5455,-1.6225,-1.7186,-1.8184,-1.9179,-1.9674,-2.0346,-2.119,-2.1336,-2.1506,-2.171,-2.2186,-2.2818,-2.3553,-2.4025,-2.4657,-2.5338,-2.5755,-2.6015,-2.6201,-2.643,-2.6499,-2.6521,-2.6807,-2.7079,-2.7302,-0.7992,0.0,0.0,0.0,-0.9098,0.0,0.0,0.0,-1.1676,0.0,-1.3272,-1.362,-1.4443,-1.457,-1.4585,-1.4599,-1.4599,-1.4599,-1.4599,-1.457,0.0,0.0,-1.3528,-1.2956,-1.1716,0.0,0.0,-0.9922,-1.0,-0.9813,-0.9345,-0.9067,0.0,0.0,-0.9088,0.0,-0.993,-1.0361,-1.0926,-1.1638,-1.2695,-1.3453,-1.3998,-1.4535,-1.4915,-1.524,-1.5426,-1.5647,-1.5805,-1.5805,-1.5805,-1.5867,-1.6202,-1.605,-1.5808,-1.6206,-1.6046,-1.5643,-1.5258,-1.5139,-1.4998,-1.4467,-1.4346,-1.4317,-1.416,-1.4143,-1.4026,-1.3597,-1.3535,-1.3281,-1.2418,-1.2252,-1.2086,-1.1692,-1.1211,-1.0853,-1.0654,-1.0718,-1.0822,-1.0881,0.0,0.0,0.0,0.0,0.0,0.0,-1.2121,0.0,0.0,-1.3848,-1.4666,-1.5753,-1.6438,-1.7551,-1.9145,-1.9305,-1.9985,-2.1155,-2.1325,-2.1506,-2.1698,-2.1843,-2.2285,-2.3015,-2.3565,-2.4162,-2.4852,-2.5573,-2.598,-2.6213,-2.6396,-2.6499,-2.6521,-2.6658,-2.6964,-2.7302,-0.9232,-0.9436,-0.9795,0.0,-1.0483,-1.0701,0.0,0.0,0.0,0.0,-1.4045,-1.4649,-1.5138,-1.5401,-1.5635,-1.5905,-1.592,0.0,0.0,0.0,0.0,-1.49,-1.4011,-1.341,-1.3254,-1.2245,-1.1729,-1.1657,-1.0937,-1.0454,-1.0192,0.0,0.0,0.0,0.0,0.0,-0.9937,-1.0597,-1.1444,-1.2391,-1.3172,-1.3806,-1.4338,-1.4862,-1.5236,-1.5461,-1.5655,-1.5761,-1.5805,-1.5805,-1.5805,-1.5867,-1.6202,-1.6236,-1.6226,-1.6615,-1.6468,-1.6138,-1.6037,-1.5771,-1.5477,-1.5132,-1.5153,-1.5134,-1.4589,-1.4564,-1.4492,-1.4036,-1.3948,-1.3782,-1.3256,-1.293,-1.2568,-1.2129,-1.1406,-1.091,-1.0964,0.0,0.0,-1.0813,0.0,0.0,0.0,0.0,0.0,0.0,-1.1539,-1.2079,-1.2679,-1.3564,-1.4535,-1.5614,-1.6258,-1.7241,-1.8688,-1.9059,-1.9705,-2.0607,-2.1037,-2.1348,-2.1463,-2.1655,-2.2127,-2.281,-2.3499,-2.4095,-2.4635,-2.5387,-2.5793,-2.598,-2.6201,-2.6361,-2.6521,-2.6658,-2.6964,-2.7302,-0.9991,0.0,0.0,-1.151,0.0,0.0,-1.2174,-1.2847,0.0,-1.4032,-1.4688,0.0,-1.5564,-1.5928,-1.6184,-1.6397,-1.6411,0.0,-1.6411,0.0,0.0,-1.5396,-1.48,-1.4259,-1.3805,-1.3153,0.0,-1.2305,0.0,0.0,-1.0719,0.0,0.0,0.0,0.0,-0.9993,-1.0208,-1.0915,-1.185,-1.2869,-1.3403,-1.3968,0.0,-1.5029,-1.539,-1.5655,-1.5761,-1.5805,-1.5805,-1.5805,-1.5805,-1.5867,-1.6202,-1.6307,-1.6377,-1.6769,-1.6752,-1.6532,-1.6367,-1.6147,-1.5896,-1.5618,-1.5564,-1.5524,-1.5195,-1.508,-1.4941,-1.4502,-1.4424,-1.426,-1.3831,-1.3437,-1.2949,-1.2301,-1.1784,-1.1438,0.0,0.0,0.0,0.0,-1.0966,-1.091,-1.091,-1.091,-1.091,-1.091,-1.1127,-1.1652,-1.2457,-1.3051,-1.3973,-1.5239,-1.589,-1.6812,-1.8143,-1.8832,-1.9588,-2.0423,-2.0948,-2.1285,-2.142,-2.1624,-2.2076,-2.2733,-2.3466,-2.4061,-2.4566,-2.5317,-2.5688,-2.5793,-2.6097,-2.6339,-2.6499,-2.6589,-2.6794,-2.7066,-1.0567,0.0,0.0,0.0,0.0,0.0,-1.3337,-1.3542,-1.4004,-1.4849,-1.525,-1.5593,-1.6001,-1.6272,-1.6492,-1.6491,-1.6536,-1.6536,-1.6536,-1.6499,-1.6213,-1.5619,-1.571,-1.5205,-1.402,-1.4074,-1.3585,0.0,0.0,-1.1626,0.0,0.0,0.0,0.0,0.0,0.0,0.0,-1.1316,-1.2178,-1.3179,-1.3465,-1.4067,-1.4792,-1.5089,-1.5461,-1.5805,-1.5805,-1.5805,-1.5805,-1.5805,-1.5805,-1.5867,-1.6202,-1.6307,-1.6377,-1.6769,-1.6908,-1.6835,-1.6453,-1.6395,-1.6294,-1.6002,-1.5854,-1.5759,-1.5835,-1.5671,-1.5391,-1.5029,-1.4902,-1.4736,-1.427,-1.3851,-1.3305,-1.2506,-1.233,-1.2168,0.0,0.0,0.0,0.0,0.0,0.0,-1.091,-1.091,-1.091,-1.091,-1.091,-1.1331,-1.2331,-1.2531,-1.3278,-1.4733,-1.5441,-1.6367,-1.7611,-1.8664,-1.9584,-2.0331,-2.0925,-2.1253,-2.1388,-2.158,-2.2032,-2.2713,-2.3433,-2.4049,-2.4566,-2.5282,-2.5571,-2.5641,-2.605,-2.6305,-2.6465,-2.6499,-2.6555,-2.6692,-1.1612,0.0,0.0,0.0,0.0,-1.2982,-1.409,-1.4484,-1.4805,-1.5243,-1.5586,-1.6052,-1.6675,-1.6785,-1.6925,-1.7135,-1.7157,0.0,-1.7157,0.0,0.0,-1.6491,-1.6166,-1.5754,-1.5119,-1.4613,-1.4026,-1.3369,-1.2774,-1.2099,-1.1392,-1.0995,0.0,0.0,0.0,0.0,-1.1336,-1.1749,-1.2536,-1.3538,-1.3594,-1.4213,-1.5122,-1.518,-1.5461,-1.5805,-1.5805,-1.5805,-1.5805,-1.5805,-1.5805,-1.5867,-1.6202,-1.6307,-1.6377,-1.6769,-1.6908,-1.689,-1.6817,-1.6807,-1.6707,-1.6303,-1.6412,-1.6523,-1.6195,-1.6035,-1.5958,-1.588,-1.5547,-1.5176,-1.4746,-1.4289,-1.3831,-1.3344,-1.2988,-1.2617,-1.2178,0.0,0.0,0.0,0.0,-1.1323,-1.0941,-1.091,-1.091,-1.091,-1.091,-1.1147,-1.1725,-1.2288,-1.3085,-1.4121,-1.5232,-1.624,-1.7111,-1.8513,-1.9426,-1.9826,-2.0764,-2.1221,-2.1253,-2.138,-2.1861,-2.2563,-2.3268,-2.3915,-2.452,-2.513,-2.5453,-2.5641,-2.605,-2.6201,-2.627,-2.643,-2.6499,-2.6568,0.0,0.0,0.0,0.0,0.0,-1.374,-1.4408,-1.516,-1.5694,-1.5745,-1.6133,-1.6521,-1.6866,-1.7004,-1.7165,-1.7271,-1.7279,-1.738,-1.7481,-1.7479,-1.7304,-1.6919,-1.6817,-1.6417,-1.5685,-1.5262,-1.4759,-1.4132,-1.3259,-1.2598,-1.2065,-1.1503,-1.1161,0.0,0.0,-1.1281,0.0,-1.2146,-1.2798,-1.3634,-1.3783,-1.4415,-1.5204,-1.5204,-1.5461,-1.5805,-1.5805,-1.5805,-1.5805,-1.5805,-1.5805,-1.5867,-1.6202,-1.6307,-1.6377,-1.6769,-1.6908,-1.6908,-1.6908,-1.6908,-1.6862,-1.667,-1.6695,-1.6755,-1.6571,-1.6465,-1.6406,-1.6406,-1.6064,-1.5586,-1.4902,-1.4619,-1.4336,-1.387,-1.3477,-1.3135,-1.2895,0.0,-1.217,0.0,0.0,0.0,0.0,-1.1034,-1.091,-1.091,0.0,-1.1096,-1.156,-1.2236,-1.2914,-1.3605,-1.5044,-1.6023,-1.6465,-1.8288,-1.931,-1.9559,-2.0687,-2.119,-2.1201,-2.1626,-2.2162,-2.2798,-2.3572,-2.4253,-2.4858,-2.5168,-2.5418,-2.5606,-2.5793,-2.6015,-2.6213,-2.6305,-2.6584,-2.6914,0.0,-1.3937,0.0,0.0,-1.4937,-1.512,-1.512,-1.5928,-1.6507,-1.6198,-1.6529,-1.6851,-1.6991,-1.7179,-1.7279,-1.7279,-1.7333,-1.7481,-1.7675,-1.7822,-1.769,-1.7297,-1.7425,-1.7028,-1.6076,-1.5826,-1.5332,-1.4605,-1.3751,-1.3084,-1.2582,-1.2009,-1.1638,-1.1495,-1.1567,-1.1797,-1.2154,-1.2551,-1.31,-1.3719,-1.3997,-1.4525,-1.5204,-1.5204,-1.5461,-1.5805,-1.5805,-1.5805,-1.5805,-1.5805,-1.5805,-1.5867,-1.6202,-1.6307,-1.6377,-1.6769,-1.6908,-1.6908,-1.6908,-1.6908,-1.6908,-1.6908,-1.6909,-1.6935,-1.6935,-1.6885,-1.6833,-1.6833,-1.6514,-1.5997,-1.5224,-1.5087,-1.4883,-1.4328,-1.3968,-1.3721,-1.3535,-1.3135,0.0,0.0,0.0,0.0,-1.1612,-1.1261,-1.1003,-1.091,-1.091,-1.1096,-1.156,-1.2236,-1.2861,-1.3435,-1.4979,-1.5975,-1.6317,-1.8237,-1.9325,-1.9576,-2.0671,-2.119,-2.1213,-2.186,-2.2435,-2.3059,-2.387,-2.4599,-2.5147,-2.5276,-2.5382,-2.5535,-2.5571,-2.5793,-2.6074,-2.6268,-2.6671,-2.7212,0.0,0.0,0.0,-1.5301,-1.625,-1.7062,-1.7062,-1.7118,-1.7018,-1.6463,-1.6426,-1.6683,-1.7223,-1.7264,-1.7279,-1.7279,-1.7527,-1.7675,-1.7675,-1.8148,-1.8264,-1.783,-1.777,-1.7429,-1.6617,-1.6023,-1.5332,-1.4605,-1.4185,-1.3521,-1.259,-1.2527,-1.2144,-1.1503,-1.1821,-1.217,-1.2566,-1.2925,-1.3441,-1.4061,-1.4101,-1.4525,-1.5204,-1.5204,-1.5461,-1.5805,-1.5805,-1.5805,-1.5805,-1.5805,-1.5805,-1.5867,-1.6202,-1.6307,-1.6377,-1.6769,-1.6908,-1.6908,-1.6908,-1.6908,-1.6908,-1.6908,-1.7157,-1.7448,-1.7448,-1.7393,-1.7324,-1.7324,-1.6973,-1.6523,-1.6065,-1.5968,-1.5703,-1.4863,-1.4687,-1.4394,-1.3613,-1.3574,-1.3362,-1.2682,0.0,0.0,-1.1674,-1.155,-1.1363,-1.0941,-1.091,-1.1096,-1.156,-1.2236,-1.2999,-1.3905,-1.5142,-1.6304,-1.7352,-1.8583,-1.9505,-2.012,-2.0874,-2.119,-2.1213,-2.1697,-2.2303,-2.3059,-2.3721,-2.4506,-2.5276,-2.5276,-2.5312,-2.5347,-2.5535,-2.5606,-2.5737,-2.6415,-2.6708,-2.6893,-1.5711,-1.617,-1.6527,-1.6527,-1.6943,-1.7279,-1.7279,-1.7279,-1.7191,-1.6974,-1.6945,-1.704,-1.725,-1.7279,-1.7279,-1.7279,-1.7567,-1.7807,-1.7947,-1.8288,-1.8371,-1.8139,-1.7917,-1.7591,-1.7072,-1.6357,-1.5753,-1.5261,-1.4668,-1.4109,-1.3481,-1.31,-1.2646,-1.2176,-1.2504,-1.2742,-1.2949,-1.3465,-1.3862,-1.4132,-1.4312,-1.4719,-1.5204,-1.5204,-1.5461,-1.5805,-1.5805,-1.5805,-1.5805,-1.5805,-1.5805,-1.5867,-1.6202,-1.6307,-1.6377,-1.6769,-1.6908,-1.6908,-1.6908,-1.6908,-1.6908,-1.6908,-1.7185,-1.7505,-1.7505,-1.7644,-1.7764,-1.7764,-1.7422,-1.6992,-1.6543,-1.625,-1.5987,-1.5635,-1.5146,-1.4696,-1.4316,-1.3942,0.0,-1.3425,0.0,-1.2681,-1.242,-1.2162,-1.1934,-1.1757,-1.1468,-1.1405,-1.1581,-1.2499,-1.3318,-1.398,-1.5163,-1.6322,-1.7368,-1.8581,-1.9497,-2.0042,-2.0823,-2.1351,-2.164,-2.2145,-2.2925,-2.3933,-2.4308,-2.4756,-2.5182,-2.5276,-2.5312,-2.5312,-2.5382,-2.5488,-2.5667,-2.6285,-2.6797,-2.7299,-1.7279,-1.7279,-1.7279,-1.7279,-1.7279,-1.741,-1.7845,-1.7904,-1.7904,-1.7904,-1.7904,-1.7904,-1.7904,-1.7904,-1.7743,-1.7315,-1.7613,-1.7893,-1.8133,-1.8419,-1.8548,-1.8462,-1.8017,-1.7703,-1.7472,-1.6619,-1.6079,-1.5833,-1.5141,-1.4581,-1.4217,-1.3561,-1.3132,-1.2901,-1.3124,-1.329,-1.3425,-1.391,-1.4172,-1.4256,-1.4502,-1.4848,-1.5204,-1.5204,-1.5461,-1.5805,-1.5805,-1.5805,-1.5805,-1.5805,-1.5805,-1.5867,-1.6202,-1.6307,-1.6377,-1.6769,-1.6908,-1.6908,-1.6908,-1.6908,-1.6908,-1.6908,-1.7151,-1.7426,-1.7505,-1.7701,-1.793,-1.7974,-1.7773,-1.7441,-1.7002,-1.666,-1.6398,-1.6134,-1.5586,-1.5107,-1.4852,-1.4348,-1.3981,-1.3912,-1.3442,-1.3052,-1.2903,-1.2637,-1.2421,-1.2318,-1.2099,-1.1975,-1.1975,-1.2953,-1.3776,-1.4395,-1.5445,-1.6541,-1.7711,-1.8696,-1.9504,-2.0162,-2.1019,-2.1583,-2.1917,-2.2604,-2.349,-2.449,-2.4646,-2.4825,-2.5016,-2.5182,-2.5241,-2.5241,-2.5276,-2.5479,-2.5803,-2.6336,-2.6992,-2.7652,-1.7279,-1.7279,-1.7279,-1.7279,-1.7279,-1.7765,-1.906,-1.9302,-1.9302,-1.9302,-1.9302,-1.9302,-1.9302,-1.9302,-1.873,-1.7443,-1.7613,-1.7939,-1.8265,-1.8596,-1.8781,-1.8773,-1.8144,-1.7814,-1.7806,-1.6746,-1.6206,-1.6198,-1.5515,-1.499,-1.4581,-1.391,-1.3576,-1.3602,-1.3576,-1.3775,-1.4101,-1.4109,-1.428,-1.4597,-1.4605,-1.4848,-1.5204,-1.5204,-1.5461,-1.5805,-1.5805,-1.5805,-1.5805,-1.5805,-1.5805,-1.5867,-1.6202,-1.6307,-1.6377,-1.6769,-1.6908,-1.6908,-1.6908,-1.6908,-1.6908,-1.6908,-1.7038,-1.7279,-1.747,-1.7623,-1.775,-1.7974,-1.8008,-1.7871,-1.7484,-1.7406,-1.7112,-1.6232,-1.6085,-1.5782,-1.493,-1.4803,-1.4572,-1.3982,-1.3897,-1.3634,-1.2964,-1.2894,-1.273,-1.2339,-1.2668,-1.2884,-1.2884,-1.3596,-1.4427,-1.535,-1.6093,-1.7202,-1.8654,-1.9029,-1.9714,-2.0701,-2.1511,-2.1883,-2.1929,-2.2937,-2.3789,-2.449,-2.449,-2.461,-2.4825,-2.5016,-2.5123,-2.5111,-2.5241,-2.5624,-2.6154,-2.6719,-2.7222,-2.7789,-1.8657,-1.8657,-1.8657,-1.8657,-1.8657,-1.8796,-1.9213,-1.9279,-1.9279,-1.9279,-1.9279,-1.9279,-1.9279,-1.9279,-1.9111,-1.8694,-1.8278,-1.8079,-1.8265,-1.8589,-1.8781,-1.8781,-1.8383,-1.8017,-1.7814,-1.7223,-1.6698,-1.6206,-1.5991,-1.5459,-1.4597,-1.4164,-1.3815,-1.3626,-1.3831,-1.4005,-1.409,-1.4336,-1.4502,-1.4605,-1.4605,-1.4848,-1.5204,-1.5204,-1.5461,-1.5805,-1.5805,-1.5805,-1.5805,-1.5805,-1.5805,-1.5867,-1.6202,-1.6307,-1.6377,-1.6769,-1.6908,-1.6908,-1.6908,-1.6908,-1.6908,-1.6908,-1.7038,-1.7235,-1.747,-1.7701,-1.794,-1.7974,-1.8008,-1.7969,-1.7832,-1.7578,-1.7187,-1.6611,-1.629,-1.5889,-1.5293,-1.4971,-1.4771,-1.4658,-1.4493,-1.4321,-1.4205,-1.4285,-1.4283,-1.4138,-1.4262,-1.4066,-1.34,-1.4092,-1.4917,-1.585,-1.664,-1.7573,-1.8676,-1.9271,-1.9925,-2.0712,-2.1403,-2.2172,-2.2949,-2.3614,-2.4076,-2.4309,-2.4454,-2.4538,-2.461,-2.4825,-2.4992,-2.5159,-2.5517,-2.5816,-2.6202,-2.709,-2.7534,-2.7762,-1.9279,-1.9279,-1.9279,-1.9279,-1.9279,-1.9279,-1.9279,-1.9279,-1.9279,-1.9279,-1.9279,-1.9279,-1.9279,-1.9279,-1.9279,-1.9279,-1.8379,-1.7986,-1.8458,-1.8689,-1.8781,-1.8781,-1.8486,-1.8128,-1.7822,-1.7488,-1.6992,-1.6404,-1.6269,-1.5801,-1.5022,-1.48,-1.4585,-1.4379,-1.4474,-1.4514,-1.4522,-1.4573,-1.4605,-1.4605,-1.4605,-1.4848,-1.5204,-1.5204,-1.5461,-1.5805,-1.5805,-1.5805,-1.5805,-1.5805,-1.5805,-1.5867,-1.6202,-1.6307,-1.6377,-1.6769,-1.6908,-1.6908,-1.6908,-1.6908,-1.6908,-1.6908,-1.7123,-1.7399,-1.7663,-1.7941,-1.81,-1.8013,-1.8008,-1.8008,-1.8008,-1.7793,-1.748,-1.7051,-1.6602,-1.6162,-1.5723,-1.5293,-1.5017,-1.5,-1.4907,-1.4827,-1.4797,-1.4918,-1.4997,-1.4997,-1.4997,-1.4821,-1.4417,-1.4911,-1.5573,-1.635,-1.7149,-1.801,-1.8949,-1.9452,-2.0139,-2.097,-2.1912,-2.2834,-2.3705,-2.4051,-2.42,-2.42,-2.4345,-2.4381,-2.4418,-2.461,-2.4859,-2.518,-2.5548,-2.6,-2.6566,-2.7311,-2.772,-2.7948,-1.9279,-1.9279,-1.9279,-1.9279,-1.9279,-1.9279,-1.9279,-1.9279,-1.9279,-1.9279,-1.9279,-1.9279,-1.9279,-1.9279,-1.9279,-1.9279,-1.8167,-1.7804,-1.8697,-1.8781,-1.8781,-1.8781,-1.851,-1.8168,-1.7854,-1.7528,-1.7127,-1.6689,-1.6373,-1.6039,-1.5713,-1.5728,-1.5712,-1.5704,-1.5356,-1.5221,-1.5197,-1.4855,-1.4676,-1.4676,-1.4653,-1.4888,-1.5237,-1.5213,-1.5461,-1.5805,-1.5805,-1.5805,-1.5805,-1.5805,-1.5805,-1.5867,-1.6202,-1.6307,-1.6377,-1.6769,-1.6908,-1.6908,-1.6908,-1.6927,-1.6945,-1.6945,-1.7248,-1.7649,-1.8043,-1.8202,-1.8254,-1.8066,-1.7993,-1.8008,-1.8008,-1.8008,-1.7871,-1.7484,-1.7041,-1.6611,-1.6163,-1.5713,-1.5332,-1.5051,-1.5151,-1.5157,-1.4893,-1.5011,-1.509,-1.509,-1.5121,-1.5328,-1.5763,-1.6079,-1.6435,-1.685,-1.7651,-1.8523,-1.9376,-1.9642,-2.0352,-2.152,-2.2776,-2.3671,-2.42,-2.42,-2.42,-2.42,-2.42,-2.42,-2.4236,-2.4428,-2.4779,-2.5233,-2.5501,-2.6209,-2.7117,-2.7364,-2.7763,-2.8219,-1.9279,-1.9279,-1.9279,-1.9279,-1.9279,-1.9279,-1.9279,-1.9279,-1.9279,-1.9279,-1.9279,-1.9279,-1.9279,-1.9279,-1.9279,-1.9279,-1.8994,-1.8691,-1.8295,-1.8596,-1.8781,-1.8781,-1.8702,-1.8533,-1.8184,-1.7834,-1.735,-1.6689,-1.6373,-1.6158,-1.6071,-1.5801,-1.5712,-1.5712,-1.5632,-1.5601,-1.5593,-1.5467,-1.5435,-1.5411,-1.5157,-1.5267,-1.5556,-1.5303,-1.5461,-1.5805,-1.5805,-1.5805,-1.5805,-1.5805,-1.5805,-1.5867,-1.6202,-1.6307,-1.6377,-1.6769,-1.6908,-1.6908,-1.6908,-1.7128,-1.7358,-1.7358,-1.7769,-1.822,-1.8294,-1.8313,-1.8305,-1.8235,-1.8094,-1.8008,-1.8008,-1.8008,-1.7871,-1.7484,-1.7295,-1.6953,-1.6202,-1.6007,-1.5782,-1.5351,-1.5571,-1.5713,-1.564,-1.5912,-1.6081,-1.6081,-1.6335,-1.6572,-1.6686,-1.7332,-1.7573,-1.7328,-1.8451,-1.9189,-1.9387,-2.0216,-2.1262,-2.2541,-2.2965,-2.3528,-2.42,-2.42,-2.42,-2.42,-2.42,-2.42,-2.4223,-2.4627,-2.4969,-2.5303,-2.6143,-2.6738,-2.7164,-2.7592,-2.7855,-2.8002,-1.9279,-1.9279,-1.9279,-1.9279,-1.9279,-1.9279,-1.9279,-1.9279,-1.9279,-1.9279,-1.9279,-1.9279,-1.9279,-1.9279,-1.9279,-1.9279,-1.9279,-1.8875,-1.7789,-1.8404,-1.8781,-1.8781,-1.8781,-1.8661,-1.8311,-1.8112,-1.7676,-1.6984,-1.6619,-1.6444,-1.6404,-1.6246,-1.6158,-1.615,-1.5991,-1.592,-1.5904,-1.5784,-1.5712,-1.5666,-1.5521,-1.5533,-1.5688,-1.549,-1.5576,-1.5805,-1.5805,-1.5805,-1.5805,-1.5805,-1.5805,-1.5867,-1.6202,-1.6307,-1.6377,-1.6769,-1.6908,-1.6945,-1.7128,-1.733,-1.7587,-1.7963,-1.8294,-1.8573,-1.8657,-1.8639,-1.855,-1.834,-1.8212,-1.8104,-1.8013,-1.8008,-1.7939,-1.7705,-1.751,-1.7217,-1.677,-1.6525,-1.6279,-1.6015,-1.6237,-1.6427,-1.6487,-1.6757,-1.6935,-1.6995,-1.7192,-1.7327,-1.7327,-1.8029,-1.8341,-1.8137,-1.8949,-1.9626,-2.0074,-2.1126,-2.2048,-2.2782,-2.3232,-2.3673,-2.408,-2.4164,-2.42,-2.42,-2.42,-2.4315,-2.4545,-2.4809,-2.5237,-2.5835,-2.644,-2.685,-2.7174,-2.7562,-2.7708,-2.7748,-1.9272,-1.9279,-1.9279,-1.9279,-1.9279,-1.9279,-1.9279,-1.9279,-1.9279,-1.9279,-1.9279,-1.9279,-1.9279,-1.9279,-1.9279,-1.9279,-1.9279,-1.8723,-1.7366,-1.8079,-1.8643,-1.8781,-1.8781,-1.8684,-1.839,-1.8271,-1.7906,-1.7278,-1.6913,-1.6689,-1.6689,-1.6689,-1.6689,-1.6681,-1.638,-1.6285,-1.6269,-1.596,-1.5833,-1.5833,-1.5816,-1.5807,-1.586,-1.5753,-1.5786,-1.5874,-1.5822,-1.5805,-1.5805,-1.5805,-1.5805,-1.5867,-1.6202,-1.6351,-1.6466,-1.6895,-1.7037,-1.7147,-1.7422,-1.7587,-1.7862,-1.8614,-1.8806,-1.8845,-1.9008,-1.901,-1.8882,-1.8499,-1.8314,-1.8219,-1.8071,-1.7988,-1.7974,-1.8008,-1.7705,-1.7461,-1.7393,-1.7061,-1.6775,-1.6707,-1.6886,-1.7034,-1.7169,-1.7378,-1.7543,-1.7668,-1.7761,-1.7802,-1.7802,-1.8427,-1.8902,-1.9105,-1.9414,-2.0063,-2.1102,-2.2088,-2.2601,-2.2714,-2.3475,-2.3824,-2.3897,-2.408,-2.4164,-2.42,-2.4269,-2.4533,-2.4923,-2.5084,-2.567,-2.6513,-2.6593,-2.6852,-2.7231,-2.7412,-2.7441,-2.7482,-1.9116,-1.9279,-1.9279,-1.9279,-1.9279,-1.9279,-1.9279,-1.9279,-1.9279,-1.9279,-1.9279,-1.9279,-1.9279,-1.9279,-1.9279,-1.9279,-1.9279,-1.8723,-1.7366,-1.7466,-1.7893,-1.8781,-1.8781,-1.8804,-1.8702,-1.816,-1.7703,-1.7278,-1.6913,-1.6689,-1.6689,-1.6689,-1.6689,-1.6689,-1.6634,-1.661,-1.661,-1.6554,-1.6531,-1.6507,-1.6246,-1.6323,-1.6552,-1.5951,-1.5936,-1.6171,-1.5908,-1.5805,-1.5805,-1.5805,-1.5805,-1.5867,-1.6202,-1.6572,-1.6946,-1.7296,-1.766,-1.7834,-1.7578,-1.7999,-1.8632,-1.9091,-1.921,-1.921,-1.9258,-1.9127,-1.8964,-1.8919,-1.8505,-1.8164,-1.8248,-1.7966,-1.7784,-1.7974,-1.7959,-1.7793,-1.7432,-1.7324,-1.7148,-1.6746,-1.6886,-1.7012,-1.7044,-1.7315,-1.7512,-1.7543,-1.8008,-1.8278,-1.8278,-1.8886,-1.9491,-2.005,-2.0307,-2.0964,-2.2084,-2.2273,-2.2619,-2.3187,-2.3338,-2.3556,-2.3897,-2.3934,-2.4043,-2.4212,-2.4625,-2.4843,-2.4981,-2.5865,-2.6352,-2.6547,-2.6944,-2.7121,-2.719,-2.7219,-2.726,-2.726,-1.9063,-1.9279,-1.9279,-1.9279,-1.9279,-1.9279,-1.9279,-1.9279,-1.9279,-1.9279,-1.9279,-1.9279,-1.9279,-1.9279,-1.9279,-1.9279,-1.9279,-1.9023,-1.8416,-1.7721,-1.752,-1.7986,-1.8357,-1.855,-1.8658,-1.8092,-1.7735,-1.7583,-1.7,-1.6689,-1.6689,-1.6689,-1.6689,-1.6689,-1.6689,-1.6689,-1.6689,-1.6689,-1.6689,-1.6681,-1.6515,-1.6613,-1.675,-1.642,-1.6313,-1.6274,-1.6156,-1.5968,-1.5805,-1.5805,-1.5925,-1.6124,-1.6375,-1.6818,-1.732,-1.7569,-1.8007,-1.8394,-1.8201,-1.8586,-1.9072,-1.9256,-1.9301,-1.9301,-1.9301,-1.9243,-1.9136,-1.901,-1.877,-1.8515,-1.8233,-1.8091,-1.7985,-1.7857,-1.793,-1.7939,-1.7744,-1.7715,-1.7646,-1.7418,-1.7478,-1.7576,-1.7707,-1.7903,-1.8066,-1.8196,-1.8575,-1.8901,-1.9139,-1.9435,-1.986,-2.0495,-2.1156,-2.1759,-2.2277,-2.2564,-2.283,-2.315,-2.3261,-2.3409,-2.3567,-2.3947,-2.4157,-2.4291,-2.4892,-2.5294,-2.5607,-2.6216,-2.6662,-2.6898,-2.7139,-2.719,-2.719,-2.719,-2.719,-2.719,-1.8743,-1.9116,-1.9279,-1.9279,-1.9279,-1.9279,-1.9279,-1.9279,-1.9279,-1.9279,-1.9279,-1.9279,-1.9279,-1.9279,-1.9279,-1.9279,-1.9279,-1.9279,-1.9279,-1.8057,-1.7279,-1.7279,-1.7893,-1.8272,-1.8381,-1.8037,-1.7807,-1.7727,-1.7117,-1.6776,-1.6689,-1.6689,-1.6689,-1.6689,-1.6689,-1.6689,-1.6689,-1.6689,-1.6689,-1.6689,-1.6689,-1.6766,-1.6867,-1.6824,-1.6676,-1.651,-1.6507,-1.6302,-1.6062,-1.6062,-1.6242,-1.6465,-1.6694,-1.7149,-1.7692,-1.7872,-1.8379,-1.8852,-1.8852,-1.9072,-1.9301,-1.9301,-1.9301,-1.9301,-1.9301,-1.9301,-1.9258,-1.9081,-1.899,-1.8806,-1.8384,-1.8254,-1.8113,-1.7883,-1.7886,-1.794,-1.7974,-1.8008,-1.8008,-1.8008,-1.8008,-1.8115,-1.835,-1.8496,-1.8706,-1.9012,-1.9216,-1.9507,-1.9938,-1.9948,-2.0226,-2.0923,-2.1783,-2.2331,-2.2477,-2.2826,-2.3001,-2.3001,-2.315,-2.3316,-2.3486,-2.3987,-2.4323,-2.4496,-2.5194,-2.5701,-2.604,-2.6417,-2.6794,-2.7138,-2.719,-2.719,-2.719,-2.719,-2.719,-2.719,-1.7687,-1.8586,-1.9279,-1.9279,-1.9279,-1.9279,-1.9279,-1.9279,-1.9279,-1.9279,-1.9279,-1.9279,-1.9279,-1.9279,-1.9279,-1.9279,-1.9279,-1.9279,-1.9279,-1.8057,-1.7279,-1.7279,-1.7652,-1.7939,-1.8133,-1.7963,-1.7749,-1.743,-1.7328,-1.7064,-1.6689,-1.6689,-1.6689,-1.6689,-1.6689,-1.6689,-1.6689,-1.6689,-1.6689,-1.6689,-1.6689,-1.6837,-1.7058,-1.6883,-1.6923,-1.7122,-1.6928,-1.6821,-1.6841,-1.6841,-1.6858,-1.6876,-1.7084,-1.7582,-1.8092,-1.8294,-1.8797,-1.9256,-1.9256,-1.9283,-1.9301,-1.9301,-1.9301,-1.9301,-1.9301,-1.9301,-1.9292,-1.9265,-1.8971,-1.8782,-1.8927,-1.8322,-1.7934,-1.8216,-1.7975,-1.7784,-1.7974,-1.8008,-1.8008,-1.8008,-1.8008,-1.8164,-1.8555,-1.8759,-1.9148,-1.9756,-1.9956,-2.0124,-2.0333,-2.0379,-2.0765,-2.159,-2.1886,-2.2306,-2.2947,-2.299,-2.3001,-2.3001,-2.3001,-2.3354,-2.3946,-2.4017,-2.4348,-2.4988,-2.5542,-2.5788,-2.5856,-2.656,-2.6899,-2.6933,-2.7149,-2.719,-2.719,-2.719,-2.719,-2.719,-1.7582,-1.795,-1.8482,-1.9168,-1.9279,-1.9279,-1.9279,-1.9279,-1.9279,-1.9279,-1.9279,-1.9279,-1.9279,-1.9279,-1.9279,-1.9279,-1.9279,-1.9279,-1.9279,-1.8057,-1.7279,-1.7279,-1.7567,-1.7761,-1.7861,-1.7758,-1.7549,-1.7203,-1.713,-1.687,-1.6525,-1.6648,-1.6689,-1.6689,-1.6689,-1.6689,-1.6689,-1.6689,-1.6689,-1.6689,-1.6689,-1.6853,-1.7123,-1.7154,-1.7165,-1.7201,-1.7235,-1.7115,-1.688,-1.688,-1.7072,-1.7299,-1.7368,-1.7791,-1.8342,-1.8658,-1.9034,-1.9301,-1.9301,-1.9301,-1.9301,-1.9301,-1.9301,-1.9301,-1.9301,-1.9301,-1.9301,-1.9301,-1.9182,-1.8999,-1.8847,-1.8665,-1.849,-1.8366,-1.8341,-1.8381,-1.8595,-1.8631,-1.8666,-1.8799,-1.8799,-1.8867,-1.9023,-1.9232,-1.9455,-1.9696,-1.9939,-2.0267,-2.0616,-2.105,-2.1474,-2.194,-2.2137,-2.2482,-2.3001,-2.3001,-2.3001,-2.3001,-2.3307,-2.3585,-2.3831,-2.4473,-2.4875,-2.5154,-2.5784,-2.6046,-2.6099,-2.6524,-2.6727,-2.6727,-2.6944,-2.7015,-2.7015,-2.7149,-2.719,-2.719,-1.7582,-1.7582,-1.795,-1.9116,-1.9279,-1.9279,-1.9279,-1.9279,-1.9279,-1.9279,-1.9279,-1.9279,-1.9279,-1.9279,-1.9279,-1.9279,-1.9089,-1.8972,-1.8972,-1.794,-1.7279,-1.7279,-1.7481,-1.7574,-1.7574,-1.7628,-1.7432,-1.6984,-1.6972,-1.6753,-1.6394,-1.6517,-1.6648,-1.6689,-1.6689,-1.6689,-1.6689,-1.6689,-1.6689,-1.6689,-1.6689,-1.6812,-1.7017,-1.731,-1.7324,-1.7307,-1.7567,-1.7483,-1.7231,-1.7231,-1.7441,-1.7646,-1.7646,-1.7985,-1.8482,-1.8803,-1.9042,-1.9222,-1.9222,-1.9262,-1.9301,-1.9301,-1.9301,-1.9301,-1.9301,-1.9301,-1.9301,-1.9301,-1.9301,-1.9219,-1.8944,-1.8883,-1.8823,-1.8611,-1.862,-1.8683,-1.8867,-1.8977,-1.9041,-1.9178,-1.9251,-1.9336,-1.9473,-1.9603,-1.9782,-2.0004,-2.0216,-2.0569,-2.0985,-2.1528,-2.1883,-2.2101,-2.2214,-2.2515,-2.2889,-2.2964,-2.3078,-2.323,-2.3531,-2.3886,-2.4203,-2.4869,-2.5303,-2.5467,-2.592,-2.6115,-2.6104,-2.6354,-2.6479,-2.6479,-2.6727,-2.6809,-2.6809,-2.6974,-2.7026,-2.7026,-1.7582,-1.7582,-1.795,-1.9116,-1.9272,-1.9279,-1.9279,-1.9279,-1.9279,-1.9279,-1.9279,-1.9279,-1.9279,-1.9279,-1.9279,-1.9279,-1.8679,-1.8299,-1.8291,-1.7691,-1.7279,-1.7279,-1.7279,-1.7279,-1.7279,-1.7574,-1.7354,-1.6683,-1.6984,-1.6849,-1.6394,-1.6394,-1.6517,-1.6689,-1.6689,-1.6689,-1.6689,-1.6689,-1.6689,-1.6689,-1.6689,-1.6689,-1.6738,-1.7229,-1.7392,-1.7432,-1.7838,-1.8,-1.8,-1.8,-1.8,-1.8,-1.8,-1.8201,-1.8442,-1.8652,-1.8851,-1.9002,-1.9002,-1.9152,-1.9301,-1.9301,-1.9301,-1.9301,-1.9301,-1.9301,-1.9301,-1.9301,-1.9301,-1.9301,-1.9301,-1.8981,-1.8762,-1.8972,-1.8657,-1.8499,-1.8702,-1.8877,-1.9014,-1.9014,-1.9197,-1.9463,-1.9883,-1.9922,-2.0183,-2.0838,-2.0906,-2.1099,-2.1464,-2.1693,-2.1883,-2.2111,-2.2111,-2.23,-2.2703,-2.2889,-2.3252,-2.3694,-2.3694,-2.4246,-2.5215,-2.5215,-2.5448,-2.5895,-2.5895,-2.5895,-2.5906,-2.6115,-2.6199,-2.6229,-2.6479,-2.6603,-2.6603,-2.6603,-2.6603,-2.6603,-1.7582,-1.7582,-1.7687,-1.8055,-1.875,-1.9279,-1.9279,-1.9279,-1.9279,-1.9279,-1.9279,-1.9279,-1.9279,-1.9279,-1.9279,-1.9279,-1.8679,-1.8108,-1.7647,-1.7388,-1.7279,-1.7279,-1.7279,-1.7279,-1.7279,-1.738,-1.711,-1.65,-1.672,-1.6513,-1.5899,-1.6229,-1.6435,-1.6484,-1.6648,-1.6689,-1.6689,-1.6689,-1.6689,-1.6689,-1.6689,-1.6689,-1.673,-1.7057,-1.727,-1.7432,-1.7708,-1.787,-1.8,-1.8,-1.8,-1.8,-1.8,-1.8201,-1.8402,-1.8482,-1.8652,-1.8772,-1.8772,-1.8922,-1.9112,-1.9262,-1.9301,-1.9301,-1.9301,-1.9301,-1.9301,-1.9301,-1.9301,-1.9301,-1.9301,-1.9201,-1.9127,-1.9215,-1.9104,-1.9108,-1.9311,-1.9398,-1.9466,-1.962,-1.9851,-2.0053,-2.0178,-2.0294,-2.0458,-2.0683,-2.0819,-2.1099,-2.1464,-2.154,-2.1693,-2.1873,-2.2349,-2.2632,-2.2787,-2.3094,-2.3438,-2.3694,-2.4421,-2.4891,-2.5226,-2.5524,-2.5764,-2.5895,-2.5895,-2.5895,-2.5895,-2.5948,-2.599,-2.6032,-2.6229,-2.6313,-2.6354,-2.652,-2.6603,-2.6603,-1.7582,-1.7582,-1.7582,-1.7582,-1.8167,-1.8795,-1.922,-1.9279,-1.9279,-1.9279,-1.9279,-1.9279,-1.9279,-1.9279,-1.9279,-1.9279,-1.8679,-1.8028,-1.7323,-1.7279,-1.7279,-1.7279,-1.7279,-1.7279,-1.7279,-1.7279,-1.7011,-1.6411,-1.6507,-1.6297,-1.5692,-1.5982,-1.6229,-1.6394,-1.6525,-1.6648,-1.6689,-1.6689,-1.6689,-1.6689,-1.6689,-1.6689,-1.6738,-1.7017,-1.7221,-1.7432,-1.7619,-1.7829,-1.8,-1.8,-1.8,-1.8,-1.8,-1.8112,-1.8241,-1.8241,-1.8402,-1.8571,-1.8571,-1.8732,-1.8922,-1.9042,-1.9192,-1.9301,-1.9301,-1.9301,-1.9301,-1.9301,-1.9301,-1.9301,-1.9301,-1.9301,-1.9301,-1.9301,-1.9301,-1.9341,-1.9478,-1.9557,-1.9645,-1.9754,-1.999,-2.0186,-2.0303,-2.042,-2.0489,-2.0605,-2.078,-2.1022,-2.1244,-2.1598,-2.1816,-2.1961,-2.261,-2.3008,-2.3087,-2.3504,-2.3867,-2.4133,-2.4759,-2.518,-2.5469,-2.5764,-2.5895,-2.5895,-2.5895,-2.5895,-2.5895,-2.5895,-2.5895,-2.5895,-2.6021,-2.6074,-2.6104,-2.6271,-2.6313,-2.6313,-1.7582,-1.7582,-1.7582,-1.7582,-1.7582,-1.795,-1.9011,-1.9168,-1.922,-1.922,-1.9279,-1.9272,-1.9279,-1.9279,-1.9264,-1.9235,-1.8635,-1.7991,-1.7323,-1.7279,-1.7279,-1.7279,-1.7279,-1.7279,-1.7279,-1.7279,-1.7026,-1.6455,-1.6426,-1.6182,-1.5737,-1.5707,-1.594,-1.6353,-1.6394,-1.6484,-1.6648,-1.6689,-1.6689,-1.6689,-1.6689,-1.6689,-1.6738,-1.6976,-1.718,-1.7392,-1.7578,-1.7781,-1.8,-1.7991,-1.8,-1.8,-1.8,-1.8,-1.8,-1.8,-1.8152,-1.8362,-1.8362,-1.8523,-1.866,-1.866,-1.8962,-1.9271,-1.9271,-1.9262,-1.9262,-1.9262,-1.9301,-1.9301,-1.9301,-1.9301,-1.9301,-1.9301,-1.9301,-1.9301,-1.9301,-1.9478,-1.9576,-1.9613,-1.9811,-2.0057,-2.0331,-2.038,-2.0498,-2.0684,-2.0898,-2.0986,-2.1025,-2.1747,-2.2207,-2.2247,-2.2887,-2.3327,-2.3529,-2.399,-2.4397,-2.4775,-2.4818,-2.52,-2.5853,-2.5853,-2.5895,-2.5895,-2.5895,-2.5895,-2.5895,-2.5895,-2.5895,-2.5895,-2.5895,-2.5895,-2.5895,-2.5895,-2.5895,-2.5895,-1.7582,-1.7582,-1.7582,-1.7582,-1.7582,-1.7687,-1.795,-1.822,-1.8534,-1.8795,-1.8914,-1.9078,-1.9279,-1.9279,-1.9177,-1.8921,-1.8299,-1.775,-1.7355,-1.7279,-1.7279,-1.7279,-1.7279,-1.7279,-1.7279,-1.7279,-1.7135,-1.6793,-1.6536,-1.622,-1.5839,-1.5735,-1.5733,-1.5858,-1.6229,-1.6435,-1.6476,-1.6648,-1.6689,-1.6689,-1.6689,-1.6689,-1.6697,-1.6771,-1.6935,-1.718,-1.7392,-1.7587,-1.7781,-1.7951,-1.8,-1.8,-1.8,-1.8,-1.8,-1.8,-1.804,-1.808,-1.808,-1.8282,-1.8482,-1.8482,-1.8652,-1.8812,-1.8812,-1.8962,-1.9082,-1.9082,-1.9183,-1.9301,-1.9301,-1.9301,-1.9301,-1.9301,-1.9301,-1.9301,-1.9301,-1.9341,-1.947,-1.98,-1.999,-2.0273,-2.0673,-2.1009,-2.1356,-2.1602,-2.1642,-2.1765,-2.1927,-2.2098,-2.2341,-2.2656,-2.3186,-2.3546,-2.3815,-2.422,-2.4472,-2.4571,-2.4923,-2.5315,-2.5654,-2.5654,-2.5728,-2.5895,-2.5895,-2.5895,-2.5895,-2.5895,-2.5895,-2.5895,-2.5895,-2.5895,-2.5895,-2.5895,-2.5895,-2.5895,-1.7582,-1.7582,-1.7582,-1.7582,-1.7582,-1.7635,-1.7845,-1.8062,-1.8272,-1.8527,-1.8646,-1.8757,-1.9078,-1.913,-1.8986,-1.8599,-1.8101,-1.7677,-1.7301,-1.7279,-1.7279,-1.7279,-1.7279,-1.7279,-1.7279,-1.7279,-1.7172,-1.6903,-1.6573,-1.6213,-1.5906,-1.5654,-1.5616,-1.5692,-1.594,-1.6188,-1.6394,-1.6517,-1.6607,-1.6689,-1.6689,-1.6689,-1.6689,-1.6689,-1.6853,-1.7098,-1.7221,-1.7465,-1.774,-1.7821,-1.791,-1.8,-1.8,-1.8,-1.8,-1.8,-1.8,-1.8,-1.8,-1.8121,-1.8201,-1.8201,-1.8282,-1.8411,-1.866,-1.8772,-1.8851,-1.8851,-1.8922,-1.9033,-1.9152,-1.9152,-1.9183,-1.9262,-1.9301,-1.9366,-1.9577,-1.9604,-1.9751,-2.0122,-2.0292,-2.0449,-2.0778,-2.1233,-2.1543,-2.1709,-2.1843,-2.1967,-2.205,-2.2371,-2.2647,-2.2845,-2.3488,-2.3892,-2.4029,-2.4341,-2.4511,-2.4483,-2.4883,-2.5168,-2.5422,-2.5422,-2.5559,-2.578,-2.578,-2.5812,-2.5895,-2.5895,-2.5895,-2.5895,-2.5895,-2.5895,-2.5895,-2.5895,-2.5895,-2.5895,-1.7582,-1.7582,-1.7582,-1.7582,-1.7582,-1.7687,-1.8062,-1.8115,-1.8167,-1.8318,-1.8318,-1.8429,-1.8764,-1.8769,-1.857,-1.8178,-1.787,-1.7618,-1.7301,-1.7279,-1.7279,-1.7279,-1.7279,-1.7279,-1.7279,-1.7279,-1.7201,-1.6983,-1.6653,-1.6294,-1.5987,-1.5622,-1.5558,-1.5658,-1.5692,-1.5899,-1.627,-1.6353,-1.6484,-1.6648,-1.6689,-1.6689,-1.6689,-1.6689,-1.6853,-1.7057,-1.7098,-1.7343,-1.7659,-1.77,-1.7821,-1.7951,-1.7991,-1.8,-1.8,-1.8,-1.8,-1.8,-1.8,-1.8,-1.8,-1.8,-1.8,-1.808,-1.8491,-1.8612,-1.866,-1.866,-1.87,-1.874,-1.8922,-1.8962,-1.9002,-1.9152,-1.9277,-1.9491,-1.9798,-1.9948,-2.0131,-2.0525,-2.0644,-2.0808,-2.101,-2.1367,-2.1639,-2.1713,-2.1932,-2.2058,-2.21,-2.2653,-2.2978,-2.302,-2.3713,-2.412,-2.4206,-2.4378,-2.4454,-2.4497,-2.4743,-2.4946,-2.5158,-2.5158,-2.5295,-2.5517,-2.5517,-2.5644,-2.5853,-2.5853,-2.5853,-2.5895,-2.5895,-2.5895,-2.5895,-2.5895,-2.5895,-2.5895,-1.7582,-1.7582,-1.7582,-1.7582,-1.7582,-1.7635,-1.7687,-1.7687,-1.7747,-1.8016,-1.8069,-1.8174,-1.8429,-1.8215,-1.7903,-1.7538,-1.7446,-1.733,-1.7286,-1.7279,-1.7279,-1.7279,-1.7279,-1.7279,-1.7279,-1.7279,-1.7264,-1.7267,-1.6991,-1.6668,-1.6345,-1.5994,-1.5701,-1.5465,-1.5616,-1.5733,-1.5816,-1.6229,-1.6435,-1.6476,-1.6648,-1.6689,-1.6689,-1.6689,-1.673,-1.6771,-1.7017,-1.7261,-1.7473,-1.7619,-1.774,-1.7781,-1.7951,-1.8,-1.8,-1.8,-1.8,-1.8,-1.8,-1.8,-1.8,-1.8,-1.8,-1.804,-1.808,-1.8282,-1.8442,-1.8442,-1.8571,-1.87,-1.874,-1.8732,-1.874,-1.8772,-1.9201,-1.9598,-1.9611,-2.0094,-2.0585,-2.0979,-2.1312,-2.162,-2.1885,-2.1973,-2.2193,-2.2587,-2.2674,-2.2761,-2.2925,-2.3027,-2.3187,-2.3414,-2.3517,-2.3807,-2.4206,-2.4249,-2.4325,-2.4497,-2.454,-2.47,-2.4946,-2.4946,-2.5073,-2.5242,-2.5242,-2.538,-2.5644,-2.5644,-2.5728,-2.5895,-2.5895,-2.5895,-2.5895,-2.5895,-2.5895,-2.5895,-1.7582,-1.7582,-1.7582,-1.7582,-1.7582,-1.7582,-1.7582,-1.7582,-1.7635,-1.7747,-1.7657,-1.766,-1.7919,-1.7624,-1.74,-1.7258,-1.7049,-1.6911,-1.6911,-1.7059,-1.7106,-1.7106,-1.7239,-1.7279,-1.7279,-1.7279,-1.7279,-1.7279,-1.7011,-1.6734,-1.6404,-1.606,-1.5695,-1.5389,-1.5506,-1.5575,-1.5692,-1.5899,-1.6147,-1.6394,-1.6484,-1.6607,-1.6689,-1.6689,-1.6689,-1.673,-1.6812,-1.7017,-1.7261,-1.7335,-1.7456,-1.7546,-1.7635,-1.7749,-1.7829,-1.7829,-1.791,-1.8,-1.8,-1.8,-1.8,-1.8,-1.8,-1.8,-1.8,-1.8072,-1.8201,-1.8201,-1.8241,-1.8362,-1.8482,-1.8531,-1.8642,-1.8926,-1.9185,-1.9525,-1.9972,-2.04,-2.0878,-2.1366,-2.1577,-2.1741,-2.1874,-2.2008,-2.2185,-2.2407,-2.2662,-2.2838,-2.2925,-2.3057,-2.3135,-2.3276,-2.3416,-2.359,-2.3807,-2.4067,-2.4249,-2.4325,-2.4464,-2.4583,-2.4658,-2.4658,-2.4828,-2.5031,-2.5031,-2.5158,-2.538,-2.5559,-2.5654,-2.5728,-2.5864,-2.5895,-2.5895,-2.5895,-2.5895,-2.5895]}]]